[[{"header":{"parameterUnit":"m.s-1","parameterCategory":1,"la1":30.6,"la2":28.766,"lo1":-90.7593,"lo2":-88.6598,"dy":0.0162,"dx":0.0183,"nx":116,"ny":114,"refTime":"2024-05-12T18:00:00:Z","depth":0,"parameterNumber":2,"parameterNumberName":"U-component_of_WINDS"},"data":[0.0,0.0,0.0,0.0,0.0,0.0,0.0,0.0,0.0,0.0,0.0,0.0,0.0,0.0,0.0,0.0,0.0,0.0,0.0,0.0,0.0,0.0,0.0,0.0,0.0,0.0,0.0,0.0,0.0,0.0,0.0,0.0,0.0,0.0,0.0,0.0,0.0,0.0,0.0,0.0,0.0,0.0,0.0,0.0,0.0,0.0,0.0,0.0,0.0,0.0,0.0,0.0,0.0,0.0,0.0,0.0,0.0,0.0,0.0,0.0,0.0,0.0,0.0,0.0,0.0,0.0,0.0,0.0,0.0,0.0,0.0,0.0,0.0,0.0,0.0,0.0,0.0,0.0,0.0,0.0,0.0,0.0,0.0,0.0,0.0,0.0,0.0,0.0,0.0,0.0,0.0,0.0,0.0,0.0,0.0,0.0,0.0,0.0,0.0,0.0,0.0,0.0,0.0,0.0,0.0,0.0,0.0,0.0,0.0,0.0,0.0,0.0,0.0,0.0,0.0,0.0,0.0,0.0,0.0,0.0,0.0,0.0,0.0,0.0,0.0,0.0,0.0,0.0,0.0,0.0,0.0,0.0,0.0,0.0,0.0,0.0,0.0,0.0,0.0,0.0,0.0,0.0,0.0,0.0,0.0,0.0,0.0,0.0,0.0,0.0,0.0,0.0,0.0,0.0,0.0,0.0,0.0,0.0,0.0,0.0,0.0,0.0,0.0,0.0,0.0,0.0,0.0,0.0,0.0,0.0,0.0,0.0,0.0,0.0,0.0,0.0,0.0,0.0,0.0,0.0,0.0,0.0,0.0,0.0,0.0,0.0,0.0,0.0,0.0,0.0,0.0,0.0,0.0,0.0,0.0,0.0,0.0,0.0,0.0,0.0,0.0,0.0,0.0,0.0,0.0,0.0,0.0,0.0,0.0,0.0,0.0,0.0,0.0,0.0,0.0,0.0,0.0,0.0,0.0,0.0,0.0,0.0,0.0,0.0,0.0,0.0,0.0,0.0,0.0,0.0,0.0,0.0,0.0,0.0,0.0,0.0,0.0,0.0,0.0,0.0,0.0,0.0,0.0,0.0,0.0,0.0,0.0,0.0,0.0,0.0,0.0,0.0,0.0,0.0,0.0,0.0,0.0,0.0,0.0,0.0,0.0,0.0,0.0,0.0,0.0,0.0,0.0,0.0,0.0,0.0,0.0,0.0,0.0,0.0,0.0,0.0,0.0,0.0,0.0,0.0,0.0,0.0,0.0,0.0,0.0,0.0,0.0,0.0,0.0,0.0,0.0,0.0,0.0,0.0,0.0,0.0,0.0,0.0,0.0,0.0,0.0,0.0,0.0,0.0,0.0,0.0,0.0,0.0,0.0,0.0,0.0,0.0,0.0,0.0,0.0,0.0,0.0,0.0,0.0,0.0,0.0,0.0,0.0,0.0,0.0,0.0,0.0,0.0,0.0,0.0,0.0,0.0,0.0,0.0,0.0,0.0,0.0,0.0,0.0,0.0,0.0,0.0,0.0,0.0,0.0,0.0,0.0,0.0,0.0,0.0,0.0,0.0,0.0,0.0,0.0,0.0,0.0,0.0,0.0,0.0,0.0,0.0,0.0,0.0,0.0,0.0,0.0,0.0,0.0,0.0,0.0,0.0,0.0,0.0,0.0,0.0,0.0,0.0,0.0,0.0,0.0,0.0,0.0,0.0,0.0,0.0,0.0,0.0,0.0,0.0,0.0,0.0,0.0,0.0,0.0,0.0,0.0,0.0,0.0,0.0,0.0,0.0,0.0,0.0,0.0,0.0,0.0,0.0,0.0,0.0,0.0,0.0,0.0,0.0,0.0,0.0,0.0,0.0,0.0,0.0,0.0,0.0,0.0,0.0,0.0,0.0,0.0,0.0,0.0,0.0,0.0,0.0,0.0,0.0,0.0,0.0,0.0,0.0,0.0,0.0,0.0,0.0,0.0,0.0,0.0,0.0,0.0,0.0,0.0,0.0,0.0,0.0,0.0,0.0,0.0,0.0,0.0,0.0,0.0,0.0,0.0,0.0,0.0,0.0,0.0,0.0,0.0,0.0,0.0,0.0,0.0,0.0,0.0,0.0,0.0,0.0,0.0,0.0,0.0,0.0,0.0,0.0,0.0,0.0,0.0,0.0,0.0,0.0,0.0,0.0,0.0,0.0,0.0,0.0,0.0,0.0,0.0,0.0,0.0,0.0,0.0,0.0,0.0,0.0,0.0,0.0,0.0,0.0,0.0,0.0,0.0,0.0,0.0,0.0,0.0,0.0,0.0,0.0,0.0,0.0,0.0,0.0,0.0,0.0,0.0,0.0,0.0,0.0,0.0,0.0,0.0,0.0,0.0,0.0,0.0,0.0,0.0,0.0,0.0,0.0,0.0,0.0,0.0,0.0,0.0,0.0,0.0,0.0,0.0,0.0,0.0,0.0,0.0,0.0,0.0,0.0,0.0,0.0,0.0,0.0,0.0,0.0,0.0,0.0,0.0,0.0,0.0,0.0,0.0,0.0,0.0,0.0,0.0,0.0,0.0,0.0,0.0,0.0,0.0,0.0,0.0,0.0,0.0,0.0,0.0,0.0,0.0,0.0,0.0,0.0,0.0,0.0,0.0,0.0,0.0,0.0,0.0,0.0,0.0,0.0,0.0,0.0,0.0,0.0,0.0,0.0,0.0,0.0,0.0,0.0,0.0,0.0,0.0,0.0,0.0,0.0,0.0,0.0,0.0,0.0,0.0,0.0,0.0,0.0,0.0,0.0,0.0,0.0,0.0,0.0,0.0,0.0,0.0,0.0,0.0,0.0,0.0,0.0,0.0,0.0,0.0,0.0,0.0,0.0,0.0,0.0,0.0,0.0,0.0,0.0,0.0,0.0,0.0,0.0,0.0,0.0,0.0,0.0,0.0,0.0,0.0,0.0,0.0,0.0,0.0,0.0,0.0,0.0,0.0,0.0,0.0,0.0,0.0,0.0,0.0,0.0,0.0,0.0,0.0,0.0,0.0,0.0,0.0,0.0,0.0,0.0,0.0,0.0,0.0,0.0,0.0,0.0,0.0,0.0,0.0,0.0,0.0,0.0,0.0,0.0,0.0,0.0,0.0,0.0,0.0,0.0,0.0,0.0,0.0,0.0,0.0,0.0,0.0,0.0,0.0,0.0,0.0,0.0,0.0,0.0,0.0,0.0,0.0,0.0,0.0,0.0,0.0,0.0,0.0,0.0,0.0,0.0,0.0,0.0,0.0,0.0,0.0,0.0,0.0,0.0,0.0,0.0,0.0,0.0,0.0,0.0,0.0,0.0,0.0,0.0,0.0,0.0,0.0,0.0,0.0,0.0,0.0,0.0,0.0,0.0,0.0,0.0,0.0,0.0,0.0,0.0,0.0,0.0,0.0,0.0,0.0,0.0,0.0,0.0,0.0,0.0,0.0,0.0,0.0,0.0,0.0,0.0,0.0,0.0,0.0,0.0,0.0,0.0,0.0,0.0,0.0,0.0,0.0,0.0,0.0,0.0,0.0,0.0,0.0,0.0,0.0,0.0,0.0,0.0,0.0,0.0,0.0,0.0,0.0,0.0,0.0,0.0,0.0,0.0,0.0,0.0,0.0,0.0,0.0,0.0,0.0,0.0,0.0,0.0,0.0,0.0,0.0,0.0,0.0,0.0,0.0,0.0,0.0,0.0,0.0,0.0,0.0,0.0,0.0,0.0,0.0,0.0,0.0,0.0,0.0,0.0,0.0,0.0,0.0,0.0,0.0,0.0,0.0,0.0,0.0,0.0,0.0,0.0,0.0,0.0,0.0,0.0,0.0,0.0,0.0,0.0,0.0,0.0,0.0,0.0,0.0,0.0,0.0,0.0,0.0,0.0,0.0,0.0,0.0,0.0,0.0,0.0,0.0,0.0,0.0,0.0,0.0,0.0,0.0,0.0,0.0,0.0,0.0,0.0,0.0,0.0,0.0,0.0,0.0,0.0,0.0,0.0,0.0,0.0,0.0,0.0,0.0,0.0,0.0,0.0,0.0,0.0,0.0,0.0,0.0,0.0,0.0,0.0,0.0,0.0,0.0,0.0,0.0,0.0,0.0,0.0,0.0,0.0,0.0,0.0,0.0,0.0,0.0,0.0,0.0,0.0,0.0,0.0,0.0,0.0,0.0,0.0,0.0,0.0,0.0,0.0,0.0,0.0,0.0,0.0,0.0,0.0,0.0,0.0,0.0,0.0,0.0,0.0,0.0,0.0,0.0,0.0,0.0,0.0,0.0,0.0,0.0,0.0,0.0,0.0,0.0,0.0,0.0,0.0,0.0,0.0,0.0,0.0,0.0,0.0,0.0,0.0,0.0,0.0,0.0,0.0,0.0,0.0,0.0,0.0,0.0,0.0,0.0,0.0,0.0,0.0,0.0,0.0,0.0,0.0,0.0,0.0,0.0,0.0,0.0,0.0,0.0,0.0,0.0,0.0,0.0,0.0,0.0,0.0,0.0,0.0,0.0,0.0,0.0,0.0,0.0,0.0,0.0,0.0,0.0,0.0,0.0,0.0,0.0,0.0,0.0,0.0,0.0,0.0,0.0,0.0,0.0,0.0,0.0,0.0,0.0,0.0,0.0,0.0,0.0,0.0,0.0,0.0,0.0,0.0,0.0,0.0,0.0,0.0,0.0,0.0,0.0,0.0,0.0,0.0,0.0,0.0,0.0,0.0,0.0,0.0,0.0,0.0,0.0,0.0,0.0,0.0,0.0,0.0,0.0,0.0,0.0,0.0,0.0,0.0,0.0,0.0,0.0,0.0,0.0,0.0,0.0,0.0,0.0,0.0,0.0,0.0,0.0,0.0,0.0,0.0,0.0,0.0,0.0,0.0,0.0,0.0,0.0,0.0,0.0,0.0,0.0,0.0,0.0,0.0,0.0,0.0,0.0,0.0,0.0,0.0,0.0,0.0,0.0,0.0,0.0,0.0,0.0,0.0,0.0,0.0,0.0,0.0,0.0,0.0,0.0,0.0,0.0,0.0,0.0,0.0,0.0,0.0,0.0,0.0,0.0,0.0,0.0,0.0,0.0,0.0,0.0,0.0,0.0,0.0,0.0,0.0,0.0,0.0,0.0,0.0,0.0,0.0,0.0,0.0,0.0,0.0,0.0,0.0,0.0,0.0,0.0,0.0,0.0,0.0,0.0,0.0,0.0,0.0,0.0,0.0,0.0,0.0,0.0,0.0,0.0,0.0,0.0,0.0,0.0,0.0,0.0,0.0,0.0,0.0,0.0,0.0,0.0,0.0,0.0,0.0,0.0,0.0,0.0,0.0,0.0,0.0,0.0,0.0,0.0,0.0,0.0,0.0,0.0,0.0,0.0,0.0,0.0,0.0,0.0,0.0,0.0,0.0,0.0,0.0,0.0,0.0,0.0,0.0,0.0,0.0,0.0,0.0,0.0,0.0,0.0,0.0,0.0,0.0,0.0,0.0,0.0,0.0,0.0,0.0,0.0,0.0,0.0,0.0,0.0,0.0,0.0,0.0,0.0,0.0,0.0,0.0,0.0,0.0,0.0,0.0,0.0,0.0,0.0,0.0,0.0,0.0,0.0,0.0,0.0,0.0,0.0,0.0,0.0,0.0,0.0,0.0,0.0,0.0,0.0,0.0,0.0,0.0,0.0,0.0,0.0,0.0,0.0,0.0,0.0,0.0,0.0,0.0,0.0,0.0,0.0,0.0,0.0,0.0,0.0,0.0,0.0,0.0,0.0,0.0,0.0,0.0,0.0,0.0,0.0,0.0,0.0,0.0,0.0,0.0,0.0,0.0,0.0,0.0,0.0,0.0,0.0,0.0,0.0,0.0,0.0,0.0,0.0,0.0,0.0,0.0,0.0,0.0,0.0,0.0,0.0,0.0,0.0,0.0,0.0,0.0,0.0,0.0,0.0,0.0,0.0,0.0,0.0,0.0,0.0,0.0,0.0,0.0,0.0,0.0,0.0,0.0,0.0,0.0,0.0,0.0,0.0,0.0,0.0,0.0,0.0,0.0,0.0,0.0,0.0,0.0,0.0,0.0,0.0,0.0,0.0,0.0,0.0,0.0,0.0,0.0,0.0,0.0,0.0,0.0,-6.4897,-6.409,0.0,0.0,0.0,0.0,0.0,0.0,0.0,0.0,0.0,0.0,0.0,0.0,0.0,0.0,0.0,0.0,0.0,0.0,0.0,0.0,0.0,0.0,0.0,-5.0442,-5.0712,-5.0712,-5.0712,-5.0422,-4.9805,0.0,0.0,0.0,0.0,0.0,-4.9214,-4.888,-4.9009,-4.9603,-4.9122,-4.9308,-5.0157,-5.2167,-5.3859,-5.532,0.0,0.0,0.0,0.0,0.0,0.0,0.0,0.0,0.0,0.0,0.0,0.0,0.0,0.0,0.0,0.0,0.0,0.0,0.0,0.0,0.0,0.0,0.0,0.0,0.0,0.0,0.0,0.0,0.0,0.0,0.0,0.0,0.0,0.0,0.0,0.0,0.0,0.0,0.0,0.0,0.0,0.0,0.0,0.0,0.0,0.0,0.0,0.0,0.0,0.0,0.0,0.0,0.0,0.0,0.0,0.0,0.0,0.0,0.0,0.0,0.0,0.0,0.0,0.0,0.0,0.0,0.0,0.0,0.0,0.0,-6.7026,-6.5595,0.0,0.0,0.0,0.0,0.0,0.0,0.0,0.0,0.0,0.0,0.0,0.0,0.0,0.0,0.0,0.0,0.0,0.0,0.0,0.0,0.0,-4.8318,-4.9211,-5.0131,-5.0636,-5.0493,-5.0689,-5.044,-4.9595,-4.9824,0.0,0.0,-4.8653,-4.8991,-4.9353,-4.8799,-4.8762,-4.9311,-4.8152,-4.82,-4.9329,-5.1765,-5.322,-5.3877,-5.528,0.0,0.0,0.0,0.0,0.0,0.0,0.0,0.0,0.0,0.0,0.0,0.0,0.0,0.0,0.0,0.0,0.0,0.0,0.0,0.0,0.0,0.0,0.0,0.0,0.0,0.0,0.0,0.0,0.0,0.0,0.0,0.0,0.0,0.0,0.0,0.0,0.0,0.0,0.0,0.0,0.0,0.0,0.0,0.0,0.0,0.0,0.0,0.0,0.0,0.0,0.0,0.0,0.0,0.0,0.0,0.0,0.0,0.0,0.0,0.0,0.0,0.0,0.0,-7.2026,-7.2611,-7.4138,-7.2721,-7.2468,-7.2973,-7.033,-6.8385,-6.7063,-6.6256,0.0,0.0,0.0,0.0,0.0,0.0,0.0,0.0,0.0,0.0,0.0,0.0,0.0,0.0,0.0,0.0,0.0,0.0,0.0,-4.7896,-4.8785,-4.9973,-5.0426,-4.9721,-5.0609,-5.0885,-5.0057,-4.9743,-4.9509,-4.9338,-4.8724,-4.84,-4.8489,-4.8487,-4.8243,-4.771,-4.7618,-4.803,-4.8921,-5.0253,-5.1246,-5.2066,-5.3912,-5.497,-5.5421,0.0,0.0,0.0,0.0,0.0,0.0,0.0,0.0,0.0,0.0,0.0,0.0,0.0,0.0,0.0,0.0,0.0,0.0,0.0,0.0,0.0,0.0,0.0,0.0,0.0,0.0,0.0,0.0,0.0,0.0,0.0,0.0,0.0,0.0,0.0,0.0,0.0,0.0,0.0,0.0,0.0,-5.8875,-5.9003,0.0,0.0,0.0,0.0,0.0,0.0,0.0,0.0,0.0,0.0,0.0,0.0,0.0,-7.0719,-7.2793,-7.3599,-7.4482,-7.5442,-7.5754,-7.6414,-7.7278,-7.6736,-7.6146,-7.5616,-7.5175,0.0,-6.9559,-6.8752,0.0,0.0,0.0,0.0,0.0,0.0,0.0,0.0,0.0,0.0,0.0,0.0,0.0,0.0,0.0,0.0,0.0,0.0,0.0,0.0,0.0,-5.0217,-5.0757,-5.0832,-5.0918,-5.0909,-5.0773,-4.9966,-4.9489,-4.9489,-4.8635,-4.8443,-4.9065,-4.8009,-4.7307,-4.7065,-4.7546,-4.7962,-4.8335,-4.96,-5.0373,-5.0805,-5.2893,-5.4224,-5.4845,-5.4574,0.0,0.0,0.0,0.0,0.0,0.0,0.0,0.0,0.0,0.0,0.0,0.0,0.0,0.0,0.0,0.0,0.0,0.0,0.0,0.0,0.0,0.0,0.0,0.0,0.0,0.0,0.0,0.0,0.0,0.0,0.0,0.0,0.0,0.0,0.0,0.0,0.0,0.0,0.0,-5.831,-6.0142,-5.8753,-6.0464,-6.1056,0.0,0.0,0.0,0.0,0.0,0.0,0.0,0.0,0.0,-7.287,-7.419,-7.5572,-7.7053,-7.79,-7.8707,-7.9554,-7.9734,-7.9906,-8.0005,-7.9365,-7.8527,-7.7488,-7.7011,-7.5542,-7.3303,-7.1138,-6.9119,-6.7063,0.0,0.0,0.0,0.0,-6.0549,-6.0697,0.0,0.0,0.0,0.0,0.0,0.0,0.0,0.0,0.0,0.0,0.0,0.0,-4.9589,-5.0493,-5.1178,-5.1591,-5.1351,-5.1103,-5.1016,-5.013,-4.9483,-4.9112,-4.831,-4.8156,-4.8834,-4.7161,-4.6364,-4.6515,-4.709,-4.7432,-4.7665,-4.8871,-4.9648,-5.0119,-5.1945,-5.337,-5.4367,-5.4172,-5.3834,-5.3327,0.0,0.0,0.0,0.0,0.0,0.0,0.0,0.0,0.0,0.0,0.0,0.0,0.0,0.0,0.0,0.0,0.0,0.0,0.0,0.0,0.0,0.0,0.0,0.0,0.0,0.0,0.0,0.0,0.0,0.0,0.0,0.0,0.0,0.0,0.0,0.0,0.0,-5.9637,-6.1434,-5.8996,-6.2214,-6.3576,0.0,0.0,0.0,0.0,0.0,0.0,-7.1706,-7.3581,-7.5523,-7.7553,-7.9246,-8.0554,-8.14,-8.2054,-8.267,-8.3285,-8.3094,-8.2779,-8.233,-8.1355,-8.0159,-7.8877,-7.8179,-7.7422,-7.6427,-7.3243,-7.0991,-6.9229,-6.6182,-6.4494,-6.3576,-6.2181,-6.1667,-6.163,0.0,0.0,0.0,0.0,0.0,0.0,0.0,0.0,0.0,0.0,0.0,-4.9213,-4.8965,-5.0749,-5.1654,-5.0919,-5.1825,-5.1746,-5.0253,-5.0087,-4.9486,-4.8144,-4.7668,-4.7168,-4.6602,-4.592,-4.5608,-4.5771,-4.5805,-4.6177,-4.6853,-4.7627,-4.8775,-5.0127,-5.0947,-5.2323,-5.4081,-5.4666,-5.4919,-5.4815,-5.4188,0.0,0.0,0.0,0.0,0.0,0.0,0.0,0.0,0.0,0.0,0.0,0.0,0.0,0.0,0.0,0.0,0.0,0.0,0.0,0.0,0.0,0.0,0.0,0.0,0.0,0.0,0.0,0.0,0.0,0.0,0.0,0.0,0.0,0.0,0.0,0.0,0.0,0.0,-6.0593,-6.5889,0.0,0.0,0.0,0.0,-6.9458,-7.137,-7.3577,-7.6038,-7.8273,-8.0231,-8.1939,-8.367,-8.4978,-8.5786,-8.5824,-8.5863,-8.5901,-8.5246,-8.4654,-8.4041,-8.257,-8.1103,-7.9753,-7.9508,-7.8925,-7.794,-7.4835,-7.2642,-7.0954,-6.8458,-6.7026,-6.6219,-6.5375,-6.5044,-6.4934,0.0,0.0,0.0,0.0,0.0,-4.5849,-4.648,-4.6782,-4.7206,-4.8054,-4.887,-4.9671,-5.0368,-5.1393,-5.2087,-5.2344,-5.225,-5.1785,-5.0911,-5.0676,-4.9766,-4.8086,-4.7738,-4.6859,-4.5302,-4.5521,-4.5654,-4.5703,-4.5703,-4.6075,-4.6819,-4.7564,-4.8206,-4.8778,-5.0991,-5.2607,-5.3709,-5.4078,-5.4238,-5.4209,-5.4078,-5.3455,0.0,0.0,0.0,0.0,0.0,0.0,0.0,0.0,0.0,0.0,0.0,0.0,0.0,0.0,0.0,0.0,0.0,0.0,0.0,0.0,0.0,0.0,0.0,0.0,0.0,0.0,0.0,0.0,0.0,0.0,0.0,0.0,0.0,0.0,0.0,0.0,0.0,-6.6112,-6.931,0.0,-6.8742,-7.0315,-7.2256,-7.4065,-7.712,-7.9802,-8.1798,-8.3682,-8.5209,-8.6363,-8.7517,-8.8517,-8.9363,-8.8825,-8.8556,-8.8556,-8.719,-8.6022,-8.4933,-8.3314,-8.1559,-7.979,-7.9574,-7.9054,-7.8197,-7.6978,-7.5508,-7.3776,-7.1479,-6.978,-6.8408,-6.6695,-6.6072,-6.5888,0.0,0.0,0.0,-4.6493,-4.5916,-4.5817,-4.6479,-4.7057,-4.7651,-4.8466,-4.9583,-5.0576,-5.1223,-5.1947,-5.2637,-5.313,-5.2711,-5.2089,-5.134,-5.1005,-4.9958,-4.8067,-4.7303,-4.623,-4.4643,-4.506,-4.5331,-4.5331,-4.5331,-4.5703,-4.6447,-4.6955,-4.7398,-4.8034,-5.0474,-5.2291,-5.3549,-5.4158,-5.4663,-5.5006,-5.4807,-5.4307,-5.3577,0.0,0.0,0.0,0.0,0.0,0.0,0.0,0.0,0.0,0.0,0.0,0.0,0.0,0.0,0.0,0.0,0.0,0.0,0.0,0.0,0.0,0.0,0.0,0.0,0.0,0.0,0.0,0.0,0.0,0.0,0.0,0.0,0.0,0.0,-6.7588,-7.0926,-6.9831,-7.3247,-7.5207,-7.3981,-7.6117,-7.8382,-8.0239,-8.3163,-8.5517,-8.694,-8.8363,-8.9402,-8.994,-9.0748,-9.1479,-9.2056,-9.121,-9.0633,-9.0325,-8.8632,-8.6986,-8.5336,-8.3675,-8.1767,-7.979,-7.9574,-7.9151,-7.8616,-7.8399,-7.7593,-7.6232,-7.364,-7.1788,-7.0349,-6.8125,-6.732,-6.7026,0.0,-4.7,-4.7026,-4.541,-4.5419,-4.5693,-4.5859,-4.7241,-4.8163,-4.7804,-5.0289,-5.1888,-5.135,-5.241,-5.3172,-5.3172,-5.3188,-5.2659,-5.1359,-5.1005,-4.9975,-4.8065,-4.6389,-4.5222,-4.4615,-4.4615,-4.4615,-4.4615,-4.4615,-4.4987,-4.5669,-4.5703,-4.6481,-4.7962,-4.9378,-5.1284,-5.3584,-5.5071,-5.635,-5.733,-5.6568,-5.5821,-5.5236,0.0,0.0,0.0,0.0,0.0,0.0,0.0,0.0,0.0,0.0,0.0,0.0,0.0,0.0,0.0,0.0,0.0,0.0,0.0,0.0,0.0,0.0,0.0,0.0,0.0,0.0,0.0,0.0,0.0,0.0,0.0,0.0,0.0,-6.4567,-6.9807,-7.3231,-7.1639,-7.7733,-8.1462,-7.9812,-8.3866,-8.6958,-8.786,-8.9169,-9.0364,-9.1248,-9.2095,-9.2556,-9.2595,-9.3326,-9.3749,-9.3787,-9.2941,-9.2095,-9.121,-8.9517,-8.7522,-8.5323,-8.3637,-8.1767,-7.9785,-7.9574,-7.9351,-7.9146,-7.8993,-7.8721,-7.8161,-7.4809,-7.3007,-7.1988,-6.9784,-6.8898,-6.8495,-4.7541,-4.7702,-4.7592,-4.6203,-4.6037,-4.6424,-4.7332,-4.7923,-4.8589,-4.9352,-5.0728,-5.1469,-5.0945,-5.1968,-5.2697,-5.2697,-5.2991,-5.2532,-5.1038,-5.1397,-5.0508,-4.7917,-4.6319,-4.5222,-4.4615,-4.4615,-4.4615,-4.4615,-4.4615,-4.4716,-4.4891,-4.5466,-4.6459,-4.7885,-4.9331,-5.1243,-5.3443,-5.5033,-5.6188,-5.6955,-5.706,-5.6613,-5.5977,0.0,0.0,0.0,0.0,0.0,0.0,0.0,0.0,0.0,0.0,0.0,0.0,0.0,0.0,0.0,0.0,0.0,0.0,0.0,0.0,0.0,0.0,0.0,0.0,0.0,0.0,0.0,0.0,0.0,0.0,0.0,-6.7,-6.9853,-7.0156,-7.3656,-7.7095,-7.9583,-8.2144,-8.4125,-8.5312,-8.718,-8.8859,-9.0166,-9.1216,-9.2133,-9.2979,-9.3249,-9.3672,-9.4287,-9.4518,-9.4941,-9.5595,-9.4095,-9.2941,-9.2095,-8.9787,-8.7484,-8.5132,-8.3587,-8.1693,-7.9566,-7.9503,-7.9125,-7.859,-7.8791,-7.8484,-7.7678,-7.6159,-7.4821,-7.3454,-7.1231,-6.9019,-6.699,-4.7085,-4.7511,-4.7642,-4.6536,-4.6493,-4.6856,-4.7716,-4.8283,-4.8904,-4.9766,-5.0863,-5.1468,-5.1144,-5.1869,-5.2312,-5.2312,-5.2506,-5.2104,-5.0822,-5.0713,-4.9744,-4.766,-4.6743,-4.5989,-4.5372,-4.5346,-4.5346,-4.5346,-4.5346,-4.5346,-4.5346,-4.6167,-4.7222,-4.8529,-4.9835,-5.1579,-5.369,-5.5085,-5.6075,-5.6844,-5.7433,-5.7279,-5.6719,-5.7005,-5.7015,-5.6907,-5.6907,-5.6907,-5.6815,-5.6154,0.0,0.0,0.0,0.0,0.0,0.0,0.0,0.0,0.0,0.0,0.0,0.0,0.0,0.0,0.0,0.0,0.0,0.0,0.0,0.0,0.0,0.0,0.0,0.0,-7.0509,-7.3723,-7.6021,-7.82,-8.0806,-8.4167,-8.5882,-8.7671,-8.9992,-9.1009,-9.2028,-9.3231,-9.3826,-9.4287,-9.4749,-9.4788,-9.5018,-9.5518,-9.5518,-9.5595,-9.5749,-9.4403,-9.2941,-9.1364,-8.921,-8.6887,-8.4566,-8.3089,-8.1345,-7.9474,-7.924,-7.8786,-7.8251,-7.7791,-7.7611,-7.7513,0.0,0.0,0.0,0.0,-6.8794,-6.6843,-4.6287,-4.7016,-4.7512,-4.669,-4.6817,-4.7178,-4.7528,-4.8388,-4.9173,-4.9595,-5.0819,-5.1647,-5.1618,-5.1806,-5.1891,-5.1891,-5.1826,-5.1435,-5.0696,-4.9541,-4.8494,-4.7497,-4.7518,-4.7248,-4.6552,-4.6529,-4.6529,-4.6529,-4.6529,-4.66,-4.6694,-4.7464,-4.8491,-4.9793,-5.0722,-5.2251,-5.4133,-5.518,-5.5984,-5.6691,-5.7604,-5.7771,-5.7492,-5.7492,-5.7284,-5.7015,-5.7015,-5.7015,-5.6962,-5.646,0.0,0.0,0.0,0.0,0.0,0.0,0.0,0.0,0.0,0.0,0.0,0.0,0.0,0.0,0.0,0.0,0.0,0.0,0.0,0.0,0.0,0.0,0.0,0.0,-7.4464,-7.7527,-8.1551,-8.3034,-8.4514,-8.6646,-8.9079,-9.1426,-9.3636,-9.4634,-9.548,-9.6249,-9.6288,-9.6288,-9.6288,-9.6288,0.0,0.0,0.0,-9.5865,-9.5018,-9.4134,-9.2479,-9.0056,-8.8363,-8.631,-8.3961,-8.243,-8.0881,-7.9406,-7.8765,-7.836,-7.8062,-7.658,-7.6493,-7.7284,-7.6389,-7.4749,-7.2563,-6.9873,-6.8385,-6.7467,-4.7755,-4.8015,-4.8034,-4.7532,-4.7516,-4.7685,-4.8022,-4.8613,-4.9251,-4.9918,-5.0698,-5.1158,-5.1086,-5.0849,-5.0735,-5.0735,-5.0891,-5.0813,-5.0243,-4.9396,-4.86,-4.7914,-4.8181,-4.8053,-4.7392,-4.7392,-4.7392,-4.7392,-4.7392,-4.774,-4.8417,-4.8599,-4.976,-5.177,-5.1955,-5.2956,-5.4446,-5.531,-5.5566,-5.5523,-5.7342,-5.8005,-5.7862,-5.7862,-5.7855,-5.7795,-5.7795,-5.7795,-5.7685,-5.6927,-5.746,-5.8483,-5.8867,-5.9321,0.0,0.0,0.0,0.0,0.0,0.0,0.0,0.0,0.0,0.0,0.0,0.0,0.0,0.0,0.0,0.0,0.0,0.0,0.0,-7.4379,-7.7372,-8.0523,-8.4026,-8.6852,-8.8788,-8.9401,-9.1585,-9.3465,-9.4634,-9.5518,-9.6134,-9.6288,-9.6288,-9.6288,-9.6288,-9.6288,-9.6288,-9.6288,-9.6288,-9.5865,-9.5018,-9.4134,-9.2787,-9.0941,-8.9248,0.0,-8.4635,-8.2592,-8.0811,-7.9188,-7.8076,-7.7512,-7.7466,-7.6968,-7.643,-7.5766,-7.4237,-7.2986,-7.1794,-6.9651,-6.8385,-6.754,-4.8233,-4.8306,-4.8216,-4.8051,-4.8013,-4.8098,-4.8487,-4.8777,-4.926,-5.0091,-5.0487,-5.077,-5.0997,-5.0771,-5.0645,-5.0645,-5.0548,-5.0396,-5.0199,-4.9641,-4.9152,-4.8865,-4.9098,-4.9094,-4.8763,-4.8672,-4.8655,-4.8655,-4.9011,-4.9433,-4.986,-5.0783,-5.1903,-5.3214,-5.3466,-5.4114,-5.503,-5.5565,-5.5662,-5.5583,-5.6962,-5.7471,-5.7516,-5.8122,-5.8194,-5.7997,-5.7997,-5.7997,-5.7969,-5.7802,-5.8491,-5.9584,-6.0694,-6.1507,-6.2051,0.0,0.0,0.0,0.0,0.0,0.0,0.0,0.0,0.0,0.0,0.0,0.0,0.0,0.0,-6.9501,-7.0776,0.0,-7.5603,-7.8479,-8.1668,-8.4685,-8.7178,-8.9991,-9.1697,-9.1394,-9.312,-9.4672,-9.5557,-9.6057,-9.6288,-9.6288,-9.6673,-9.6711,-9.6326,-9.6673,-9.6711,-9.6326,-9.6288,-9.5672,-9.4364,-9.3903,-9.2633,-9.0517,-8.8863,-8.694,-8.483,-8.2276,-8.0391,-7.9128,-7.7838,-7.7273,-7.7261,-7.7098,-7.6229,-7.4952,-7.4033,-7.2972,-7.1747,-6.9669,-6.8641,-6.8128,-4.8306,-4.8306,-4.8306,-4.8306,-4.8306,-4.8402,-4.8727,-4.8864,-4.9205,-5.0057,-5.0248,-5.0482,-5.1025,-5.0852,-5.0684,-5.0709,-5.0231,-5.0044,-5.0334,-5.0043,-4.9915,-5.0117,-5.026,-5.0465,-5.0628,-5.0509,-5.0472,-5.0472,-5.1037,-5.1447,-5.165,-5.3092,-5.4105,-5.4746,-5.5027,-5.5384,-5.5828,-5.5917,-5.5897,-5.5834,-5.6654,-5.6884,-5.6835,-5.8099,-5.8348,-5.8039,-5.8186,-5.8282,-5.8332,-5.8741,-5.9608,-6.0774,-6.2376,-6.3537,-6.4238,-6.3755,-6.4847,0.0,0.0,0.0,0.0,0.0,0.0,0.0,0.0,-6.7578,-6.8047,-7.0508,-7.1553,-7.2704,-7.4845,-7.7117,-7.9629,-8.2787,-8.5863,-8.8479,-9.0171,-9.2441,-9.371,-9.3056,-9.4326,-9.5518,-9.6249,-9.6288,-9.6288,-9.6288,-9.6903,-9.698,-9.6326,-9.6903,-9.698,-9.6326,-9.6288,-9.5478,-9.3812,-9.3725,-9.2532,-9.0174,-8.8628,-8.7017,-8.5291,-8.2441,-8.0545,-7.9355,-7.7912,-7.7273,-7.7261,-7.7098,-7.6053,-7.4651,-7.4427,-7.3484,-7.2009,-7.0048,-6.9117,-6.8715,-4.8306,-4.8306,-4.8306,-4.8306,-4.8306,-4.8325,-4.8382,-4.8656,-4.9075,-4.9523,-5.0,-5.0459,-5.0896,-5.0326,-4.9939,-4.9919,-4.9545,-4.9655,-5.0417,-5.0449,-5.0759,-5.1548,-5.1871,-5.238,-5.3164,-5.3191,-5.3141,-5.3141,-5.324,-5.3695,-5.4433,-5.4639,-5.5551,-5.7014,-5.6341,-5.6417,-5.6982,-5.642,-5.5877,-5.5488,-5.6822,-5.6802,-5.6172,-5.755,-5.8079,-5.8179,-5.8967,-5.923,-5.9264,-5.945,-6.0746,-6.2513,-6.3577,-6.4822,-6.5702,-6.489,-6.5057,-6.4928,-6.2194,-6.2285,-6.4023,-6.7695,-6.8281,-6.9297,0.0,-7.4687,-7.4101,-7.5976,-7.6992,-7.8028,-7.9421,-8.1126,-8.3289,-8.6338,-8.8402,-9.0248,-9.1979,-9.3749,-9.4826,-9.4711,-9.5557,-9.6211,-9.6288,-9.6288,-9.6288,-9.6288,-9.6365,-9.6403,-9.6288,-9.6403,-9.6403,-9.6288,-9.6288,-9.5598,-9.4065,-9.3842,-9.2916,-9.1332,-9.0163,-8.8748,-8.7038,-8.4614,-8.2369,-8.0231,-7.8171,-7.7273,-7.7261,-7.7098,-7.6162,-7.4867,-7.4625,-7.3713,-7.2327,-7.119,-6.9973,-6.8862,-4.8306,-4.8306,-4.8306,-4.8306,-4.8306,-4.8306,-4.8306,-4.8658,-4.9043,-4.9445,-4.9911,-5.034,-5.0756,-5.051,-5.0364,-5.0421,-5.0207,-5.0271,-5.0834,-5.0862,-5.1271,-5.2152,-5.2434,-5.3171,-5.4576,-5.4033,-5.3969,-5.4479,-5.4372,-5.4528,-5.4918,-5.5494,-5.6095,-5.6684,-5.6435,-5.6444,-5.6575,-5.6172,-5.5896,-5.5698,-5.6299,-5.6591,-5.6713,-5.7416,-5.7976,-5.8484,-5.8821,-5.9258,0.0,-6.0054,-6.1042,-6.2447,-6.4154,-6.5062,-6.5561,-6.5677,-6.6252,-6.6547,-6.5061,-6.6013,-6.7695,-6.8515,-7.0351,-7.2734,-7.5742,-7.5898,-7.5976,-7.8203,-7.9336,-8.0227,-8.1163,-8.3445,-8.5855,-8.7986,-9.0455,-9.2556,-9.3787,-9.498,-9.5557,-9.5057,-9.5788,-9.6288,-9.6288,-9.6288,-9.6288,-9.6288,-9.6883,-9.6955,-9.6345,-9.6883,-9.6992,-9.649,-9.6452,-9.6029,-9.5051,-9.4419,-9.3565,-9.2459,-9.0391,-8.8741,-8.749,-8.4534,-8.1745,-7.9152,-7.7857,-7.7273,-7.7268,-7.6715,-7.5845,-7.4831,-7.4147,-7.305,-7.168,-7.0797,-7.0089,-6.9449,-4.8306,-4.8306,-4.8306,-4.8306,-4.8306,-4.8306,-4.8306,-4.8658,-4.9043,-4.9445,-4.9859,-5.023,-5.0644,-5.0712,-5.0729,-5.0874,-5.081,-5.0858,-5.1075,-5.1118,-5.1595,-5.2734,-5.2885,-5.3773,-5.5492,-5.4843,-5.4765,-5.539,-5.5529,-5.5619,-5.5678,-5.6592,-5.7148,-5.7299,-5.7091,-5.7074,-5.719,-5.6814,-5.6648,-5.6636,-5.6673,-5.7028,-5.7567,-5.7428,-5.7911,-5.8644,-5.8643,-5.9176,-6.0007,-6.036,-6.1167,-6.2323,-6.4214,-6.4955,-6.5267,-6.5901,-6.6498,-6.6965,-6.7186,-6.8789,-7.0312,-7.0039,-7.2851,-7.5976,-7.707,-7.75,-7.8203,-8.0039,-8.0937,-8.1637,-8.2553,-8.4942,-8.7439,-8.9384,-9.1956,-9.4095,-9.5211,-9.5903,-9.598,-9.5095,-9.5557,-9.5942,-9.5942,-9.6172,-9.6288,-9.6288,-9.7047,-9.7194,-9.6425,-9.719,-9.7342,-9.6734,-9.6695,-9.6305,-9.5471,-9.4751,-9.3895,-9.2908,-9.0491,-8.8778,-8.7565,-8.3808,-8.0802,-7.851,-7.7651,-7.7273,-7.7237,-7.6423,-7.5616,-7.4831,-7.3858,-7.2603,-7.1183,-7.0403,-6.9963,-6.9596,-4.8306,-4.8306,-4.8306,-4.8306,-4.8306,-4.8306,-4.8306,-4.8658,-4.9043,-4.9445,-4.9859,-5.023,-5.0644,-5.0712,-5.0729,-5.0874,-5.0896,-5.094,-5.1094,-5.1103,-5.1843,-5.3483,-5.356,-5.4373,-5.6129,-5.6129,-5.6135,-5.6173,-5.6947,-5.7403,-5.7648,-5.832,-5.9143,-6.0057,-5.9046,-5.9011,-5.9636,-5.8914,-5.8538,-5.8427,-5.8577,-5.8563,-5.8367,-5.7653,-5.7844,-5.8527,-5.8636,-5.9269,-6.0005,-6.0173,-6.1227,-6.2657,-6.3682,-6.4613,-6.5283,-6.5315,-6.4899,-6.4961,-6.7461,-6.8828,-7.0312,-7.3594,-7.6406,-7.8828,-8.0469,-8.1484,-8.2148,-8.2226,-8.2226,-8.273,-8.4232,-8.576,-8.7827,-9.0908,-9.2711,-9.4287,-9.6019,-9.6288,-9.598,-9.5095,-9.5018,-9.5018,-9.5018,-9.5788,-9.6288,-9.6288,-9.6522,-9.6627,-9.6574,-9.6849,-9.7042,-9.7003,-9.7003,-9.6289,-9.4822,-9.4551,-9.3655,-9.2208,-9.0887,-8.9359,-8.7552,-8.2738,-8.0075,-7.9105,-7.7846,-7.7273,-7.7237,-7.6423,-7.5616,-7.4845,-7.3993,-7.2708,-7.1183,-7.0403,-6.9596,-6.8935,-4.8306,-4.8306,-4.8306,-4.8306,-4.8306,-4.8306,-4.8306,-4.8881,-4.9341,-4.9475,-5.0061,0.0,0.0,0.0,0.0,0.0,-5.0378,-5.0413,-5.0579,-5.0833,-5.1501,-5.2689,-5.3273,-5.4407,-5.6163,-5.6197,-5.6736,-5.7865,-5.7548,-5.7725,-5.8384,-5.8604,-5.8829,-5.9056,-5.8722,-5.8481,-5.8333,-5.8392,-5.8543,-5.869,-5.8613,-5.9195,-5.9957,-5.8109,-5.793,-5.8494,0.0,-5.795,-5.9242,-5.9954,-6.0546,-6.1249,-6.2845,-6.3155,-6.3157,-6.4288,-6.531,-6.6445,-6.8476,-7.0898,-7.3437,-7.5742,-7.8242,-8.0469,-8.1601,-8.2109,-8.2304,-8.2304,-8.1367,-8.1093,-8.2766,-8.3795,-8.5708,-8.9667,-9.187,-9.3894,-9.619,-9.6369,-9.5749,-9.4287,-9.5172,-9.5403,-9.4249,-9.5065,-9.5934,-9.6475,-9.6893,-9.7065,-9.6882,-9.7115,-9.7259,-9.7259,-9.6713,-9.6232,-9.5926,-9.4697,-9.3525,-9.2411,-8.9416,-8.6687,-8.4248,-8.2068,-8.0396,-7.9152,-7.8325,-7.771,-7.72,-7.5873,-7.5139,-7.4735,-7.2863,-7.1468,-7.0403,-6.9596,-6.8788,-6.8091,0.0,-4.8306,-4.8306,-4.8306,-4.8306,0.0,0.0,0.0,0.0,0.0,0.0,0.0,0.0,0.0,0.0,0.0,0.0,-5.0118,-5.0232,-5.0613,-5.1231,-5.2129,-5.2983,-5.404,-5.5304,-5.5792,-5.6482,-5.7426,-5.7296,-5.7744,-5.8616,-5.8854,-5.9141,-5.9392,-5.9176,-5.8868,-5.8501,-5.8821,-5.905,-5.9269,-5.932,-5.9775,-6.0307,-5.8745,-5.8327,0.0,-5.7327,-5.7644,-5.8679,-5.9467,-6.0141,-6.0895,-6.2146,-6.2344,-6.25,-6.4258,-6.6015,-6.793,-7.0547,-7.3359,-7.6015,-7.8047,-8.0039,-8.1601,-8.2187,-8.2304,-8.2304,-8.2304,-8.0898,-8.0156,-8.1562,-8.2354,-8.3887,-8.7282,-8.9679,-9.2069,-9.4832,-9.5138,-9.4831,-9.4229,-9.5134,-9.5403,-9.4249,-9.4899,-9.5736,-9.6549,-9.7099,-9.7333,-9.7138,-9.7368,-9.7503,-9.7503,-9.668,-9.6194,-9.6054,-9.4609,-9.2967,-9.1044,-8.7843,-8.5039,-8.2545,-8.1461,-8.03,-7.9175,-7.8588,-7.7903,-7.7163,-7.5549,-7.4918,-7.4698,-7.2569,-7.1248,-7.044,-6.9633,-6.8825,-6.8091,0.0,0.0,-4.8306,0.0,0.0,0.0,0.0,0.0,0.0,0.0,0.0,0.0,0.0,0.0,0.0,0.0,0.0,0.0,-5.0087,-5.0462,-5.1038,-5.1846,-5.271,-5.3349,-5.3836,-5.5048,-5.552,-5.521,-5.6414,-5.7505,-5.851,-5.9143,-5.9935,-6.0845,-6.024,-5.9951,-5.9921,-5.9951,-5.9989,-6.0041,-6.0533,-6.0242,-5.955,-5.9511,-5.905,-5.8357,-5.8319,-5.8319,-5.841,-5.8822,-6.0138,-6.1598,-6.1794,-6.2422,-6.3476,-6.5273,-6.6992,-6.9258,-7.3515,-7.5937,-7.7851,-8.0351,-8.164,-8.2304,-8.2304,-8.2265,-8.2226,-8.2187,-8.0703,-7.9687,-8.0508,-8.1302,-8.2409,-8.4243,-8.6604,-8.9343,-9.2561,-9.3012,-9.3529,-9.4839,-9.5073,-9.5055,-9.4998,-9.5285,-9.5789,-9.6577,-9.7107,-9.7407,-9.7407,-9.7606,-9.7695,-9.7695,-9.6875,-9.6054,-9.5195,-9.4219,-9.1906,-8.8322,-8.6358,-8.4426,-8.2491,-8.0903,-7.9827,-7.9221,-7.8602,-7.7951,-7.7151,-7.5542,-7.4882,-7.4698,-7.3083,-7.1945,-7.1138,-7.033,-6.9522,-6.8752,0.0,0.0,0.0,0.0,0.0,0.0,0.0,0.0,0.0,0.0,0.0,0.0,0.0,0.0,0.0,0.0,0.0,0.0,-4.9645,-5.0012,-5.0752,-5.1836,-5.2145,-5.292,-5.4276,-5.4941,-5.5669,-5.6526,-5.6835,-5.7478,-5.8351,-5.8545,-5.8748,-5.8957,-5.8451,-5.8037,-5.7721,-5.8081,-5.8418,-5.8748,-5.9511,-6.0089,-6.0396,-5.9742,-5.9358,-5.9127,-5.8511,-5.8704,-5.9265,-5.9601,-6.099,-6.2731,-6.3437,-6.4258,-6.539,-6.7734,-6.9219,-7.0859,-7.457,-7.6836,-7.8633,-8.0547,-8.164,-8.2304,-8.2304,-8.1797,-8.1133,-8.0508,-7.7969,-7.5976,-7.6172,-7.7966,-8.0579,-8.4211,-8.8373,-9.2333,-9.5732,-9.6057,-9.5783,-9.5328,-9.5825,-9.5856,-9.5055,-9.5788,-9.6476,-9.6854,-9.722,-9.7407,-9.7407,-9.7606,-9.7695,-9.7695,-9.6289,-9.5429,-9.5195,-9.2383,-8.9882,-8.7689,-8.5627,-8.3657,-8.189,-8.1186,-8.0481,-7.9847,-7.9221,-7.8291,-7.7042,-7.5522,-7.4551,-7.3854,-7.2239,-7.1101,-7.0293,-6.9522,-6.8715,-6.7981,0.0,0.0,0.0,0.0,0.0,0.0,0.0,0.0,0.0,0.0,0.0,0.0,0.0,0.0,0.0,0.0,0.0,0.0,0.0,-5.0491,-5.1097,-5.1617,-5.2577,-5.3378,-5.3938,-5.5237,-5.6203,-5.675,-5.6917,-5.7627,-5.8819,-5.8088,-5.802,-5.8527,-5.7668,-5.7163,-5.6937,-5.7589,-5.8106,0.0,0.0,-6.0127,-6.0204,-6.0127,-5.9819,-5.9473,-5.9435,-5.9791,-6.0416,-6.1357,-6.2509,-6.3789,-6.5039,-6.6055,-6.7226,-6.9805,-7.1172,-7.2617,-7.6094,-7.8008,-7.9453,-8.1133,-8.1953,-8.1992,-8.0898,-8.0234,-7.9453,-7.7812,-7.5312,-7.3476,-7.3476,-7.5898,-7.8945,-8.2109,-8.6865,-9.1441,-9.5148,-9.5576,-9.5633,-9.6039,-9.6509,-9.6552,-9.5927,-9.6437,-9.6849,-9.7003,-9.7246,-9.7433,-9.7547,-9.7652,-9.7695,-9.7695,-9.6054,-9.4844,-9.4062,-9.1367,-8.914,-8.7461,-8.5422,-8.3487,-8.1672,-8.1371,-8.0799,-8.0067,-7.9727,-7.8653,-7.7005,-7.5829,-7.4687,-7.3523,-7.1945,-7.1027,-7.0477,-6.9339,-6.8605,-6.8164,0.0,0.0,0.0,0.0,0.0,0.0,0.0,0.0,0.0,0.0,-5.0096,-5.0472,-5.0049,-4.9645,0.0,0.0,0.0,0.0,0.0,0.0,-5.1891,-5.1737,-5.3418,-5.4103,-5.3543,-5.5619,-5.6582,-5.6307,-5.6783,-5.7742,-5.9127,-5.7747,-5.762,-5.8515,-5.7235,-5.6606,-5.6618,-5.7406,-5.7952,-5.8453,-5.988,-6.0012,-5.9435,0.0,-6.0319,-5.9781,-6.0512,-6.1002,-6.1531,-6.3241,-6.4187,-6.4961,-6.6836,-6.8086,-6.9375,-7.1797,-7.3047,-7.4375,-7.7734,-7.918,-8.0117,-8.1875,-8.2304,-8.164,-7.9062,-7.8398,-7.7539,-7.4805,-7.289,-7.164,-7.1523,-7.4336,-7.7383,-7.9531,-8.414,-8.9019,-9.3302,-9.3912,-9.4685,-9.681,-9.7057,-9.7048,-9.7012,-9.7012,-9.7021,-9.7057,-9.7259,-9.749,-9.7654,-9.7695,-9.7617,-9.7383,-9.5859,-9.4179,-9.2422,-9.0703,-8.8984,-8.7304,-8.5356,-8.3464,-8.1718,-8.1483,-8.1007,-8.0276,-8.0144,-7.8983,-7.7104,-7.6252,-7.5021,-7.3484,-7.19,-7.1293,-7.1109,-6.9486,-6.8898,-6.8788,0.0,0.0,0.0,0.0,0.0,0.0,0.0,0.0,0.0,0.0,-4.9854,-5.0037,0.0,0.0,0.0,0.0,0.0,0.0,0.0,0.0,0.0,-5.3887,-5.3606,-5.3995,-5.524,-5.5364,-5.5542,-5.583,-5.6604,-5.7137,-5.7434,-5.7494,-5.726,-5.6785,-5.5772,-5.5185,-5.4937,-5.5088,-5.5375,-5.5897,-5.7923,-5.8627,-5.8665,-6.0204,0.0,0.0,-6.0742,-6.0923,-6.1322,-6.3165,-6.4971,-6.6875,-6.9297,-7.1133,-7.2773,-7.4687,-7.5312,-7.6055,-7.875,-7.9609,-8.0117,-8.1875,-8.2304,-8.164,-7.9062,-7.793,-7.6484,-7.3125,-7.1094,-6.9726,-6.8984,-7.164,-7.5469,-8.0039,-8.457,-8.9492,-9.5193,-9.5974,-9.6311,-9.7236,-9.7333,-9.7246,-9.703,-9.7012,-9.7091,-9.7327,-9.7358,-9.742,-9.7437,-9.7609,-9.707,-9.5664,-9.4648,-9.3281,-9.1523,-8.9804,-8.8086,-8.6406,-8.4455,-8.296,-8.1953,-8.1563,-8.1308,-8.113,-8.0399,-7.9151,-7.7524,-7.6391,-7.4904,-7.3309,-7.1839,-7.1293,-7.1109,-6.9486,-6.8898,-6.8788,0.0,0.0,0.0,0.0,0.0,0.0,0.0,-4.9948,-5.07,-5.0701,-5.0923,-5.0685,-4.9631,-4.9139,-4.8878,0.0,0.0,0.0,0.0,0.0,0.0,-5.4123,-5.4371,-5.4791,-5.5349,-5.6292,-5.6863,-5.7049,0.0,-5.8511,-5.8973,-5.8054,-5.7511,-5.7279,-5.5936,-5.5512,-5.5783,-5.6004,-5.6591,-5.7543,-5.8992,-5.9588,-5.9704,0.0,0.0,0.0,-6.0781,-6.0902,-6.1294,-6.3084,-6.5,-6.7091,-6.9779,-7.1778,-7.3498,-7.5216,-7.6077,-7.6902,-7.9101,-8.0039,-8.0703,-8.1992,-8.1953,-8.0703,-7.7265,-7.5781,-7.4062,-7.0156,-6.8711,-6.8008,-6.7617,-7.0703,-7.4414,-7.7812,-8.2344,-8.7265,-9.2383,-9.3906,-9.5076,-9.6739,-9.7284,-9.7505,-9.7381,-9.7377,-9.7437,-9.7555,-9.7557,-9.7557,-9.7557,-9.7653,-9.6914,-9.5234,-9.4804,-9.3515,-9.1328,-8.957,-8.7851,-8.6172,-8.4327,-8.2935,-8.1984,-8.1672,-8.1512,-8.1383,-8.0869,-7.9489,-7.7665,-7.7089,-7.5507,-7.3292,-7.2214,-7.1581,-7.1174,-6.9963,-6.9522,-6.9412,0.0,0.0,0.0,0.0,0.0,0.0,-4.9196,-5.0659,-5.1741,-5.1781,-5.2066,-5.1662,-5.0048,-4.9554,-4.9334,0.0,0.0,0.0,0.0,0.0,0.0,0.0,0.0,0.0,-5.5224,0.0,0.0,-5.8011,-5.9011,0.0,0.0,0.0,0.0,0.0,-5.6723,-5.6384,-5.6916,-5.7391,-5.8221,0.0,0.0,-6.0512,-6.055,0.0,0.0,0.0,0.0,-6.086,-6.1205,-6.2796,-6.445,-6.6225,-6.8554,-7.0979,-7.3193,-7.4425,-7.5641,-7.7026,-7.8943,-8.0078,-8.0976,-8.2031,-8.164,-7.9883,-7.5586,-7.3945,-7.207,-6.7773,-6.6914,-6.6914,-6.6914,-6.9961,-7.3164,-7.5273,-7.9492,-8.4219,-8.9023,-9.1211,-9.3359,-9.6172,-9.707,-9.7422,-9.7422,-9.7265,-9.7226,-9.7422,-9.7617,-9.7617,-9.7461,-9.7265,-9.6484,-9.4961,-9.457,-9.3281,-9.1054,-8.9101,-8.7422,-8.5898,-8.414,-8.2884,-8.2059,-8.1861,-8.1631,-8.1447,-8.1231,-7.9921,-7.7849,-7.7758,-7.6166,-7.3695,-7.2807,-7.2166,-7.1655,-7.068,-7.0367,-7.0257,0.0,0.0,0.0,0.0,0.0,0.0,-4.84,-5.1061,-5.2615,-5.1508,-5.2357,-5.2607,-5.1275,-5.0842,-5.0764,0.0,0.0,0.0,0.0,0.0,0.0,0.0,0.0,0.0,0.0,0.0,0.0,-5.7137,-5.8704,0.0,0.0,0.0,0.0,0.0,0.0,-5.7173,-5.6916,-5.7391,0.0,0.0,0.0,0.0,0.0,0.0,0.0,0.0,0.0,-6.0804,-6.0988,-6.2065,-6.3064,-6.402,-6.5019,-6.8793,-7.2735,-7.2268,-7.3849,-7.6125,-7.8083,-7.9219,-8.0234,-8.1875,-8.164,-7.9883,-7.5586,-7.3945,-7.207,-6.7773,-6.6914,-6.6914,-6.6914,-6.8515,-7.0937,-7.418,-7.7109,-8.1289,-8.789,-9.0312,-9.2695,-9.6094,-9.6562,-9.6601,-9.6601,-9.5898,-9.5742,-9.6562,-9.7304,-9.7383,-9.664,-9.5859,-9.5,-9.4062,-9.2461,-9.1172,-9.0117,-8.7656,-8.5976,-8.5,-8.3242,-8.2383,-8.2264,-8.2059,-8.1867,-8.164,-8.1458,-8.0254,-7.84,-7.7885,-7.6617,-7.4828,-7.3729,-7.3254,-7.3052,-7.1683,-7.1211,-7.1101,0.0,0.0,0.0,0.0,0.0,0.0,-4.8984,-5.118,-5.2674,-5.2171,-5.3215,-5.3682,-5.29,-5.2464,-5.1912,-5.1078,-5.2188,0.0,0.0,0.0,0.0,0.0,0.0,0.0,0.0,0.0,-5.8011,-5.8511,-5.9704,0.0,0.0,0.0,0.0,0.0,0.0,-5.8066,-5.8421,-5.8661,0.0,0.0,0.0,0.0,0.0,0.0,0.0,0.0,0.0,0.0,-6.0843,-6.1246,-6.1983,-6.2639,-6.2474,-6.4925,-6.8248,-7.0257,-7.2311,-7.4576,-7.7651,-7.9453,-8.0781,-8.1992,-8.0508,-7.8008,-7.5234,-7.2651,-7.0056,-6.7281,-6.6735,-6.6735,-6.6735,-6.8237,-6.9961,-7.1328,-7.3672,-7.6875,-8.1172,-8.3711,-8.6758,-9.1289,-9.2734,-9.3984,-9.5547,-9.539,-9.5351,-9.5703,-9.6484,-9.6367,-9.5,-9.5586,-9.5351,-9.3945,-9.2734,-9.1172,-8.9258,-8.7226,-8.5508,-8.4101,-8.289,-8.2304,-8.2304,-8.2071,-8.1967,-8.1873,-8.1687,-8.0835,-7.9608,-7.8855,-7.7574,-7.5961,-7.4994,-7.4412,-7.3974,-7.2934,-7.2632,-7.2569,0.0,0.0,0.0,0.0,0.0,-4.8691,-4.9068,-5.1101,-5.2539,-5.242,-5.3618,-5.4322,-5.3832,-5.3546,-5.2981,-5.199,-5.2799,0.0,0.0,0.0,0.0,0.0,0.0,0.0,0.0,0.0,-5.8934,-5.9511,-6.0358,-6.0734,0.0,0.0,-5.9319,-5.9194,0.0,0.0,0.0,0.0,0.0,0.0,0.0,0.0,0.0,0.0,0.0,0.0,0.0,0.0,0.0,0.0,0.0,-6.1612,-6.1048,-6.2044,-6.4093,-6.7293,-7.0239,-7.3069,-7.6074,-7.8553,-8.0547,-8.164,-7.9531,-7.6758,-7.5,-7.2016,-6.9078,-6.7358,-6.6943,-6.6892,-6.6961,-6.8529,-6.9723,-6.9531,-7.164,-7.4297,-7.7187,-7.9336,-8.2344,-8.7031,-8.8437,-9.0156,-9.3008,-9.4219,-9.4804,-9.4804,-9.5625,-9.5469,-9.3984,-9.4804,-9.4765,-9.3554,-9.2422,-9.082,-8.8711,-8.6797,-8.5078,-8.3594,-8.2734,-8.2304,-8.2304,-8.2168,-8.2056,-8.1988,-8.1855,-8.1272,-8.0365,-7.9742,-7.8505,-7.6905,-7.6072,-7.5418,-7.4761,-7.3765,-7.3505,-7.345,0.0,0.0,0.0,0.0,0.0,-4.7847,-4.823,-5.0734,-5.2448,-5.1971,-5.3412,-5.4322,-5.3832,-5.3777,-5.3977,-5.4436,-5.4066,0.0,0.0,0.0,0.0,0.0,0.0,0.0,-5.828,-5.9088,-5.9473,-5.9511,-6.0358,-6.0546,-6.0103,-5.9609,-5.9139,-5.8753,0.0,0.0,0.0,0.0,0.0,0.0,0.0,0.0,-6.0781,0.0,0.0,0.0,0.0,0.0,0.0,0.0,0.0,0.0,0.0,-6.0943,-6.1196,-6.3099,-6.7378,-7.1755,-7.2857,-7.577,-7.8945,-8.0586,-7.9101,-7.6758,-7.5,-7.2484,-6.9979,-6.8252,-6.773,-6.7636,-6.784,-6.9305,-7.0272,-6.9609,-7.164,-7.4492,-7.8008,-7.918,-8.1015,-8.4531,-8.4179,-8.5039,-8.8437,-9.1875,-9.3906,-9.3906,-9.4726,-9.4844,-9.3945,-9.3086,-9.2617,-9.2617,-9.0937,-8.9609,-8.8711,-8.6172,-8.4453,-8.3594,-8.2734,-8.2304,-8.2304,-8.2304,-8.2176,-8.1992,-8.1988,-8.1377,-8.0411,-8.0411,-7.9269,-7.7534,-7.693,-7.6188,-7.5336,-7.3901,-7.3505,-7.345,0.0,0.0,0.0,0.0,0.0,0.0,-4.8653,-5.0681,-5.2134,-5.2009,-5.3707,-5.4745,-5.4322,-5.4272,-5.4694,-5.5712,-5.5131,0.0,0.0,0.0,0.0,0.0,0.0,-5.828,-5.9088,-5.9358,-6.0089,-6.1293,-6.155,-6.1467,-6.0995,-6.0497,-5.9721,-5.8696,-5.9176,-5.9389,0.0,0.0,0.0,0.0,0.0,-6.0781,-6.0781,0.0,0.0,0.0,0.0,0.0,0.0,0.0,0.0,0.0,0.0,0.0,0.0,-6.1646,-6.4269,-6.7464,-6.9702,-7.1647,-7.3453,-7.5173,-7.3705,-7.1875,-7.1914,-7.0257,-6.8571,-6.8021,-6.8312,-6.873,-6.8798,-6.9818,-7.0777,-7.1133,-7.2383,-7.3672,-7.4805,-7.6719,-7.8828,-8.1094,-8.4726,-8.7734,-8.9414,-9.164,-9.2773,-9.2187,-9.3476,-9.3672,-9.2187,-9.1875,-9.1719,-9.1719,-9.0039,-8.8437,-8.6992,-8.5586,-8.414,-8.2695,-8.2422,-8.2304,-8.2304,-8.2304,-8.2264,-8.2218,-8.2218,-8.2017,-8.1649,-8.1063,-8.0392,-7.9559,-7.8112,-7.737,-7.6912,-7.4795,-7.4125,-7.4014,0.0,0.0,0.0,0.0,0.0,0.0,-4.9027,-5.0779,-5.2046,-5.2201,-5.3905,-5.4988,-5.4745,-5.5034,-5.5613,-5.655,-5.6422,0.0,0.0,0.0,0.0,0.0,-5.8473,-5.9127,-5.9973,-5.9973,-6.0666,-6.2101,-6.2101,-6.1939,-6.1587,-6.0997,-6.0041,-5.8905,-5.9234,-5.9389,0.0,0.0,0.0,0.0,-6.0935,-6.1012,-6.1243,0.0,0.0,0.0,0.0,0.0,0.0,0.0,0.0,0.0,0.0,0.0,0.0,0.0,-6.2206,-6.402,-6.674,-6.8715,-7.0417,-7.2177,-7.1003,-6.9648,-7.0508,-6.9241,-6.7907,-6.7904,-6.8266,-6.8721,-6.9149,-6.9972,-7.0814,-7.1406,-7.2226,-7.3164,-7.414,-7.539,-7.6836,-7.8555,-8.3515,-8.6992,-8.7539,-9.0039,-9.1406,-9.0859,-9.1836,-9.1797,-9.039,-9.0039,-8.9726,-8.9375,-8.8633,-8.7578,-8.6211,-8.5,-8.3711,-8.2304,-8.2304,-8.2304,-8.2304,-8.2304,-8.2304,-8.2304,-8.2304,-8.2304,0.0,-8.1719,-8.1161,-8.0548,-7.9065,-7.8214,-7.7647,-7.5488,-7.467,-7.4283,0.0,0.0,0.0,0.0,0.0,0.0,0.0,-5.0929,-5.2163,-5.2564,-5.4091,-5.5147,-5.5147,-5.5923,-5.6626,-5.7038,-5.7896,0.0,0.0,0.0,0.0,-5.9473,-5.955,-5.9973,-6.0781,-6.0858,-6.132,-6.2178,-6.2255,-6.2199,-6.1955,-6.116,-6.0262,-5.9228,-5.9364,-5.9462,0.0,0.0,0.0,-6.2024,-6.1127,-6.1293,0.0,0.0,0.0,0.0,0.0,0.0,0.0,0.0,0.0,0.0,0.0,0.0,0.0,0.0,0.0,0.0,0.0,-6.6618,-6.9042,-7.0808,-7.0144,-6.9297,-7.0234,-6.9126,0.0,-6.791,-6.7833,-6.8054,-6.9103,-6.9901,-7.0511,-7.0741,-7.1484,-7.2851,-7.5351,-7.5234,-7.5547,-7.7344,-8.1133,-8.3594,-8.3594,-8.7304,-8.9726,-8.9726,-8.9804,-8.9453,-8.8554,-8.7812,-8.6992,-8.6133,-8.6836,-8.6836,-8.6015,-8.4414,-8.3164,-8.2304,-8.2304,-8.2304,-8.2304,-8.2304,-8.2304,-8.2304,-8.2304,-8.2304,-8.2304,-8.2304,-8.1709,-8.0722,-7.9775,-7.8831,-7.7795,-7.6029,-7.5038,-7.4225,0.0,0.0,0.0,0.0,0.0,0.0,0.0,0.0,0.0,0.0,-5.4314,-5.5566,-5.5566,-5.6334,-5.7175,0.0,0.0,0.0,0.0,0.0,0.0,-5.9473,-6.0127,-6.0589,-6.0781,-6.1447,-6.2204,-6.3012,-6.3705,-6.3614,-6.2803,-6.1991,-6.0942,-5.9754,-5.9496,-6.0165,0.0,0.0,-6.1908,-6.2024,-6.1127,-6.0935,0.0,0.0,0.0,0.0,-6.0892,-6.1036,0.0,0.0,0.0,0.0,0.0,0.0,0.0,0.0,-6.1417,-6.1495,-6.201,0.0,-6.3595,-6.5436,-6.5689,-6.5898,0.0,-6.7968,-6.8122,-6.8121,-6.8584,-6.9246,-7.019,-6.9957,-7.0115,-7.1484,-7.1875,-7.2461,-7.3711,-7.6015,-7.8476,-8.082,-8.2578,-8.3594,-8.3594,-8.5703,-8.7109,-8.7109,-8.7695,-8.7695,-8.6836,-8.6601,-8.6094,-8.5234,-8.4765,-8.4414,-8.4219,-8.3789,-8.3164,-8.2304,-8.2304,-8.2304,-8.2304,-8.2304,-8.2304,-8.2304,-8.2304,-8.2304,-8.2304,-8.2304,-8.2148,-8.1752,-8.0074,-7.9193,-7.8612,-7.6276,-7.4974,-7.4139,0.0,0.0,0.0,0.0,0.0,0.0,0.0,0.0,0.0,0.0,-5.454,-5.5703,-5.5703,-5.6819,-5.778,0.0,0.0,0.0,0.0,0.0,0.0,-6.0089,-6.055,-6.0781,-6.0781,-6.1639,-6.2474,-6.3308,-6.4166,-6.4302,-6.3671,-6.309,-6.2163,-6.1044,-6.0916,-6.1544,-6.2627,-6.2255,-6.2332,-6.2551,-6.1281,0.0,0.0,0.0,0.0,0.0,-6.0925,-6.1079,0.0,-6.0963,-6.1087,-6.1283,0.0,0.0,0.0,0.0,-6.1474,-6.1396,-6.1387,-6.1972,-6.2925,-6.4346,-6.4791,-6.5234,-6.6601,-6.6953,-6.6992,-6.6992,-6.7656,-6.8515,-6.9375,-6.9492,-6.9883,-7.1172,-7.2337,-7.3613,-7.5255,-7.7483,-7.9601,-8.1484,-8.2461,-8.3164,-8.3554,-8.4804,-8.5586,-8.5586,-8.6054,-8.5937,-8.5039,-8.5,-8.4609,-8.3711,-8.3242,-8.3203,-8.3594,-8.3203,-8.2773,-8.2304,-8.2304,-8.2304,-8.2304,-8.2304,-8.2304,-8.2304,-8.2304,-8.2304,-8.2304,-8.2304,-8.207,-8.1562,-8.0106,-7.9193,-7.8474,-7.6197,-7.5134,-7.4467,0.0,0.0,0.0,0.0,0.0,0.0,0.0,0.0,0.0,0.0,0.0,0.0,0.0,0.0,0.0,0.0,0.0,0.0,0.0,0.0,-6.0781,-6.0781,-6.0781,-6.0858,-6.1012,-6.182,-6.2743,-6.3705,-6.4488,-6.4764,-6.4577,-6.417,-6.3396,-6.2453,-6.2764,-6.3124,-6.3474,-6.2627,-6.2743,-6.3358,-6.1512,0.0,0.0,0.0,0.0,0.0,0.0,0.0,0.0,-6.1023,-6.1097,-6.1246,-6.1246,0.0,0.0,0.0,0.0,0.0,-6.1576,-6.3137,-6.4752,-6.4958,-6.5302,-6.5781,-6.6523,-6.6211,-6.5781,-6.5781,-6.6406,-6.7187,-6.8203,-6.8906,-6.9609,-7.0547,-7.2752,-7.5283,-7.7926,-7.9079,-7.9972,-8.0898,-8.1758,-8.2539,-8.3125,-8.3984,-8.4492,-8.4492,-8.4492,-8.4179,-8.3437,-8.3398,-8.3047,-8.2304,-8.2304,-8.2656,-8.3398,-8.2656,-8.2304,-8.2304,-8.2304,-8.2304,-8.2304,-8.2304,-8.2304,-8.2304,-8.2304,-8.2226,-8.2109,-8.2109,-8.1601,-8.0703,-7.9844,-7.8894,-7.7766,-7.5956,-7.5196,-7.4589,0.0,0.0,0.0,0.0,0.0,0.0,0.0,0.0,0.0,0.0,0.0,0.0,0.0,0.0,0.0,0.0,0.0,0.0,0.0,-6.0781,-6.0781,-6.0781,-6.0781,-6.1127,-6.187,-6.2704,-6.3897,-6.5513,-6.5862,-6.5834,-6.5408,-6.4652,-6.3696,-6.2617,-6.3803,-6.4308,-6.4359,-6.3474,-6.3628,-6.4205,-6.1781,0.0,0.0,0.0,0.0,0.0,0.0,0.0,0.0,-6.0871,-6.0925,-6.1048,-6.1048,0.0,0.0,0.0,0.0,0.0,-6.2163,-6.4762,-6.6678,-6.4019,-6.4492,-6.5625,-6.5781,-6.6289,-6.6719,-6.6719,-6.6797,-6.7383,-6.8945,-6.8789,-6.8906,-7.0469,-7.2851,-7.5654,-7.8757,-8.0096,-8.0819,-8.0976,-8.1758,-8.207,-8.1445,-8.2187,-8.2695,-8.2695,-8.2695,-8.2656,-8.25,-8.25,-8.2422,-8.2304,-8.2304,-8.2344,-8.25,-8.2383,-8.2304,-8.2304,-8.2304,-8.2304,-8.2304,-8.2304,-8.2304,-8.2304,-8.2304,-8.1875,-8.1211,-8.1211,-8.0703,-7.9805,-7.8984,-7.8035,-7.6946,-7.5722,-7.4459,-7.2939,0.0,0.0,0.0,0.0,0.0,0.0,0.0,0.0,0.0,0.0,0.0,0.0,0.0,0.0,0.0,0.0,0.0,0.0,0.0,-6.0781,-6.0781,-6.0781,-6.1243,-6.1678,-6.2101,-6.3358,-6.4449,-6.5394,-6.6001,-6.6298,-6.6238,-6.5704,-6.5089,-6.4405,-6.5026,-6.5282,-6.5243,-6.4359,-6.4243,-6.4436,0.0,0.0,0.0,0.0,0.0,0.0,0.0,0.0,0.0,0.0,-6.0902,-6.0997,-6.0997,0.0,0.0,0.0,0.0,0.0,-6.1609,-6.372,-6.5616,-6.4548,-6.6715,-6.8828,-6.7851,-6.832,-6.8555,-6.7187,-6.7656,-6.8555,-6.9297,-6.9883,-7.1366,-7.4824,-7.6033,-7.7391,-7.9771,-8.0113,-8.0339,-8.0937,-8.1367,-8.164,-8.1719,-8.207,-8.2304,-8.2304,-8.2304,-8.2304,-8.2304,-8.2304,-8.2304,-8.2304,-8.2304,-8.207,-8.1601,-8.207,-8.2304,-8.2304,-8.2304,-8.2304,-8.2304,-8.2304,-8.2304,-8.2304,-8.2304,-8.207,-8.1679,-8.1172,-8.0508,-7.9609,-7.8828,-7.7615,-7.6226,-7.5012,-7.3297,-7.1396,0.0,0.0,0.0,0.0,0.0,0.0,0.0,0.0,0.0,0.0,0.0,0.0,0.0,0.0,0.0,0.0,0.0,0.0,0.0,-6.0781,-6.0781,-6.0781,-6.182,-6.2358,-6.2358,-6.3886,-6.5078,-6.589,-6.6319,-6.671,-6.7049,-6.6598,-6.6307,-6.6167,-6.5974,-6.5897,-6.582,-6.4974,-6.4705,-6.4743,0.0,0.0,0.0,0.0,0.0,0.0,0.0,0.0,0.0,0.0,0.0,0.0,0.0,0.0,0.0,-6.0954,-6.0954,-6.0993,-6.1186,-6.2723,-6.4454,-6.5141,-6.7947,-7.039,-7.0078,-7.0195,-7.0078,-6.8945,-6.9609,-7.039,-7.039,-7.1601,-7.398,-7.8136,-7.8653,-7.9131,-8.0782,-8.0452,-8.0367,-8.1211,-8.1289,-8.1562,-8.2226,-8.2304,-8.2304,-8.2304,-8.2304,-8.2304,-8.2304,-8.2304,-8.2304,-8.2304,-8.2109,-8.1758,-8.1328,-8.1562,-8.1797,-8.1992,-8.1992,-8.1992,-8.1992,-8.1992,-8.1992,-8.1992,-8.1992,-8.1875,-8.1601,-8.0781,-7.9883,-7.9062,-7.8437,-7.7108,-7.5382,-7.4202,-7.2191,-7.0071,0.0,0.0,0.0,0.0,0.0,0.0,0.0,0.0,0.0,0.0,0.0,0.0,0.0,0.0,0.0,0.0,0.0,0.0,-6.0781,-6.0781,-6.0781,-6.0781,-6.2358,-6.3205,-6.3205,-6.4393,-6.6151,-6.8519,-6.7576,-6.7395,-6.7879,-6.6864,-6.6628,-6.6974,-6.6244,-6.5897,-6.582,-6.4974,-6.5051,-6.559,-6.3101,0.0,0.0,0.0,0.0,0.0,0.0,0.0,0.0,0.0,0.0,0.0,0.0,0.0,-6.0816,-6.0816,-6.0816,-6.097,-6.1778,-6.3399,-6.4908,-6.5058,-6.5571,-6.707,-7.0937,-7.0625,-7.0351,-7.3437,-7.3515,-7.3047,-7.3047,-7.3789,-7.4995,-7.6809,-7.8497,-8.011,-8.1691,-8.2013,-8.2109,-8.2187,-8.2226,-8.2226,-8.2304,-8.2304,-8.2304,-8.2304,-8.2304,-8.2304,-8.2304,-8.2304,-8.2304,-8.2304,-8.1523,-8.1445,-8.2187,-8.0664,-8.0273,-8.1094,-8.1094,-8.1094,-8.1094,-8.1094,-8.1094,-8.1094,-8.1094,-8.0625,-7.9805,-7.9023,-7.8164,-7.7383,-7.7305,-7.6124,-7.4317,-7.3406,-7.1443,-6.9113,0.0,0.0,0.0,0.0,0.0,0.0,0.0,0.0,0.0,0.0,0.0,0.0,0.0,0.0,0.0,0.0,0.0,0.0,-6.0781,-6.0781,-6.0781,-6.0781,-6.1935,-6.2781,-6.3269,-6.4962,-6.6633,-6.8281,-6.8416,-6.8069,-6.7255,-6.7528,-6.7187,-6.632,-6.6051,-6.5897,-6.5859,-6.5551,-6.5282,-6.4974,-6.3435,-6.2743,0.0,0.0,0.0,0.0,0.0,0.0,0.0,0.0,-6.0781,-6.0781,-6.0781,-6.0781,-6.0781,-6.0781,-6.0781,-6.0858,-6.1204,-6.3029,-6.5002,-6.563,-6.6011,-6.7246,-7.1132,-7.2734,-7.3672,-7.4453,-7.5195,-7.5547,-7.5039,-7.6055,-7.7382,-7.8467,-7.9685,-8.0897,-8.2021,-8.2264,-8.2304,-8.2304,-8.2304,-8.2304,-8.2304,-8.1797,-8.1484,-8.1484,-8.0976,-8.0664,-8.0664,-8.1211,-8.125,-8.0703,-8.0898,-8.0664,-7.9922,-7.9765,-7.9609,-7.9453,-7.9961,-8.0195,-8.0195,-8.0195,-8.0195,-8.0195,-8.0195,-8.0,-7.9648,-7.8828,-7.832,-7.7851,-7.6211,-7.5115,-7.4246,-7.2219,-7.0736,-6.9644,0.0,0.0,0.0,0.0,0.0,0.0,0.0,0.0,0.0,0.0,0.0,0.0,0.0,0.0,0.0,0.0,0.0,0.0,-6.0781,-6.0781,-6.0781,-6.0781,-6.1639,-6.254,-6.3424,-6.4931,-6.6442,-6.799,-6.9141,-6.892,-6.7467,-6.8089,-6.7628,-6.6282,-6.6013,-6.5897,-6.5897,-6.5897,-6.5397,-6.4512,-6.3666,-6.282,0.0,0.0,0.0,0.0,0.0,0.0,0.0,0.0,-6.0781,-6.0781,-6.0781,-6.0781,-6.0781,-6.0781,-6.0973,-6.1204,-6.1204,-6.2557,-6.4241,-6.546,-6.6111,-6.7564,-7.178,-7.3944,-7.5351,-7.6406,-7.6914,-7.7031,-7.6406,-7.7305,-7.8281,-7.8828,-8.0312,-8.1445,-8.1484,-8.1719,-8.1797,-8.1523,-8.1484,-8.1484,-8.1484,-8.0937,-8.0586,-8.0586,-8.0039,-7.9687,-7.9687,-8.0273,-8.0312,-7.9726,-8.0039,-7.9765,-7.8906,-7.8906,-7.8789,-7.8515,-7.8789,-7.9062,-7.9336,-7.9336,-7.9336,-7.9336,-7.9336,-7.9336,-7.9258,-7.8437,-7.793,-7.75,-7.5703,-7.4492,-7.3554,-7.1662,-7.0348,-6.9305,0.0,0.0,0.0,0.0,0.0,0.0,0.0,0.0,-5.6272,-5.727,-5.7293,0.0,0.0,0.0,0.0,0.0,0.0,0.0,-6.0781,-6.0781,-6.0781,-6.0781,-6.1639,-6.2618,-6.3764,-6.4118,-6.55,-6.7967,-6.9666,-6.989,-6.8798,-6.8527,-6.7936,-6.7051,-6.6282,-6.5897,-6.5897,-6.5897,-6.5397,-6.4512,-6.3628,-6.282,-6.1985,0.0,0.0,0.0,0.0,0.0,0.0,0.0,-6.0781,-6.0781,-6.0781,-6.0819,-6.0819,-6.0781,-6.1408,-6.2101,-6.2101,-6.2101,-6.2556,-6.4357,-6.548,-6.757,-7.3055,-7.3812,-7.4765,-7.9922,-7.8984,-7.7226,-7.7226,-7.7226,-7.7226,-7.7226,-8.0078,-8.1679,-7.9922,-8.0429,-8.0664,-7.9805,-7.9687,-7.9687,-7.9687,-7.9687,-7.9687,-7.9687,-7.9648,-7.9648,-7.9648,-7.9687,-7.9687,-7.9687,-7.8906,-7.8867,-7.9648,-7.8008,-7.7617,-7.8437,-7.7578,-7.7656,-7.8476,-7.8476,-7.8476,-7.8476,-7.8476,-7.8476,-7.8398,-7.7539,-7.664,-7.5898,-7.5859,-7.4297,-7.1992,-7.1953,-7.0224,-6.7805,0.0,0.0,0.0,0.0,0.0,0.0,0.0,0.0,-5.6272,-5.727,-5.7293,0.0,0.0,0.0,0.0,0.0,0.0,0.0,-6.0781,-6.0781,-6.0781,-6.0781,-6.1639,-6.2349,-6.2948,-6.4086,-6.5304,-6.6612,-6.8032,-6.8452,-6.7943,-6.8258,-6.7936,-6.709,-6.6859,-6.6436,-6.5859,-6.5243,-6.4859,-6.4474,-6.3012,-6.2332,-6.1985,0.0,0.0,0.0,0.0,0.0,0.0,0.0,0.0,0.0,-6.0781,-6.1216,-6.1601,-6.0973,-6.1408,-6.1985,-6.137,-6.205,-6.3383,-6.5122,-6.7194,-6.9875,-7.4061,-7.494,-7.607,-8.0155,-7.9922,-7.8945,-7.8945,-7.8945,-7.8789,-7.8203,-7.9453,-8.0273,-7.9765,-7.9922,-8.0,-7.9726,-7.9687,-7.9687,-7.9687,-7.8633,-7.793,-7.793,-7.6797,-7.6367,-7.6992,-7.7617,-7.793,-7.793,-7.8281,-7.8047,-7.7031,-7.6523,-7.6094,-7.5742,-7.5508,-7.6133,-7.7578,-7.7578,-7.7578,-7.7539,-7.6953,-7.668,-7.6601,-7.557,-7.4935,-7.4441,-7.3276,-7.2381,-7.1568,-6.9774,-6.8594,-6.7706,0.0,0.0,0.0,0.0,0.0,0.0,0.0,0.0,-5.6959,-5.7857,-5.7863,-5.8304,0.0,0.0,0.0,0.0,0.0,0.0,-6.0781,-6.0781,-6.0781,-6.0781,-6.1639,-6.2388,-6.3062,-6.4407,-6.5291,-6.5645,-6.6914,-6.7464,-6.7431,-6.8098,-6.7936,-6.7128,-6.7475,-6.6974,-6.5859,-6.532,-6.4512,-6.3512,-6.2524,-6.1908,-6.1524,0.0,0.0,0.0,0.0,0.0,0.0,0.0,0.0,0.0,-6.0781,-6.1166,-6.155,-6.1358,-6.1678,-6.2139,-6.2281,-6.3051,-6.4397,-6.6821,-6.9128,-7.1893,-7.5876,-7.7307,-7.846,-8.1015,-8.0547,-7.9805,-8.0156,-7.9687,-7.9062,-7.8594,-7.918,-7.9453,-7.8789,-7.8711,-7.8594,-7.8242,-7.789,-7.7656,-7.7656,-7.6758,-7.6015,-7.5664,-7.5,-7.4687,-7.4844,-7.5703,-7.6172,-7.6172,-7.668,-7.6445,-7.539,-7.539,-7.5117,-7.4609,-7.4609,-7.4961,-7.5664,-7.6015,-7.6172,-7.6133,-7.5625,-7.535,-7.5184,-7.4215,-7.351,-7.2867,-7.1505,-7.0631,-6.9922,-6.844,-6.7681,-6.7183,0.0,0.0,-5.4741,-5.5549,0.0,0.0,0.0,0.0,-5.7991,-5.8805,-5.8841,-5.9083,0.0,0.0,0.0,0.0,0.0,0.0,0.0,-6.0781,-6.0819,-6.0896,-6.1796,-6.2784,-6.3879,-6.4931,-6.5347,-6.5099,-6.6197,-6.6878,-6.7128,-6.7975,-6.7975,-6.7244,-6.8052,-6.7475,-6.5897,-6.5743,-6.4359,-6.2332,-6.2101,-6.1589,-6.1012,-6.0858,0.0,0.0,0.0,0.0,0.0,0.0,0.0,0.0,-6.0781,-6.0858,-6.105,-6.1793,-6.2062,-6.2447,-6.4051,-6.4551,-6.5436,-6.8936,-7.1337,-7.3959,-7.8254,-8.0126,-8.1211,-8.2031,-8.0976,-8.0156,-8.0859,-7.9765,-7.8633,-7.8437,-7.8984,-7.8867,-7.7187,-7.6953,-7.668,-7.5898,-7.5,-7.4492,-7.4492,-7.4336,-7.3906,-7.3125,-7.3711,-7.3867,-7.3203,-7.3945,-7.4453,-7.4609,-7.4609,-7.4531,-7.4375,-7.4375,-7.4297,-7.414,-7.414,-7.3711,-7.2969,-7.4023,-7.4375,-7.4258,-7.4258,-7.409,-7.375,-7.3013,-7.2126,-7.1145,-7.0258,-6.9013,-6.7677,-6.7738,-6.7273,-6.648,0.0,0.0,-5.4741,-5.5549,0.0,0.0,0.0,0.0,0.0,-5.8805,-5.9382,0.0,0.0,0.0,0.0,0.0,0.0,0.0,0.0,-6.0781,-6.1089,-6.1793,-6.2856,-6.3879,-6.4794,-6.4701,-6.4797,-6.5099,-6.5977,-6.6659,-6.7128,-6.7975,-6.8321,-6.8129,-6.8321,-6.7475,-6.582,-6.4436,-6.3935,-6.3897,-6.1858,-6.1743,-6.2627,-6.1281,-6.0781,0.0,0.0,0.0,0.0,0.0,0.0,0.0,-6.0781,-6.1281,-6.1716,-6.1243,-6.1562,-6.2332,-6.332,-6.4089,-6.559,-6.9629,-7.4188,-7.812,-7.975,-8.0591,-8.1054,-8.125,-8.1523,-8.1601,-8.1094,-8.0703,-7.9805,-7.7812,-7.7617,-7.7148,-7.539,-7.5156,-7.5078,-7.4883,-7.4101,-7.3594,-7.3594,-7.2344,-7.1445,-7.1289,-7.0859,-7.1094,-7.2226,-7.2461,-7.3203,-7.457,-7.4609,-7.3945,-7.2578,-7.2578,-7.1875,-7.0508,-7.0508,-7.043,-7.0312,-7.2578,-7.2812,-7.1523,-7.1523,-7.0987,-7.0069,-6.9874,-6.9523,-6.8969,-6.8131,-6.7645,-6.742,-6.6925,-6.6663,-6.6397,0.0,0.0,0.0,0.0,0.0,0.0,0.0,0.0,0.0,0.0,0.0,0.0,0.0,0.0,0.0,0.0,-6.0781,-6.0781,-6.0781,-6.1166,-6.1973,-6.3243,-6.3871,-6.458,-6.5461,-6.523,-6.523,-6.5475,-6.5906,-6.6235,-6.6551,-6.7398,-6.7782,-6.7782,-6.8205,-6.7244,-6.5205,-6.432,-6.3474,-6.2666,-6.132,-6.132,-6.2012,-6.1127,-6.0781,-6.0781,-6.0781,0.0,0.0,0.0,0.0,0.0,0.0,0.0,-6.1485,-6.1435,-6.1447,-6.182,-6.3474,-6.4859,-6.709,-7.2591,-7.6278,-7.8893,-8.0123,-8.0396,-8.039,-8.039,-8.0742,-8.0937,-8.0469,-8.0078,-7.9219,-7.7461,-7.6836,-7.6094,-7.4805,-7.4258,-7.3828,-7.3398,-7.2578,-7.1914,-7.1523,-7.0273,-6.9492,-6.9492,-6.9018,-6.9173,-7.0117,-7.0503,-7.1127,-7.2148,-7.2148,-7.1484,-7.0195,-7.0547,-7.0117,-6.8828,-6.8828,-6.8398,-6.7656,-7.0273,-7.0937,-7.0117,-7.0117,-6.9704,-6.8982,-6.8059,-6.7803,-6.7799,-6.6422,-6.6239,-6.6625,-6.6011,-6.5812,-6.5667,0.0,0.0,0.0,0.0,0.0,0.0,0.0,0.0,0.0,0.0,0.0,0.0,0.0,0.0,-6.0781,0.0,0.0,0.0,-6.0781,0.0,0.0,-6.432,-6.4666,-6.5166,-6.5859,-6.5897,-6.5897,-6.5897,-6.5897,-6.6051,-6.632,-6.6859,-6.709,-6.7128,-6.7859,-6.6936,-6.482,-6.4666,-6.3397,-6.1435,-6.1127,-6.1089,-6.1204,-6.0896,-6.0781,-6.0781,-6.0781,-6.0781,-6.0781,-6.0781,0.0,0.0,0.0,0.0,-6.0935,-6.1678,-6.1358,-6.132,-6.3705,-6.6013,-6.9232,-7.5369,-7.7433,-7.827,-7.9693,-7.9626,-7.9219,-7.9062,-7.9375,-7.9648,-7.9531,-7.8828,-7.8008,-7.7109,-7.6133,-7.5195,-7.4492,-7.3515,-7.2578,-7.1875,-7.0898,-6.9961,-6.914,-6.8242,-6.7695,-6.7539,-6.7523,-6.7635,-6.7969,-6.8655,-6.916,-6.9453,-6.9297,-6.8789,-6.7969,-6.8476,-6.832,-6.7539,-6.7539,-6.6758,-6.5469,-6.7578,-6.8555,-6.8594,-6.875,-6.8622,-6.8206,-6.6618,-6.6244,-6.6583,-6.498,-6.482,-6.5433,-6.5148,-6.4954,-6.471,0.0,0.0,0.0,0.0,0.0,0.0,0.0,0.0,0.0,0.0,-6.0607,-6.0982,0.0,-6.0781,-6.0781,-6.0781,-6.0781,-6.0781,-6.0781,0.0,0.0,-6.3474,-6.4936,-6.5782,-6.5897,-6.5897,-6.5897,-6.5897,-6.5897,-6.6628,-6.8052,-6.7398,-6.709,-6.709,-6.7205,-6.6705,-6.5667,-6.4936,-6.4397,-6.3974,-6.2512,-6.232,-6.282,-6.1358,-6.0781,-6.0781,-6.0781,-6.0781,-6.0781,-6.0781,-6.0781,0.0,0.0,0.0,-6.0819,-6.0935,-6.0896,-6.1204,-6.3012,-6.6859,-7.1171,-7.4479,-7.6603,-7.7994,-7.835,-7.7944,-7.7305,-7.6562,-7.8164,-7.9492,-7.8789,-7.7969,-7.7109,-7.6211,-7.4726,-7.3594,-7.3476,-7.207,-7.1015,-7.0898,-6.9492,-6.8203,-6.7344,-6.6445,-6.5625,-6.4883,-6.5507,-6.6249,-6.7031,-6.7851,-6.8671,-6.9375,-6.8711,-6.7969,-6.707,-6.6445,-6.5664,-6.4805,-6.4805,-6.4687,-6.4492,-6.4844,-6.5,-6.5039,-6.5781,-6.5615,-6.4733,-6.4309,-6.4139,-6.4058,-6.3631,-6.3538,-6.3741,-6.4542,-6.4458,-6.3959,0.0,0.0,0.0,0.0,0.0,0.0,0.0,0.0,0.0,0.0,0.0,-6.0944,-6.0816,-6.0781,-6.0781,-6.0781,-6.0781,-6.1204,-6.2127,-6.2474,-6.3243,-6.4705,-6.5013,-6.5397,-6.5897,-6.5897,-6.5897,-6.5897,-6.5897,-6.6744,-6.8385,-6.8513,-6.8552,-6.8552,-6.8052,-6.7128,-6.582,-6.4436,-6.3858,-6.3743,-6.205,-6.1858,-6.2474,-6.1281,-6.0781,-6.0781,-6.0781,-6.0781,-6.0781,-6.0781,-6.0781,-6.0781,-6.0781,0.0,0.0,0.0,-6.0781,-6.1396,-6.4051,-6.709,-7.0375,-7.406,-7.5728,-7.6638,-7.7277,-7.6933,-7.6211,-7.5351,-7.6055,-7.6719,-7.6367,-7.6015,-7.5469,-7.457,-7.3789,-7.2969,-7.1992,-7.1172,-7.0351,-6.9414,-6.8633,-6.7656,-6.6289,-6.539,-6.4726,-6.4336,-6.4133,-6.4677,-6.6094,-6.6437,-6.6788,-6.7265,-6.6914,-6.6053,-6.4631,-6.4764,-6.4414,-6.3594,-6.4062,-6.3789,-6.289,-6.3867,-6.4297,-6.4336,-6.4726,-6.4607,-6.4163,-6.3448,-6.3346,-6.362,-6.2888,-6.2897,-6.3318,-6.3371,-6.3227,-6.2927,0.0,0.0,0.0,0.0,0.0,0.0,0.0,0.0,0.0,0.0,0.0,-6.0915,-6.0816,0.0,0.0,0.0,-6.0781,-6.132,-6.2589,-6.232,-6.2947,-6.4859,-6.4512,-6.4666,-6.5551,-6.5551,-6.5667,-6.5897,-6.5897,-6.6974,-6.9052,-6.9706,-7.036,-7.0937,-6.986,-6.8436,-6.6782,-6.5243,-6.4577,-6.4397,-6.2281,-6.182,-6.2281,-6.1204,-6.0781,-6.0781,-6.0781,-6.0781,-6.0781,-6.0781,-6.0781,-6.0781,-6.0781,-6.0781,0.0,0.0,0.0,-6.1396,-6.4166,-6.632,-6.8603,-7.2175,-7.3873,-7.4885,-7.5721,-7.5568,-7.5039,-7.4414,-7.3906,-7.3672,-7.3906,-7.4101,-7.414,-7.3711,-7.3242,-7.2539,-7.1211,-7.0664,-6.9844,-6.8359,-6.8008,-6.7265,-6.5742,-6.4805,-6.4219,-6.3984,-6.3268,-6.3458,-6.4844,-6.5025,-6.5095,-6.523,-6.4996,-6.42,-6.2723,-6.33,-6.3279,-6.2695,-6.332,-6.2969,-6.1758,-6.3047,-6.3633,-6.3633,-6.3867,-6.3828,-6.3554,-6.2652,-6.2612,-6.3081,-6.213,-6.2127,-6.2613,-6.2372,-6.2133,-6.1931,0.0,0.0,0.0,0.0,0.0,0.0,0.0,0.0,0.0,0.0,0.0,-6.0804,-6.0781,-6.0781,-6.0781,-6.0781,-6.0781,-6.0819,-6.0935,-6.1666,-6.2178,-6.2293,-6.2974,0.0,-6.4666,-6.4666,-6.5051,-6.5897,-6.5897,-6.7552,-7.0783,-7.0821,-7.2129,-7.4361,-7.2745,-7.1052,-6.9436,-6.8513,-6.8129,-6.7859,-6.4512,-6.3192,-6.3051,-6.1435,-6.0781,-6.0781,-6.0781,-6.0781,-6.0781,-6.0781,-6.0781,-6.0781,-6.0781,-6.0781,-6.0781,0.0,0.0,0.0,-6.2024,-6.414,-6.6304,-6.7513,-7.0393,-7.2977,-7.3239,-7.3384,-7.3437,-7.3398,-7.2031,-7.1172,-7.1992,-7.2812,-7.3633,-7.4414,-7.3164,-7.2031,-7.1953,-7.0547,-6.9219,-6.832,-6.7461,-6.6601,-6.5703,-6.4805,-6.3945,-6.3125,-6.3008,-6.3047,-6.3125,-6.3906,-6.429,-6.4169,-6.3386,-6.2797,-6.2513,-6.1935,-6.1696,-6.1758,-6.1797,-6.1797,-6.1719,-6.1797,-6.1836,-6.1875,-6.2695,-6.2617,-6.1796,-6.1517,-6.1406,-6.1369,-6.101,-6.0896,-6.1012,-6.1805,-6.1674,-6.1199,0.0,0.0,0.0,0.0,0.0,0.0,0.0,0.0,0.0,0.0,0.0,0.0,0.0,-6.0781,-6.0781,-6.0781,-6.0781,-6.105,-6.1601,-6.1408,-6.1743,-6.282,-6.3166,-6.3705,-6.4589,-6.5166,-6.559,-6.5897,-6.5897,-6.7051,-6.9321,-6.986,-7.0898,-7.2245,-7.1629,-7.0744,-6.9552,-6.7013,-6.6282,-6.6551,-6.3666,-6.2858,-6.3128,-6.1435,-6.0781,-6.0781,-6.0781,-6.0781,-6.0781,-6.0781,-6.0781,-6.0781,-6.0781,-6.0781,-6.0781,-6.0781,-6.0781,-6.0973,-6.187,-6.3128,-6.4597,-6.6245,-6.8886,-7.1042,-7.0668,-7.2019,-7.2969,-7.1875,-7.1562,-7.164,-7.1953,-7.1797,-7.1914,-7.2773,-7.2422,-7.1601,-7.0547,-6.9844,-6.8906,-6.7539,-6.7109,-6.6562,-6.5664,-6.4805,-6.3945,-6.3086,-6.2461,-6.2422,-6.2969,-6.3281,-6.3393,-6.3266,-6.2951,-6.2477,-6.1756,-6.1495,-6.1421,-6.1577,-6.1677,-6.1719,-6.1719,-6.1719,-6.1719,-6.1719,-6.2031,-6.1992,-6.1679,-6.1504,-6.1369,-6.1265,-6.1036,-6.0871,-6.0819,-6.1127,-6.1081,-6.0931,0.0,0.0,0.0,0.0,0.0,-6.0538,-6.0747,-6.1097,-6.1227,-6.1031,0.0,0.0,0.0,0.0,-6.0781,-6.0781,-6.0781,-6.105,-6.1639,-6.1127,-6.1281,-6.2397,-6.2743,-6.3281,-6.4166,-6.5013,-6.559,-6.5897,-6.5897,-6.659,-6.7975,-6.8859,-6.9706,-7.0475,-7.0206,-7.009,-6.9937,-6.7398,-6.6474,-6.6513,-6.3974,-6.3243,-6.3628,-6.2512,-6.1897,-6.1627,-6.1627,-6.1473,-6.1166,-6.0896,-6.0781,-6.0781,-6.0781,-6.0781,-6.0781,-6.0781,-6.0823,-6.0993,-6.1509,-6.2313,-6.334,-6.4868,-6.6888,-6.8538,-6.867,-7.021,-7.1406,-7.082,-7.0937,-7.1328,-7.1914,-7.1289,-7.0976,-7.1875,-7.1992,-7.1523,-7.0117,-6.9648,-6.8906,-6.75,-6.707,-6.668,-6.6094,-6.5234,-6.4375,-6.3515,-6.2617,-6.2265,-6.2539,-6.2578,-6.249,-6.2282,-6.2201,-6.181,-6.12,-6.1259,-6.1359,-6.1504,-6.1634,-6.1719,-6.1719,-6.1719,-6.1719,-6.1719,-6.1719,-6.1719,-6.1679,-6.1571,-6.1409,-6.1271,-6.1089,-6.0925,-6.0781,-6.0781,-6.0781,-6.0854,0.0,0.0,-6.0512,-5.9665,-6.0489,-6.0923,-5.9985,-6.0674,-6.1227,-6.1023,0.0,0.0,0.0,0.0,0.0,-6.0781,-6.0819,-6.0819,-6.0781,-6.0781,-6.0781,-6.0781,-6.1639,-6.2474,-6.3231,-6.4128,-6.4974,-6.582,-6.582,-6.6205,-6.7013,-6.7859,-6.8706,-6.9513,-6.8706,-6.9206,-7.0667,-6.9898,-6.9129,-6.8129,-6.5628,-6.4628,-6.4628,-6.4589,-6.4051,-6.3308,-6.3308,-6.2781,-6.2024,-6.1166,-6.0858,-6.0819,-6.0819,-6.0781,-6.0781,-6.0781,-6.0874,-6.0991,0.0,0.0,0.0,-6.3057,-6.4152,-6.5504,-6.7178,-6.7871,-6.8633,-7.0234,-7.0,-7.0,-7.164,-7.125,-7.0976,-7.1797,-7.1953,-7.1719,-7.082,-7.0039,-6.9219,-6.8359,-6.75,-6.6953,-6.6953,-6.6133,-6.5273,-6.4375,-6.3476,-6.2617,-6.1758,-6.1679,-6.1577,-6.1295,-6.0964,-6.085,-6.0988,-6.12,-6.1359,-6.1501,-6.1634,-6.1719,-6.1719,-6.1719,-6.1719,-6.1719,-6.1719,-6.1719,-6.1679,-6.1573,-6.1413,-6.1277,-6.1097,-6.0935,-6.0793,-6.0793,-6.0819,-6.0973,0.0,-5.9858,-5.9973,-6.0358,-6.0381,-6.0377,-6.0517,-6.0965,-6.1179,0.0,0.0,0.0,-6.0781,-6.1358,-6.1473,-6.0858,-6.1358,-6.1485,-6.0819,-6.0781,-6.0781,-6.0781,-6.1639,-6.2216,-6.2435,-6.3243,-6.3782,-6.4012,-6.4012,-6.4128,-6.4359,-6.4589,-6.5166,-6.6013,-6.6436,-6.6513,-6.6359,-6.6782,-6.7167,-6.7282,-6.5359,-6.4974,-6.5397,-6.4128,-6.3512,-6.3308,-6.3308,-6.3166,-6.2935,-6.2704,-6.2204,-6.1639,-6.1012,-6.0781,-6.0781,-6.0781,-6.0874,-6.0988,-6.0954,0.0,0.0,0.0,0.0,0.0,-6.4087,-6.5688,-6.7383,-6.7851,-6.8789,-6.9648,-7.0117,-7.0469,-7.0586,-7.0234,-7.1211,-7.1719,-7.082,-7.0508,-7.0078,-6.9258,-6.8945,-6.8515,-6.789,-6.7031,-6.5937,-6.4414,-6.3476,-6.2617,-6.1758,-6.1512,-6.1369,-6.1289,-6.0964,-6.0827,-6.0828,-6.1135,-6.1306,-6.1349,-6.1584,-6.1719,-6.1719,-6.1719,-6.1719,-6.1719,-6.1719,-6.1719,-6.1719,-6.1677,-6.1575,-6.1417,-6.1283,-6.1105,-6.0916,-6.0823,-6.1204,-6.1793,-5.9819,-6.005,-6.0204,-6.0704,-6.0574,-6.0499,-6.0745,-6.1,-6.1065,0.0,0.0,0.0,-6.0781,-6.1601,-6.1755,-6.0858,-6.1243,-6.1331,-6.0819,-6.0781,-6.0781,-6.0781,-6.1639,-6.2101,-6.2101,-6.2897,-6.3308,-6.3308,-6.3308,-6.3128,-6.282,-6.3128,-6.3397,-6.3589,-6.4436,-6.4551,-6.4089,-6.4589,-6.5282,-6.5936,-6.4589,-6.4782,-6.5782,-6.4782,-6.4397,-6.4397,-6.4397,-6.4397,-6.4282,-6.3551,-6.2781,-6.1947,-6.105,-6.0781,-6.0781,-6.0781,-6.0954,-6.1112,-6.1023,-6.1175,-6.1422,-6.1606,0.0,0.0,-6.3189,-6.4301,-6.5469,-6.6211,-6.7187,-6.7969,-6.8359,-6.9101,-6.9492,-6.9023,-7.0078,-7.0859,-7.0703,-7.0703,-7.0547,-7.0078,-6.9687,-6.914,-6.8281,-6.7734,-6.6679,-6.4834,-6.3982,-6.3008,-6.1758,-6.1467,-6.1283,-6.1283,-6.0964,-6.085,-6.0892,-6.115,-6.1318,-6.1378,-6.1587,-6.1719,-6.1719,-6.1719,-6.1719,-6.1719,-6.1719,-6.1719,-6.1719,-6.1719,-6.1631,-6.1498,-6.14,-6.1246,-6.0988,-6.0915,-6.1395,-6.2101,0.0,-6.0727,-6.0781,-6.0781,-6.0915,-6.0993,-6.0943,-6.0992,-6.1031,0.0,-6.1089,-6.1089,-6.1089,-6.1781,-6.1897,-6.1012,-6.0935,-6.0896,-6.0819,-6.0781,-6.0781,-6.0781,-6.1562,-6.1947,-6.1947,-6.2666,-6.3012,-6.3012,-6.3012,-6.2666,-6.1985,-6.2704,-6.2627,-6.1985,-6.282,-6.3128,-6.3038,-6.3128,-6.3628,-6.4243,-6.3589,-6.4359,-6.5859,-6.5667,-6.5667,-6.5743,-6.5743,-6.582,-6.5628,-6.4012,-6.2974,-6.2216,-6.1243,-6.0935,-6.0947,-6.0866,-6.1036,-6.1259,-6.112,-6.1284,-6.1651,-6.2235,-6.2032,0.0,-6.3494,-6.3383,-6.3437,-6.5,-6.539,-6.5703,-6.6484,-6.7305,-6.789,-6.7773,-6.8515,-6.9453,-7.043,-7.0625,-7.0703,-7.0703,-7.0156,-6.9414,-6.8437,-6.8359,-6.7495,-6.5448,-6.4597,-6.3437,-6.1797,-6.1478,-6.1306,-6.1289,-6.102,-6.0913,-6.0997,-6.122,-6.1373,-6.1504,-6.1634,-6.1719,-6.1719,-6.1719,-6.1719,-6.1719,-6.1719,-6.1719,-6.1719,-6.1719,-6.1633,-6.1515,-6.1507,-6.131,-6.1073,-6.1023,-6.1476,-6.2098,-5.9775,-6.0447,-6.0781,-6.0781,-6.0915,-6.1186,-6.1763,-6.134,-6.1447,-6.2663,-6.282,-6.282,-6.282,-6.2974,-6.2743,-6.1908,-6.187,-6.155,-6.0858,-6.0781,-6.0781,-6.0781,-6.0973,-6.105,-6.105,-6.1204,-6.1281,-6.1281,-6.1281,-6.1204,-6.105,-6.1204,-6.1204,-6.1089,-6.1935,-6.1935,-6.132,-6.205,-6.2447,-6.2627,-6.3128,-6.4359,-6.5743,-6.4359,-6.4243,-6.4859,-6.4859,-6.5282,-6.5743,-6.4705,-6.4243,-6.3858,-6.2332,-6.187,-6.1724,-6.1138,-6.112,-6.1306,-6.1392,-6.1525,-6.1672,-6.1693,-6.2197,0.0,-6.2103,-6.2525,-6.3086,-6.3437,-6.4062,-6.4609,-6.4765,-6.5508,-6.5898,-6.5156,-6.6367,-6.793,-6.9453,-7.0273,-7.0703,-7.0703,-7.1172,-7.0937,-6.9375,-6.9219,-6.8081,-6.5487,-6.3932,-6.2674,-6.1758,-6.1566,-6.14,-6.1289,-6.122,-6.1128,-6.1006,-6.1295,-6.1488,-6.1504,-6.1634,-6.1719,-6.1719,-6.1719,-6.1719,-6.1719,-6.1719,-6.1719,-6.1719,-6.1719,-6.1679,-6.1637,-6.1525,-6.1442,-6.1387,-6.1089,-6.1542,-6.224,-6.0101,-6.0604,-6.0781,-6.0781,-6.0867,-6.1036,-6.1393,-6.1147,-6.1334,-6.2536,-6.3435,-6.3782,-6.3346,-6.3308,-6.2974,-6.2178,-6.1716,-6.1281,-6.0819,-6.0781,-6.0781,-6.0781,-6.0781,-6.0781,-6.0781,-6.0781,-6.0781,-6.0781,-6.0781,-6.0781,-6.0781,-6.0781,-6.055,-6.0204,-6.105,-6.0973,-6.0204,-6.1089,-6.1716,-6.2101,-6.205,-6.3089,-6.4474,-6.3205,-6.3205,-6.3935,-6.3935,-6.4512,-6.5166,-6.4743,-6.4589,-6.4243,-6.2127,-6.2012,-6.2456,-6.1311,-6.1422,-6.1824,-6.1556,-6.1585,-6.1679,-6.163,-6.1988,0.0,0.0,-6.1988,-6.2344,-6.2344,-6.2695,-6.3008,-6.3008,-6.3711,-6.414,-6.3711,-6.4765,-6.5898,-6.6758,-6.8711,-7.0234,-7.0664,-7.0742,-7.043,-6.957,-6.8978,-6.7553,-6.4899,-6.3834,-6.2815,-6.1758,-6.1577,-6.1485,-6.1392,-6.1323,-6.1289,-6.125,-6.1417,-6.1522,-6.1587,-6.1678,-6.1719,-6.1719,-6.1719,-6.1719,-6.1719,-6.1719,-6.1719,-6.1719,-6.1719,-6.1719,-6.168,-6.1632,-6.1573,-6.1488,-6.1259,-6.1632,-6.2229,-6.0704,-6.0905,-6.0781,-6.0781,-6.0781,-6.0858,-6.1012,-6.0896,-6.1166,-6.2204,-6.3666,-6.4397,-6.3858,-6.3512,-6.3243,-6.3101,-6.1678,-6.1012,-6.1512,-6.105,-6.0781,-6.0781,-6.0781,-6.0781,-6.0781,-6.0781,-6.0781,-6.0781,-6.0781,-6.0781,-6.0781,-6.0781,-6.0435,-5.9781,-6.0473,-6.0396,-5.9819,-6.0512,-6.1204,-6.1793,-6.1089,-6.1704,-6.2974,-6.2166,-6.2358,-6.3128,-6.3435,-6.4128,-6.4859,-6.4859,-6.4859,-6.4436,-6.205,-6.224,-6.3037,-6.15,-6.1666,-6.2172,-6.1699,-6.163,-6.1719,-6.1719,-6.1836,-6.1914,0.0,0.0,0.0,-6.1719,-6.1719,-6.1719,-6.1719,-6.2265,-6.2734,-6.2734,-6.3476,-6.4101,-6.4297,-6.6719,-6.8867,-6.9844,-6.9375,-6.9062,-6.9219,-6.8093,-6.645,-6.4292,-6.3789,-6.2994,-6.1757,-6.1585,-6.1517,-6.1504,-6.1409,-6.1404,-6.1504,-6.1517,-6.1584,-6.1719,-6.1719,-6.1719,-6.1719,-6.1719,-6.1719,-6.1719,-6.1719,-6.1719,-6.1719,-6.1719,-6.1719,-6.1719,-6.1719,-6.1634,-6.1515,-6.1378,-6.1655,-6.1992,-6.0882,-6.103,-6.0781,-6.0781,-6.0781,-6.105,-6.1831,-6.1281,-6.1358,-6.2974,-6.4012,-6.4859,-6.5513,-6.4243,-6.4166,-6.632,-6.3012,-6.1743,-6.4012,-6.205,-6.0781,-6.0781,-6.0781,-6.0781,-6.0781,-6.0781,-6.0781,-6.0781,-6.0781,-6.0781,-6.0781,-6.0781,-6.0742,-6.0666,-6.0742,-6.0742,-6.0666,-6.0742,-6.0858,-6.0935,-6.0819,-6.1358,-6.2139,-6.1281,-6.1473,-6.2447,-6.3935,-6.5013,-6.5743,-6.5743,-6.5743,-6.5436,-6.3589,-6.3263,-6.3273,-6.1712,-6.1442,-6.1624,-6.1674,-6.1679,-6.1719,-6.1719,-6.2265,-6.2656,-6.1875,0.0,-6.2617,-6.1875,0.0,-6.1719,-6.1719,0.0,0.0,-6.1836,-6.2578,-6.3437,-6.418,-6.4648,-6.5508,-6.7148,-6.7265,-6.75,-6.8281,-6.6564,-6.5117,-6.4333,-6.3257,-6.2375,-6.1718,-6.1679,-6.1631,-6.1507,-6.1587,-6.1588,-6.1504,-6.1631,-6.1679,-6.1719,-6.1719,-6.1719,-6.1719,-6.1719,-6.1719,-6.1719,-6.1719,-6.1719,-6.1719,-6.1719,-6.1719,-6.1719,-6.1719,-6.1679,-6.1677,-6.1517,-6.1461,-6.1408,-6.0848,-6.0945,-6.0781,-6.0781,-6.0781,-6.0935,-6.1281,-6.1858,-6.2512,-6.3205,-6.4512,-6.5859,-6.7205,-6.582,-6.5436,-6.6974,-6.4589,-6.3243,-6.382,-6.2397,-6.1743,-6.2243,-6.132,-6.105,-6.1562,-6.105,-6.0781,-6.0781,-6.0781,-6.0781,-6.0781,-6.0781,-6.0512,-6.0089,-6.055,-6.0512,-6.0127,-6.1127,-6.155,-6.1589,-6.205,-6.2204,-6.1985,-6.1127,-6.1331,-6.2332,-6.4012,-6.4859,-6.5051,-6.4551,-6.4743,-6.4743,-6.2551,-6.2639,-6.3309,-6.1739,-6.1733,-6.2181,-6.1794,-6.1719,-6.1719,-6.1719,-6.1992,-6.2148,-6.1797,-6.1992,-6.2148,-6.1797,0.0,0.0,0.0,0.0,0.0,0.0,-6.1992,-6.2187,-6.207,-6.2461,-6.3633,-6.5898,-6.5703,-6.5506,-6.5801,-6.5381,-6.4647,-6.3527,-6.2834,-6.2258,-6.1718,-6.1719,-6.1679,-6.1631,-6.1678,-6.1679,-6.163,-6.1678,-6.1719,-6.1719,-6.1719,-6.1719,-6.1719,-6.1719,-6.1719,-6.1719,-6.1719,-6.1719,-6.1719,-6.1719,-6.1719,-6.1719,-6.1719,-6.1719,-6.1679,-6.1568,-6.1442,-6.1396,-6.0751,-6.086,-6.0781,-6.0781,-6.0781,-6.0781,-6.0781,-6.182,-6.2781,-6.3231,-6.4628,-6.6282,-6.8205,-6.7321,-6.7205,-6.8706,-6.6667,-6.5128,-6.4731,-6.3281,-6.2474,-6.2627,-6.1666,-6.1331,-6.1755,-6.1358,-6.105,-6.0781,-6.0781,-6.0781,-6.0781,-6.0781,-6.0473,-5.9896,-6.0781,-6.0666,-5.9973,-6.1704,-6.2293,-6.2178,-6.2974,-6.282,-6.2024,-6.1408,-6.1704,-6.2627,-6.4089,-6.4743,-6.4859,-6.4243,-6.4282,-6.4243,-6.2127,-6.2305,-6.3045,-6.1674,-6.1872,-6.2397,-6.1834,-6.1719,-6.1719,-6.1719,-6.1719,-6.1719,-6.1719,-6.1875,-6.207,-6.207,-6.2265,0.0,0.0,0.0,-6.1992,-6.1758,0.0,-6.1484,-6.0859,-6.1289,-6.2383,-6.4297,-6.4375,-6.4177,-6.3837,-6.4159,-6.3896,-6.2616,-6.2318,-6.1946,-6.1367,-6.1562,-6.1719,-6.1719,-6.1719,-6.1719,-6.1719,-6.1719,-6.1719,-6.1719,-6.1719,-6.1719,-6.1719,-6.1719,-6.1719,-6.1719,-6.1719,-6.1719,-6.1719,-6.1719,-6.1719,-6.1719,-6.1719,-6.1719,-6.1679,-6.1584,-6.152,-6.1498,-6.0639,-6.0793,-6.0781,-6.0781,-6.0781,-6.0781,-6.0781,-6.0858,-6.1473,-6.3077,-6.4089,-6.559,-6.8129,-6.8359,-6.9667,-7.3014,-6.9436,-6.7359,-6.8205,-6.5115,-6.2551,-6.0935,-6.1639,-6.1678,-6.0858,-6.1639,-6.1639,-6.0781,-6.0781,-6.0781,-6.0781,-6.0781,-6.0781,-6.0781,-6.1678,-6.1562,-6.0858,-6.2551,-6.282,-6.2178,-6.2974,-6.282,-6.2101,-6.2062,-6.2551,-6.3397,-6.4282,-6.5128,-6.5859,-6.582,-6.5282,-6.4436,-6.3512,-6.2887,-6.2361,-6.1556,-6.1495,-6.1719,-6.1719,-6.1719,-6.1719,-6.1719,-6.1719,-6.1719,-6.1719,-6.2344,-6.2969,-6.2969,-6.3633,-6.3945,-6.3125,-6.2969,-6.2695,-6.1836,-6.1719,0.0,0.0,-6.168,-6.1719,-6.1836,-6.3281,-6.3984,-6.3125,-6.2804,-6.2414,-6.1796,-6.1506,-6.1093,-6.0468,-6.125,-6.1719,-6.1719,-6.1719,-6.1719,-6.1719,-6.1719,-6.1719,-6.1719,-6.1719,-6.1719,-6.1719,-6.1719,-6.1719,-6.1719,-6.1719,-6.1719,-6.1719,-6.1719,-6.1719,-6.1719,-6.1719,-6.1719,-6.1719,-6.1719,-6.1629,-6.1512,-6.0742,-6.0781,-6.0781,-6.0781,-6.0781,-6.0973,-6.1562,-6.2127,-6.3474,-6.6308,-6.7541,-6.9579,-7.323,-7.3268,-7.3423,-7.4402,-7.2689,-7.0908,-6.9373,-6.7628,-6.6423,-6.5859,-6.5051,-6.4474,-6.4166,-6.332,-6.2474,-6.1678,-6.1089,-6.0781,-6.0781,-6.0781,-6.0781,-6.0819,-6.1089,-6.1089,-6.0896,-6.2589,-6.3128,-6.2974,-6.382,-6.432,-6.4551,-6.3974,-6.3589,-6.3512,-6.4936,-6.5628,-6.582,-6.5243,-6.4474,-6.3589,-6.2781,-6.2045,-6.1485,-6.1331,-6.1413,-6.1582,-6.1679,-6.1719,-6.1719,-6.1719,-6.1719,-6.1719,-6.1719,-6.2383,-6.3008,-6.3008,-6.3672,-6.4023,-6.3164,-6.3008,-6.2695,-6.1836,-6.1719,-6.1484,0.0,-6.0859,-6.1055,-6.164,-6.2226,-6.2461,-6.2187,-6.1444,-6.1194,-6.1679,-6.1013,-6.0765,-6.125,-6.1523,-6.1719,-6.1719,-6.1719,-6.1719,-6.1719,-6.1719,-6.1719,-6.1719,-6.1719,-6.1719,-6.1719,-6.1719,-6.1719,-6.1719,-6.1719,-6.1719,-6.1719,-6.1719,-6.1719,-6.1719,-6.1719,-6.1719,-6.1719,-6.1719,-6.1678,-6.1713,-6.0858,-6.0781,-6.0781,-6.0781,-6.0781,-6.1089,-6.1985,-6.3051,-6.4897,-6.8,-6.9844,-7.2163,-7.5464,-7.5827,-7.575,-7.5584,-7.4751,-7.2949,-6.9999,-6.9207,-6.8321,-6.709,-6.659,-6.6051,-6.5436,-6.4628,-6.3512,-6.2101,-6.1562,-6.1089,-6.0781,-6.0781,-6.0781,-6.0819,-6.1127,-6.1089,-6.0935,-6.2935,-6.3589,-6.3397,-6.4243,-6.4936,-6.5397,-6.482,-6.4243,-6.3935,-6.5397,-6.5705,-6.5359,-6.4782,-6.4012,-6.3166,-6.2358,-6.1608,-6.1048,-6.124,-6.1387,-6.152,-6.1678,-6.1719,-6.1719,-6.1719,-6.1914,-6.2148,-6.2148,-6.3086,-6.3906,-6.3906,-6.4609,-6.4961,-6.4101,-6.3672,-6.3164,-6.2305,-6.1914,-6.1484,0.0,-6.0859,-6.1055,-6.164,-6.1719,-6.1719,-6.1719,-6.0798,-6.0358,-6.0781,-6.0132,-6.0048,-6.0781,-6.1094,-6.1367,-6.168,-6.1719,-6.1719,-6.1719,-6.1719,-6.1719,-6.1719,-6.1719,-6.1719,-6.1719,-6.1719,-6.1719,-6.1719,-6.1719,-6.1719,-6.1719,-6.1719,-6.1719,-6.1719,-6.1719,-6.1719,-6.1719,-6.1719,-6.1914,-6.2305,-6.0973,-6.0781,-6.0819,-6.0858,-6.0819,-6.1089,-6.1985,-6.3589,-6.5667,-6.8244,-7.1004,-7.3364,-7.5087,-7.6147,-7.6734,-7.6675,-7.5749,-7.3752,-7.0467,-7.0049,-6.8424,-6.5114,-6.6487,-6.6513,-6.4897,-6.559,-6.4743,-6.2293,-6.2178,-6.1678,-6.0858,-6.0819,-6.0781,-6.0819,-6.1678,-6.1601,-6.0973,-6.3435,-6.4051,-6.3435,-6.432,-6.4705,-6.4705,-6.4666,-6.4666,-6.4782,-6.559,-6.532,-6.4628,-6.4666,-6.4089,-6.3243,-6.2397,-6.1636,-6.107,-6.1227,-6.1378,-6.1515,-6.1638,-6.168,-6.1719,-6.1719,-6.2344,-6.3008,-6.3008,-6.4336,-6.5586,-6.5586,-6.6328,-6.668,-6.5781,-6.4922,-6.4062,-6.3164,-6.2265,-6.1719,-6.1719,-6.1719,-6.1719,-6.1719,-6.164,-6.164,-6.164,-6.0684,-5.9855,-5.9258,-5.8962,-5.8957,-5.9258,-5.9961,-6.082,-6.1758,-6.1758,-6.1797,-6.1836,-6.1797,-6.1758,-6.1758,-6.1719,-6.1719,-6.1719,-6.1719,-6.1719,-6.1719,-6.1719,-6.1719,-6.1719,-6.1719,-6.1719,-6.1719,-6.1719,-6.1719,-6.1758,-6.1758,-6.2305,-6.3164,-6.0819,-6.0781,-6.1012,-6.1639,-6.1243,-6.1089,-6.1985,-6.4602,-6.759,-7.0821,-7.3741,-7.6443,-7.8759,-7.8954,-7.8599,-7.7866,-7.7555,-7.6397,-7.4079,-7.318,-7.2054,-7.0556,-7.0118,-6.9436,-6.8398,-6.7321,-6.6167,-6.4897,-6.3024,-6.1985,-6.1755,-6.1089,-6.0781,-6.0819,-6.1012,-6.1012,-6.0896,-6.2178,-6.332,-6.4359,-6.5205,-6.5936,-6.6397,-6.5782,-6.5551,-6.559,-6.582,-6.532,-6.4705,-6.5359,-6.4974,-6.4128,-6.3281,-6.2456,-6.173,-6.1217,-6.122,-6.1373,-6.1512,-6.1632,-6.1719,-6.1719,-6.2344,-6.3008,-6.3008,-6.4336,-6.5586,-6.5586,-6.6797,-6.7383,-6.5898,-6.543,-6.4765,-6.3242,-6.2265,-6.1719,-6.1719,-6.1719,-6.1719,-6.1719,-6.1133,-6.0742,-6.0742,-5.9374,-5.8709,-5.914,-5.8553,-5.8709,-6.0039,-6.0273,-6.1094,-6.2617,-6.2656,-6.2969,-6.3633,-6.3008,-6.2656,-6.2656,-6.1992,-6.1719,-6.1719,-6.1719,-6.1719,-6.1719,-6.1719,-6.1719,-6.1719,-6.1719,-6.1719,-6.1719,-6.1719,-6.2109,-6.2656,-6.2656,-6.3203,-6.3984,-6.0858,-6.1089,-6.1524,-6.2024,-6.2897,-6.3705,-6.4217,-6.559,-6.7782,-7.1168,-7.4228,-7.6448,-7.7485,-7.8858,-7.9178,-7.787,-7.7684,-7.686,-7.5,-7.4192,-7.3256,-7.1978,-7.1286,-7.0514,-6.9706,-6.8359,-6.709,-6.5897,-6.3705,-6.2435,-6.2101,-6.1204,-6.0781,-6.0781,-6.0781,-6.0781,-6.0858,-6.2089,-6.3628,-6.5166,-6.5282,-6.582,0.0,-6.5628,-6.532,-6.5397,-6.5743,-6.532,-6.4666,-6.5166,-6.5013,-6.4436,-6.3589,-6.2974,-6.2494,-6.1776,-6.1663,-6.1694,-6.1545,-6.1571,-6.171,-6.2148,-6.293,-6.3672,-6.4062,-6.5195,-6.6172,-6.6172,-6.7265,-6.7773,-6.6406,-6.5859,-6.4883,-6.2773,-6.2031,-6.1719,-6.1719,-6.1719,-6.1719,-6.1719,-6.0937,-6.039,-6.039,-5.8867,-5.8086,-5.8594,-5.8081,-5.8392,-5.9805,-6.0152,-6.1127,-6.293,-6.2617,-6.3047,-6.4297,-6.3047,-6.2617,-6.3008,-6.2109,-6.1719,-6.1719,-6.1719,-6.1719,-6.1719,-6.1719,-6.1719,-6.1719,-6.1719,-6.1719,-6.1758,-6.2109,-6.2812,-6.3594,-6.3984,-6.4219,-6.4297,-6.1127,-6.1743,-6.2409,-6.2293,-6.5051,-6.7359,-6.7705,-6.7475,-6.8282,-7.1206,-7.4199,-7.5722,-7.4923,-7.7654,-7.8945,-7.75,-7.7126,-7.6314,-7.4762,-7.4177,-7.319,-7.1649,-7.1154,-7.0606,-6.986,-6.8898,-6.7628,-6.6051,-6.4205,-6.2897,-6.2101,-6.1204,-6.0781,-6.0781,-6.0781,-6.0781,-6.0896,-6.2589,-6.4166,-6.5513,-6.4974,-6.5205,-6.582,-6.5051,-6.4782,-6.4859,-6.5628,-6.532,-6.4628,-6.4743,-6.4782,-6.4628,-6.3743,-6.3462,-6.333,-6.2655,-6.2471,-6.2391,-6.1919,-6.1797,-6.2064,-6.2925,-6.3828,-6.4687,-6.543,-6.6289,-6.6914,-6.6914,-6.7578,-6.793,-6.707,-6.6172,-6.4805,-6.2422,-6.1953,-6.1914,-6.2031,-6.1836,-6.1758,-6.1875,-6.1015,0.0,-6.039,-5.8984,-5.8086,-5.8086,-5.7865,-5.8211,-5.9297,-5.9898,-6.1104,-6.3125,-6.2422,-6.289,-6.4609,-6.289,-6.2422,-6.3164,-6.2187,-6.1719,-6.1719,-6.1719,-6.1719,-6.1719,-6.1719,-6.1719,-6.1719,-6.1719,-6.1719,-6.1797,-6.2656,-6.3515,-6.4375,-6.5156,-6.4961,-6.4297,-6.2024,-6.3089,-6.3935,-6.3205,-6.5897,-6.8898,-7.0975,-7.2976,-7.4437,-7.5014,-7.7698,-7.9462,-7.9306,-7.8936,-7.8594,-7.8281,-7.7577,-7.7029,-7.6717,-7.514,-7.401,-7.3518,-7.1998,-7.0985,-7.0706,-6.9206,-6.7898,-6.6898,-6.4474,-6.2897,-6.2101,-6.1204,-6.0781,-6.0781,-6.0781,-6.0781,-6.0896,-6.2589,-6.3462,-6.3858,-6.5166,-6.5743,-6.5859,-6.5743,-6.5667,-6.5705,-6.5859,-6.532,-6.4705,-6.5436,-6.5667,-6.5513,-6.4666,-6.4359,-6.4217,-6.338,-6.325,-6.3359,-6.3244,-6.342,-6.3689,-6.386,-6.4637,-6.539,-6.5586,-6.6289,-6.6914,-6.6914,-6.7578,-6.793,-6.707,-6.6172,-6.5195,-6.4023,-6.3242,-6.3008,-6.375,-6.2617,-6.1953,-6.2695,-6.1367,-6.039,-6.039,-5.9531,-5.8984,-5.8984,-5.8804,-5.9109,-6.0156,-6.021,-6.1377,-6.3984,-6.3906,-6.4687,-6.6445,-6.4726,-6.3906,-6.4062,-6.2461,-6.1719,-6.1719,-6.1719,-6.1719,-6.1719,-6.1719,-6.1719,-6.1719,-6.1719,-6.1719,-6.1797,-6.2656,-6.3515,-6.4336,-6.4453,-6.4414,-6.4297,-6.4679,-6.4628,-6.5051,-6.6397,-6.8706,-7.1245,-7.3783,-7.6707,-7.7861,-7.563,-7.7155,-7.827,-7.7796,-7.8978,-7.9453,-7.8594,-7.8125,-7.7695,-7.7226,-7.5794,-7.4718,-7.4192,-7.2779,-7.1736,-7.105,-6.939,-6.8304,-6.7782,-6.4782,-6.3089,-6.2704,-6.1396,-6.0781,-6.0781,-6.0781,-6.1281,-6.2166,-6.2974,-6.382,-6.4705,-6.5551,-6.5897,-6.5897,-6.5897,-6.5897,-6.5897,-6.5897,-6.5628,-6.532,-6.5743,-6.5897,-6.582,-6.5397,-6.5282,-6.5089,-6.4243,-6.4031,-6.4022,-6.369,-6.3779,-6.409,-6.4574,-6.518,-6.5703,-6.6172,-6.6601,-6.6914,-6.6914,-6.7578,-6.793,-6.707,-6.6172,-6.5312,-6.4453,-6.3945,-6.3828,-6.4258,-6.3203,-6.2539,-6.2969,-6.1875,-6.1055,-6.1055,-6.0703,-6.0156,-5.9258,-5.9429,-5.9814,-6.0351,-6.0718,-6.1729,-6.3555,-6.3633,-6.4453,-6.6211,-6.4961,-6.4297,-6.4297,-6.3008,-6.2148,-6.1719,-6.1719,-6.1719,-6.1719,-6.1719,-6.1719,-6.1719,-6.1719,-6.1953,-6.2461,-6.332,-6.3945,-6.4336,-6.4805,-6.4687,-6.4258,-6.7513,-6.6859,-6.7051,-6.9744,-7.1937,-7.3937,-7.5976,-7.9015,-7.99,-7.6515,-7.701,-7.7428,-7.676,-7.9254,-8.0469,-7.914,-7.8711,-7.8203,-7.7539,-7.6352,-7.5345,-7.4623,-7.3441,-7.2436,-7.1542,-6.9828,-6.8612,-6.7923,-6.5011,-6.332,-6.2743,-6.1435,-6.0781,-6.0819,-6.1166,-6.1973,-6.3089,-6.3435,-6.4359,-6.5628,-6.582,-6.5897,-6.5897,-6.5897,-6.5897,-6.5897,-6.5897,-6.5897,-6.5897,-6.5897,-6.5897,-6.5897,-6.5897,-6.5782,-6.5513,-6.5013,-6.4743,-6.4523,-6.417,-6.4183,-6.4507,-6.5346,-6.567,-6.6014,-6.6719,-6.6914,-6.6914,-6.6914,-6.7461,-6.7695,-6.7031,-6.6328,-6.5664,-6.4961,-6.4687,-6.4648,-6.4844,-6.3789,-6.3086,-6.3242,-6.2344,-6.1719,-6.1719,-6.1719,-6.1133,-5.9844,-6.0171,-6.0516,-6.0664,-6.1186,-6.1963,-6.2969,-6.3164,-6.3945,-6.5312,-6.4648,-6.4219,-6.4023,-6.3125,-6.2344,-6.1719,-6.1719,-6.1719,-6.1719,-6.1719,-6.1719,-6.1719,-6.1719,-6.2109,-6.2812,-6.3906,-6.4297,-6.4414,-6.5273,-6.5156,-6.4453,-6.9436,-7.0552,-7.1591,-7.1898,-7.4668,-7.6899,-7.713,-7.94,-8.0977,-8.0554,-8.0905,-8.1182,-8.1104,-8.1044,-8.0937,-8.0781,-7.9375,-7.8476,-7.8398,-7.6797,-7.5733,-7.5485,-7.3871,-7.2876,-7.2677,-7.0765,-6.8665,-6.6332,-6.5091,-6.3281,-6.1012,-6.0858,-6.0781,-6.0858,-6.2397,-6.2743,-6.2332,-6.382,-6.4589,-6.4782,-6.559,-6.5897,-6.5897,-6.5897,-6.5897,-6.5897,-6.5897,-6.5897,-6.5897,-6.5897,-6.5897,-6.5897,-6.5897,-6.5359,-6.4859,-6.5551,-6.5205,-6.4743,-6.5473,-6.5782,-6.5967,-6.6212,-6.6399,-6.6566,-6.6834,-6.6914,-6.6914,-6.6914,-6.6953,-6.6992,-6.6914,-6.6836,-6.6758,-6.668,-6.5976,-6.5742,-6.6562,-6.4531,-6.3281,-6.4062,-6.2695,-6.1719,-6.1719,-6.1719,-6.164,-6.1484,-6.1422,-6.1456,-6.1562,-6.1538,-6.1963,-6.2969,-6.3789,-6.4258,-6.4414,-6.4336,-6.3906,-6.3125,-6.2226,-6.1797,-6.1719,-6.1719,-6.1719,-6.1719,-6.1719,-6.1719,-6.1719,-6.1719,-6.1758,-6.1992,-6.3633,-6.4297,-6.4414,-6.5273,-6.5547,-6.5351,-7.3476,-7.3206,-7.3591,-7.563,-7.6284,-7.7207,-7.9285,-8.0439,-8.1146,-8.1258,-8.1514,-8.1771,-8.1867,-8.1812,-8.1562,-8.1054,-8.039,-7.957,-7.8555,-7.7851,-7.6952,-7.581,-7.5107,-7.4421,-7.37,-7.1934,-7.0205,-6.8433,-6.6456,-6.4674,-6.3051,-6.205,-6.1601,-6.1639,-6.2781,-6.3397,-6.3628,-6.432,-6.4897,-6.5397,-6.5743,-6.5897,-6.5897,-6.5897,-6.5897,-6.5897,-6.5897,-6.5897,-6.5897,-6.5897,-6.5897,-6.5897,-6.5897,-6.5282,-6.4782,-6.5628,-6.5282,-6.4782,-6.5667,-6.6019,-6.6165,-6.6341,-6.6498,-6.6636,-6.6834,-6.6914,-6.6914,-6.6914,-6.6914,-6.6914,-6.6914,-6.6914,-6.6914,-6.6914,-6.6601,-6.6484,-6.6836,-6.5547,-6.4492,-6.4336,-6.3203,-6.2265,-6.1758,-6.1719,-6.1719,-6.1719,-6.1637,-6.1636,-6.1719,-6.1637,-6.1792,-6.2226,-6.3555,-6.4297,-6.4297,-6.5351,-6.5156,-6.3789,-6.3437,-6.2695,-6.1719,-6.1719,-6.1719,-6.1719,-6.1719,-6.1719,-6.1758,-6.2265,-6.2773,-6.3398,-6.4609,-6.5078,-6.5117,-6.5469,-6.5586,-6.5469,-7.663,-7.5784,-7.5899,-7.8746,-7.8284,-7.8323,-8.0746,-8.1161,-8.1244,-8.1458,-8.164,-8.185,-8.1984,-8.2175,-8.2031,-8.1445,-8.1133,-8.0468,-7.9212,-7.8944,-7.8163,-7.6595,-7.6366,-7.57,-7.4421,-7.2918,-7.1336,-6.9658,-6.753,-6.5835,-6.4589,-6.3397,-6.2704,-6.2512,-6.3589,-6.4282,-6.4628,-6.4859,-6.532,-6.5897,-6.6167,-6.6244,-6.6282,-6.6551,-6.6474,-6.6244,-6.6244,-6.609,-6.5897,-6.5897,-6.5897,-6.5897,-6.5897,-6.5282,-6.4782,-6.5628,-6.5282,-6.4782,-6.5667,-6.5951,-6.6119,-6.6327,-6.6468,-6.6606,-6.6833,-6.6914,-6.6914,-6.6914,-6.6914,-6.6914,-6.6914,-6.6914,-6.6914,-6.6914,-6.6914,-6.6914,-6.6914,-6.5937,-6.5,-6.4375,-6.3281,-6.2383,-6.1758,-6.1719,-6.1719,-6.1719,-6.1719,-6.1719,-6.1719,-6.1677,-6.1752,-6.2025,-6.3471,-6.4252,-6.4252,-6.5507,-6.539,-6.3906,-6.3672,-6.289,-6.1719,-6.1719,-6.1836,-6.207,-6.207,-6.2226,-6.25,-6.3125,-6.375,-6.4375,-6.5273,-6.5586,-6.5625,-6.5898,-6.5976,-6.5898,-7.813,-7.8438,-7.8977,-8.0746,-8.1054,-8.1054,-8.1093,-8.1271,-8.1469,-8.1648,-8.1873,-8.1988,-8.1992,-8.2175,-8.2304,-8.2304,-8.1484,-8.0892,-8.0669,-8.0067,-7.9212,-7.8129,-7.7489,-7.6367,-7.4648,-7.3525,-7.1647,-6.8897,-6.7881,-6.6415,-6.4589,-6.4589,-6.4128,-6.3346,-6.5089,-6.5397,-6.4666,-6.5513,-6.5897,-6.5974,-6.6782,-6.709,-6.7167,-6.8052,-6.7859,-6.709,-6.709,-6.6551,-6.5897,-6.5897,-6.5897,-6.5897,-6.5897,-6.5282,-6.4782,-6.5628,-6.5282,-6.4782,-6.5667,-6.591,-6.5978,-6.6337,-6.6387,-6.6473,-6.683,-6.6914,-6.6914,-6.6914,-6.6914,-6.6914,-6.6914,-6.6914,-6.6914,-6.6914,-6.6914,-6.6914,-6.6914,-6.539,-6.4297,-6.4297,-6.2773,-6.1719,-6.1719,-6.1719,-6.1719,-6.1719,-6.1719,-6.1719,-6.1719,-6.1579,-6.1894,-6.2746,-6.3653,-6.4082,-6.4115,-6.425,-6.3906,-6.3008,-6.2148,-6.1719,-6.1719,-6.1719,-6.2187,-6.2969,-6.2969,-6.3476,-6.4258,-6.4297,-6.4297,-6.4375,-6.5273,-6.5586,-6.5703,-6.6562,-6.6875,-6.6875,-8.0169,-8.0285,-8.0439,-8.1016,-8.1093,-8.1093,-8.1093,-8.1271,-8.148,-8.1656,-8.1873,-8.2056,-8.2176,-8.2264,-8.2304,-8.2304,-8.2031,-8.1555,-8.0747,-8.0495,-7.9885,-7.8845,-7.8152,-7.7539,-7.6993,-7.5063,-7.3273,-7.155,-7.0042,-6.7986,-6.5513,-6.6051,-6.5551,-6.4243,-6.5397,-6.5743,-6.5513,-6.5782,-6.5897,-6.5897,-6.6167,-6.6282,-6.632,-6.659,-6.6513,-6.6282,-6.6282,-6.6128,-6.5897,-6.5897,-6.5897,-6.5897,-6.5897,-6.5282,-6.4782,-6.5628,-6.5282,-6.4782,-6.5667,-6.5897,-6.597,-6.6146,-6.6298,-6.6441,-6.6631,-6.679,-6.6914,-6.6914,-6.6914,-6.6914,-6.6914,-6.6914,-6.6914,-6.6914,-6.6914,-6.6914,-6.6914,-6.5898,-6.4961,-6.4375,-6.3828,-6.3242,-6.2656,-6.2578,-6.2578,-6.2578,-6.2031,-6.1719,-6.1719,-6.2121,-6.2512,-6.2785,-6.4193,-6.4938,-6.4935,-6.5109,-6.4765,-6.3867,-6.3008,-6.2578,-6.2578,-6.2578,-6.3047,-6.3906,-6.3906,-6.3711,-6.3515,-6.4687,-6.4844,-6.4453,-6.5898,-6.6484,-6.6523,-6.6797,-6.6914,-6.6914,-8.1093,-8.1093,-8.11,-8.121,-8.12,-8.1256,-8.1311,-8.1512,-8.1687,-8.1812,-8.1984,-8.217,-8.2304,-8.2304,-8.2304,-8.2304,-8.2304,-8.194,-8.1114,-8.1148,-8.0664,-7.9532,-7.8825,-7.8233,-7.7649,-7.5804,-7.4203,-7.2789,-7.0921,-6.8914,-6.6859,-6.7359,-6.6859,-6.5551,-6.609,-6.6167,-6.5897,-6.5897,-6.5897,-6.5936,-6.6244,-6.6359,-6.6397,-6.709,-6.6898,-6.6397,-6.6705,-6.6436,-6.5897,-6.5897,-6.5897,-6.5897,-6.5897,-6.5513,-6.5205,-6.5743,-6.5513,-6.5205,-6.5743,-6.5897,-6.5946,-6.6079,-6.6244,-6.6446,-6.6675,-6.6791,-6.6914,-6.6914,-6.6914,-6.6914,-6.6914,-6.6914,-6.6914,-6.6914,-6.6914,-6.6797,-6.6445,-6.5664,-6.4922,-6.4375,-6.4023,-6.3711,-6.3515,-6.3203,-6.3008,-6.3008,-6.2187,-6.1679,-6.1632,-6.2317,-6.2825,-6.3086,-6.4416,-6.5143,-6.523,-6.5084,-6.4605,-6.3789,-6.293,-6.2695,-6.3008,-6.3008,-6.3633,-6.4805,-6.4805,-6.4687,-6.4531,-6.5625,-6.5781,-6.5351,-6.6094,-6.6601,-6.6875,-6.6523,-6.6601,-6.6914,-8.1093,-8.1108,-8.1181,-8.1359,-8.143,-8.1491,-8.1656,-8.1873,-8.1992,-8.1992,-8.2173,-8.2304,-8.2304,-8.2304,-8.2304,-8.2304,-8.2304,-8.2122,-8.171,-8.1873,-8.1422,-8.0222,-7.9465,-7.8429,-7.7077,-7.5872,-7.4467,-7.2794,-7.0761,-6.936,-6.8513,-6.8436,-6.7936,-6.709,-6.7051,-6.659,-6.5897,-6.5897,-6.5936,-6.6051,-6.6782,-6.7128,-6.7359,-6.8975,-6.8552,-6.7205,-6.8013,-6.7282,-6.5897,-6.5897,-6.5897,-6.5897,-6.5897,-6.5897,-6.5897,-6.5897,-6.5897,-6.5897,-6.5897,-6.5897,-6.5933,-6.6059,-6.6236,-6.6507,-6.683,-6.6914,-6.6914,-6.6914,-6.6914,-6.6914,-6.6914,-6.6914,-6.6914,-6.6914,-6.6836,-6.6523,-6.5703,-6.4805,-6.4219,-6.4297,-6.3594,-6.3437,-6.4297,-6.3672,-6.3164,-6.3086,-6.2265,-6.1712,-6.1576,-6.2211,-6.291,-6.3583,-6.4444,-6.4946,-6.509,-6.4454,-6.3681,-6.289,-6.2109,-6.2187,-6.3086,-6.3086,-6.4023,-6.5703,-6.5703,-6.6133,-6.6797,-6.6875,-6.6875,-6.6719,-6.5937,-6.6133,-6.6797,-6.5937,-6.6133,-6.6914,-8.1093,-8.1214,-8.1361,-8.1395,-8.1514,-8.1662,-8.168,-8.1873,-8.1992,-8.1992,-8.2173,-8.2304,-8.2304,-8.2304,-8.2304,-8.2304,-8.2304,-8.2122,-8.171,-8.1725,-8.1522,-8.0873,-7.9594,-7.8698,-7.837,-7.6357,-7.4397,-7.2551,-7.126,-7.0206,-6.9398,-6.8706,-6.7936,-6.7051,-6.6436,-6.609,-6.5897,-6.5897,-6.6244,-6.6821,-6.7013,-6.7513,-6.8129,-6.8552,-6.8052,-6.7128,-6.7321,-6.6744,-6.5897,-6.5897,-6.5897,-6.5897,-6.5897,-6.5897,-6.5897,-6.5897,-6.5897,-6.5897,-6.5897,-6.5897,-6.5923,-6.5958,-6.6194,-6.6507,-6.683,-6.6914,-6.6914,-6.6914,-6.6914,-6.6914,-6.6914,-6.6914,-6.6914,-6.6914,-6.6328,-6.5859,-6.5625,-6.4297,-6.3555,-6.4219,-6.4101,-6.4336,-6.5195,-6.5117,-6.4726,-6.4023,-6.3164,-6.2562,-6.2279,-6.3046,-6.3524,-6.3583,-6.5015,-6.5558,-6.509,-6.4454,-6.3408,-6.1992,-6.1797,-6.25,-6.3984,-6.3984,-6.4922,-6.6601,-6.6601,-6.6328,-6.5976,-6.664,-6.6523,-6.5898,-6.5664,-6.6133,-6.6797,-6.5937,-6.6133,-6.6914,-8.1093,-8.1258,-8.1414,-8.1504,-8.1688,-8.1873,-8.1971,-8.2062,-8.2125,-8.2125,-8.2222,-8.2304,-8.2304,-8.2304,-8.2304,-8.2304,-8.2304,-8.2122,-8.171,-8.1688,-8.1504,-8.1124,-7.9938,-7.9108,-7.8789,-7.7119,-7.5155,-7.2942,-7.1569,-7.0667,-7.0244,-6.9398,-6.8744,-6.8244,-6.7013,-6.6436,-6.6436,-6.6436,-6.6705,-6.709,-6.709,-6.7628,-6.8385,-6.8385,-6.7859,-6.7128,-6.7552,-6.6936,-6.5897,-6.5897,-6.5897,-6.5897,-6.5897,-6.5897,-6.5897,-6.5897,-6.5897,-6.5897,-6.5897,-6.5897,-6.5897,-6.5963,-6.6191,-6.6452,-6.6727,-6.6833,-6.6914,-6.6914,-6.6914,-6.6914,-6.6914,-6.6914,-6.6914,-6.6914,-6.6172,-6.5469,-6.5078,-6.418,-6.3789,-6.4258,-6.4648,-6.5234,-6.6094,-6.582,-6.539,-6.4922,-6.4101,-6.3455,-6.313,-6.3923,-6.4303,-6.4072,-6.4949,-6.5296,-6.509,-6.4109,-6.3155,-6.2305,-6.2305,-6.3008,-6.4297,-6.4726,-6.5625,-6.6914,-6.6914,-6.664,-6.6211,-6.6719,-6.6601,-6.6133,-6.5742,-6.6133,-6.6797,-6.5937,-6.6406,-6.7422,-8.1093,-8.1298,-8.1522,-8.1656,-8.1889,-8.2115,-8.2265,-8.2304,-8.2304,-8.2304,-8.2304,-8.2304,-8.2304,-8.2304,-8.2304,-8.2304,-8.2304,-8.2122,-8.171,-8.1688,-8.1465,-8.0931,-8.0054,-7.9278,-7.8602,-7.7379,-7.5592,-7.3322,-7.1706,-7.0898,-7.0898,-6.9937,-6.9513,-6.9436,-6.7705,-6.6974,-6.709,-6.6974,-6.7051,-6.7282,-6.7128,-6.7705,-6.859,-6.859,-6.8052,-6.7398,-6.8282,-6.7513,-6.609,-6.6244,-6.6205,-6.609,-6.609,-6.609,-6.6051,-6.5936,-6.5974,-6.6051,-6.5936,-6.5897,-6.5946,-6.6079,-6.6244,-6.6429,-6.6557,-6.6743,-6.6914,-6.6914,-6.6914,-6.6953,-6.707,-6.6992,-6.6953,-6.707,-6.6133,-6.5156,-6.4414,-6.418,-6.414,-6.4297,-6.5078,-6.5937,-6.6836,-6.6211,-6.5742,-6.5625,-6.4922,-6.4356,-6.4021,-6.4744,-6.5056,-6.4871,-6.4831,-6.4876,-6.509,-6.3837,-6.3203,-6.3203,-6.3047,-6.3515,-6.4531,-6.5117,-6.5937,-6.6914,-6.6914,-6.6914,-6.6914,-6.6914,-6.6914,-6.6797,-6.5937,-6.6133,-6.6797,-6.5937,-6.6719,-6.8086,-8.1093,-8.1407,-8.1648,-8.168,-8.1996,-8.2264,-8.2304,-8.2304,-8.2304,-8.2304,-8.2304,-8.2304,-8.2304,-8.2304,-8.2304,-8.2304,-8.2304,-8.2122,-8.171,-8.1688,-8.1203,-8.0046,-7.9169,-7.8314,-7.7564,-7.5274,-7.3553,-7.2399,-7.1398,-7.0898,-7.086,-6.9321,-6.859,-6.8552,-6.6821,-6.6436,-6.7051,-6.6359,-6.6898,-6.8129,-6.7398,-6.8052,-6.9513,-6.9513,-6.8975,-6.8321,-6.9206,-6.8398,-6.7013,-6.7782,-6.7513,-6.6898,-6.6898,-6.6898,-6.6782,-6.609,-6.6359,-6.6782,-6.609,-6.5897,-6.5946,-6.6079,-6.6244,-6.6429,-6.6557,-6.6743,-6.6914,-6.6914,-6.6914,-6.7109,-6.7851,-6.7383,-6.7148,-6.789,-6.6015,-6.4453,-6.4336,-6.3672,-6.3476,-6.4219,-6.5078,-6.5937,-6.6836,-6.6797,-6.6406,-6.5664,-6.5469,-6.5305,-6.5078,-6.5188,-6.5519,-6.6118,-6.587,-6.5494,-6.509,-6.4423,-6.4101,-6.4101,-6.3359,-6.3828,-6.539,-6.4765,-6.539,-6.6914,-6.6914,-6.6914,-6.6914,-6.6914,-6.6914,-6.6797,-6.5937,-6.6133,-6.6797,-6.5937,-6.6719,-6.8164,-8.1403,-8.1679,-8.1867,-8.1867,-8.2115,-8.2264,-8.217,-8.2125,-8.2113,-8.1988,-8.2065,-8.2125,-8.2125,-8.2222,-8.2304,-8.2304,-8.2304,-8.2122,-8.171,-8.1688,-8.1126,-7.9854,-7.94,-7.8361,-7.663,-7.4553,-7.3091,-7.2206,-7.1321,-7.0898,-7.086,-6.9667,-6.909,-6.9052,-6.7321,-6.6744,-6.709,-6.6705,-6.6974,-6.7667,-6.7244,-6.8129,-6.9667,-6.9167,-6.9052,-6.909,-6.9013,-6.8475,-6.7782,-6.7705,-6.7744,-6.7782,-6.7782,-6.7782,-6.7628,-6.6782,-6.6513,-6.6359,-6.6013,-6.5897,-6.5897,-6.5963,-6.62,-6.6406,-6.6478,-6.6683,-6.6914,-6.6914,-6.7265,-6.7734,-6.8125,-6.7851,-6.7734,-6.8125,-6.6015,-6.4453,-6.4922,-6.4258,-6.4023,-6.4883,-6.5781,-6.6445,-6.6875,-6.6914,-6.6719,-6.6328,-6.6289,-6.6205,-6.5995,-6.5992,-6.61,-6.6393,-6.632,-6.594,-6.526,-6.5103,-6.5,-6.5,-6.4609,-6.4805,-6.5586,-6.5664,-6.6133,-6.6914,-6.7383,-6.7344,-6.6953,-6.7422,-6.7305,-6.6914,-6.6953,-6.7265,-6.7617,-6.7695,-6.8476,-6.9492,-8.1688,-8.1837,-8.1914,-8.1914,-8.2059,-8.2118,-8.1967,-8.1914,-8.1873,-8.1703,-8.1844,-8.1914,-8.1914,-8.2118,-8.2222,-8.2222,-8.2222,-8.2068,-8.171,-8.1484,-8.0782,-7.9546,-7.9131,-7.7823,-7.5476,-7.4168,-7.2976,-7.1898,-7.1245,-7.0898,-7.0898,-6.986,-6.9398,-6.9321,-6.759,-6.7051,-6.7359,-6.6974,-6.7051,-6.7359,-6.6974,-6.7744,-6.9052,-6.859,-6.8821,-6.936,-6.909,-6.8859,-6.8629,-6.8129,-6.8282,-6.8706,-6.8706,-6.8706,-6.8552,-6.7667,-6.6974,-6.6436,-6.6244,-6.6167,-6.6128,-6.5936,-6.6148,-6.6387,-6.6387,-6.6661,-6.6914,-6.6914,-6.7578,-6.8203,-6.8203,-6.8203,-6.8203,-6.8203,-6.6172,-6.4844,-6.5508,-6.5039,-6.4844,-6.5508,-6.6367,-6.6914,-6.6914,-6.6914,-6.6914,-6.6914,-6.7109,-6.7145,-6.6998,-6.7151,-6.7123,-6.6849,-6.667,-6.6307,-6.5686,-6.5814,-6.5898,-6.5898,-6.5703,-6.5703,-6.5937,-6.6406,-6.6836,-6.7226,-6.789,-6.793,-6.7539,-6.8203,-6.8086,-6.7539,-6.8242,-6.8476,-6.8555,-6.9258,-7.0,-7.0586,-8.1688,-8.1695,-8.1703,-8.1703,-8.1718,-8.1725,-8.171,-8.1703,-8.1703,-8.1688,-8.1695,-8.1703,-8.1703,-8.1894,-8.2003,-8.2003,-8.2003,-8.1914,-8.1695,-8.0776,-7.9751,-7.8661,-7.7092,-7.5476,-7.3745,-7.3553,-7.2668,-7.1014,-7.0937,-7.0898,-7.086,-6.9244,-6.8513,-6.8436,-6.6744,-6.6859,-6.8205,-6.6667,-6.6898,-6.8167,-6.659,-6.6513,-6.7359,-6.8129,-6.8423,-6.8706,-7.0167,-7.0244,-6.9706,-7.0398,-7.0167,-6.959,-6.959,-6.959,-6.9436,-6.8552,-6.8282,-6.8052,-6.7244,-6.7013,-6.6821,-6.609,-6.6148,-6.6387,-6.6387,-6.6661,-6.6914,-6.6914,-6.7578,-6.8203,-6.8203,-6.8203,-6.8203,-6.8203,-6.668,-6.5547,-6.5586,-6.5547,-6.5547,-6.5586,-6.6367,-6.6914,-6.6914,-6.6914,-6.6914,-6.6914,-6.7656,-6.8086,-6.8085,-6.8789,-6.8866,-6.8084,-6.7117,-6.6577,-6.6499,-6.6712,-6.6797,-6.6797,-6.5976,-6.6015,-6.6797,-6.6015,-6.6562,-6.8125,-6.8164,-6.8594,-6.9219,-6.9336,-6.9336,-6.9219,-6.9336,-6.9375,-6.9336,-6.9453,-7.0,-7.0703,-8.2065,-8.1976,-8.1883,-8.1883,-8.176,-8.1679,-8.1524,-8.1494,-8.1469,-8.1361,-8.1425,-8.1494,-8.1494,-8.1672,-8.1597,-8.1052,-8.1013,-8.0706,-7.9932,-7.9509,-7.8836,-7.7814,-7.6092,-7.4668,-7.3514,-7.2976,-7.2091,-7.0898,-7.0898,-7.0898,-7.0898,-7.0244,-6.9667,-6.9167,-6.8552,-6.8013,-6.7552,-6.6898,-6.6705,-6.6859,-6.6705,-6.7167,-6.8013,-6.8859,-6.9513,-6.9975,-7.0129,-7.0283,-7.0398,-7.0206,-7.0283,-7.0437,-7.0437,-7.0437,-7.0398,-7.0052,-6.959,-6.913,-6.8888,-6.7984,-6.6898,-6.609,-6.6148,-6.6387,-6.6387,-6.6661,-6.7031,-6.7578,-6.8359,-6.9101,-6.9648,-6.9765,-6.9609,-6.9101,-6.7539,-6.6406,-6.6406,-6.5937,-6.6015,-6.707,-6.7031,-6.7305,-6.8359,-6.75,-6.7109,-6.7656,-6.8008,-6.8203,-6.8203,-6.8945,-6.9023,-6.8242,-6.8277,-6.7842,-6.6788,-6.6874,-6.6914,-6.6914,-6.7109,-6.7383,-6.7695,-6.789,-6.832,-6.8984,-6.9531,-6.9609,-6.9453,-7.0,-6.9922,-6.9453,-7.0039,-7.0234,-7.0273,-7.0859,-7.125,-7.1523,-8.2304,-8.211,-8.1894,-8.1894,-8.1703,-8.1469,-8.1324,-8.1298,-8.1244,-8.1124,-8.1214,-8.1221,-8.095,-8.1075,-8.0841,-7.9956,-7.9917,-7.9573,-7.8834,-7.8498,-7.8026,-7.7337,-7.563,-7.4322,-7.3514,-7.2629,-7.1783,-7.0898,-7.0898,-7.0898,-7.0898,-7.0629,-7.0244,-6.9706,-6.9398,-6.8783,-6.7859,-6.7321,-6.6936,-6.6705,-6.6974,-6.7475,-6.8129,-6.9244,-7.0052,-7.0475,-7.0167,-7.0437,-7.0821,-7.0244,-7.0437,-7.0898,-7.0898,-7.0898,-7.0898,-7.0898,-7.0555,-7.0141,-6.9969,-6.903,-6.7813,-6.6669,-6.6622,-6.6802,-6.6477,-6.6661,-6.7148,-6.8008,-6.8828,-6.9609,-7.0195,-7.0547,-7.043,-6.9648,-6.8281,-6.7305,-6.7305,-6.6797,-6.6875,-6.8047,-6.789,-6.8047,-6.8945,-6.8203,-6.7812,-6.8164,-6.8672,-6.9101,-6.9375,-6.9922,-6.9844,-6.9023,-6.9531,-6.914,-6.7734,-6.7695,-6.7578,-6.7305,-6.8164,-6.8594,-6.8594,-6.918,-6.957,-6.9844,-7.043,-7.0508,-7.0273,-7.0859,-7.0742,-7.0273,-7.0859,-7.1094,-7.1172,-7.1797,-7.2187,-7.2383,-8.2304,-8.1941,-8.168,-8.168,-8.1359,-8.1093,-8.1093,-8.1093,-8.1093,-8.1093,-8.1093,-8.0746,-7.99,-7.9971,-7.9741,-7.8851,-7.8773,-7.8773,-7.8784,-7.7844,-7.7284,-7.7284,-7.563,-7.4322,-7.3514,-7.2629,-7.1783,-7.0898,-7.0898,-7.0898,-7.0898,-7.009,-6.9706,-6.9667,-6.8821,-6.8898,-6.959,-6.7859,-6.7628,-6.8321,-6.7475,-6.7128,-6.7321,-6.9052,-6.9706,-6.9821,-7.0591,-7.0898,-7.0898,-7.0898,-7.0898,-7.0898,-7.0898,-7.0898,-7.0898,-7.0898,-7.1026,-7.1028,-7.0137,-7.0058,-6.9745,-6.7859,-6.7645,-6.7649,-6.6624,-6.6661,-6.7148,-6.8047,-6.8867,-6.9414,-6.9492,-7.0156,-7.0469,-6.9648,-6.8789,-6.8203,-6.8203,-6.8203,-6.8203,-6.8203,-6.8906,-6.9101,-6.832,-6.8945,-6.9062,-6.8281,-6.9765,-7.1094,-7.1953,-7.1992,-7.1601,-7.0742,-7.0703,-7.0312,-6.9492,-6.9414,-6.8984,-6.8203,-6.9023,-6.9414,-6.9414,-6.9492,-6.9961,-7.0703,-7.0742,-7.1211,-7.1992,-7.2031,-7.2031,-7.1992,-7.2031,-7.2031,-7.2031,-7.2031,-7.2578,-7.3203,-8.1063,-8.0981,-8.0931,-8.1416,-8.1271,-8.1093,-8.1093,-8.0592,-8.0208,-8.0208,-7.9669,-7.9169,-7.89,-7.8941,-7.8665,-7.7817,-7.7726,-7.7494,-7.6878,-7.6549,-7.6399,-7.6399,-7.4745,-7.3745,-7.3514,-7.2052,-7.1168,-7.0898,-7.0898,-7.0898,-7.0898,-7.0667,-7.0552,-7.0514,-7.0283,-6.9975,-6.9667,-6.9167,-6.8706,-6.8436,-6.8783,-6.8936,-6.9052,-7.0129,-7.0552,-7.0552,-7.0821,-7.0898,-7.0898,-7.0898,-7.0898,-7.0898,-7.0898,-7.0898,-7.0952,-7.1062,-7.1148,-7.1184,-7.1174,-7.1229,-7.0683,-6.8235,-6.7764,-6.7666,-6.6736,-6.7201,-6.8047,-6.8867,-6.9726,-7.0508,-7.1133,-7.1445,-7.1328,-7.0469,-7.0117,-6.9765,-6.918,-6.9101,-6.9336,-6.9883,-6.9648,-6.9805,-7.0781,-7.0039,-6.9609,-6.9922,-7.043,-7.1094,-7.1953,-7.1992,-7.1601,-7.0742,-7.1289,-7.0898,-6.9453,-6.9414,-6.9297,-6.9101,-6.9922,-7.0312,-7.0351,-7.1601,-7.2305,-7.2578,-7.3164,-7.3242,-7.2969,-7.3555,-7.3476,-7.2969,-7.3594,-7.3828,-7.3828,-7.3828,-7.3984,-7.418,-8.0137,-8.0012,-8.009,-8.0766,-8.0431,-8.0169,-8.0516,-7.9862,-7.9285,-7.9285,-7.8823,-7.8421,-7.8177,-7.8065,-7.7742,-7.6957,-7.6833,-7.6553,-7.6015,-7.6015,-7.6015,-7.6015,-7.4707,-7.3822,-7.3514,-7.1783,-7.0898,-7.0898,-7.0898,-7.0898,-7.0898,-7.0898,-7.0898,-7.0898,-7.0898,-7.0629,-7.0167,-6.986,-6.9398,-6.8975,-6.9475,-6.9706,-6.9783,-7.0591,-7.0898,-7.0898,-7.0898,-7.0898,-7.0898,-7.0898,-7.0898,-7.0898,-7.0898,-7.0898,-7.0927,-7.1137,-7.1252,-7.1373,-7.1647,-7.1753,-7.1336,-6.9377,-6.87,-6.8293,-6.7328,-6.7681,-6.8437,-6.9258,-7.0117,-7.0976,-7.1836,-7.1992,-7.1836,-7.1289,-7.0937,-7.0547,-7.0039,-6.9961,-7.0156,-7.0625,-7.0547,-7.0703,-7.1406,-7.0898,-7.0703,-7.1172,-7.1211,-7.1445,-7.1953,-7.1992,-7.1758,-7.1211,-7.1719,-7.164,-7.0937,-7.0586,-7.0273,-7.0,-7.1172,-7.1719,-7.1797,-7.3164,-7.3828,-7.3828,-7.4375,-7.4297,-7.3867,-7.4375,-7.4297,-7.3867,-7.4375,-7.4609,-7.4609,-7.4609,-7.4805,-7.5078,-7.931,-7.911,-7.9195,-7.9842,-7.9144,-7.8746,-7.9554,-7.8938,-7.84,-7.84,-7.8329,-7.8073,-7.7531,-7.7331,-7.6968,-7.6316,-7.6095,-7.6015,-7.6015,-7.6015,-7.5976,-7.5899,-7.5053,-7.4207,-7.3399,-7.1898,-7.1091,-7.1014,-7.1014,-7.0975,-7.0898,-7.0898,-7.0898,-7.0898,-7.0898,-7.0898,-7.086,-7.0129,-6.9821,-6.9821,-6.9821,-6.9821,-6.9898,-7.0629,-7.0898,-7.0898,-7.0898,-7.0898,-7.0898,-7.0898,-7.0898,-7.0898,-7.0939,-7.0952,-7.0979,-7.1162,-7.1365,-7.1543,-7.1679,-7.1861,-7.1797,-7.0937,-7.0078,-6.9217,-6.8166,-6.8074,-6.8437,-6.9297,-7.0156,-7.0976,-7.1836,-7.1992,-7.1992,-7.1992,-7.1328,-7.082,-7.082,-7.082,-7.082,-7.082,-7.1523,-7.168,-7.0898,-7.1601,-7.2148,-7.2226,-7.2226,-7.2187,-7.2109,-7.2109,-7.207,-7.1992,-7.207,-7.25,-7.3281,-7.2578,-7.1836,-7.1055,-7.2578,-7.3359,-7.3437,-7.4336,-7.4726,-7.4726,-7.4805,-7.4805,-7.4726,-7.4805,-7.4805,-7.4726,-7.4805,-7.4844,-7.4844,-7.4844,-7.5312,-7.5898,-7.8096,-7.8122,-7.8241,-7.8758,-7.8652,-7.8554,-7.8746,-7.8092,-7.7553,-7.7553,-7.7112,-7.6673,-7.6388,-7.643,-7.6391,-7.6079,-7.602,-7.6015,-7.6015,-7.6015,-7.5707,-7.5014,-7.4207,-7.336,-7.2514,-7.2783,-7.2591,-7.1898,-7.1898,-7.1552,-7.0898,-7.0898,-7.0898,-7.0898,-7.0898,-7.0898,-7.0898,-7.0706,-7.0629,-7.0629,-7.0629,-7.0629,-7.0667,-7.0821,-7.0898,-7.0898,-7.0898,-7.0898,-7.0898,-7.0898,-7.0898,-7.0952,-7.1085,-7.1126,-7.1193,-7.1504,-7.1638,-7.1718,-7.1864,-7.1952,-7.1797,-7.0937,-7.0078,-6.9219,-6.8318,-6.8163,-6.8437,-6.9258,-7.0117,-7.0976,-7.1836,-7.1992,-7.1992,-7.1992,-7.1836,-7.1719,-7.1719,-7.1719,-7.1719,-7.1719,-7.1875,-7.1914,-7.1758,-7.25,-7.3281,-7.3984,-7.4023,-7.375,-7.3047,-7.3008,-7.2695,-7.2031,-7.2656,-7.3125,-7.3281,-7.3789,-7.3945,-7.375,-7.3437,-7.3672,-7.4336,-7.5234,-7.5625,-7.5664,-7.6328,-7.625,-7.5664,-7.6367,-7.6211,-7.5703,-7.6367,-7.664,-7.664,-7.664,-7.6758,-7.6797,-7.7215,-7.7157,-7.7271,-7.781,-7.7592,-7.7438,-7.7861,-7.7207,-7.6669,-7.6669,-7.6376,-7.6147,-7.6122,-7.6135,-7.6108,-7.5991,-7.563,-7.5399,-7.5399,-7.5014,-7.4591,-7.4168,-7.3745,-7.3283,-7.2822,-7.3283,-7.286,-7.1591,-7.1591,-7.136,-7.0898,-7.0898,-7.0898,-7.0898,-7.0898,-7.0898,-7.0898,-7.0898,-7.0898,-7.0898,-7.0898,-7.0898,-7.0898,-7.0898,-7.0898,-7.0898,-7.0898,-7.0898,-7.0898,-7.0898,-7.0898,-7.0927,-7.1126,-7.1221,-7.128,-7.159,-7.1689,-7.1747,-7.1951,-7.1992,-7.1875,-7.1445,-7.039,-6.9219,-6.8398,-6.8515,-6.8906,-6.9336,-7.0469,-7.1445,-7.1914,-7.1992,-7.1992,-7.1992,-7.1992,-7.2148,-7.2578,-7.2617,-7.2773,-7.3203,-7.3242,-7.3242,-7.3242,-7.3633,-7.4101,-7.457,-7.4609,-7.4414,-7.3945,-7.3906,-7.3711,-7.3242,-7.3672,-7.4101,-7.4531,-7.457,-7.5039,-7.582,-7.4961,-7.4765,-7.5234,-7.6133,-7.6523,-7.6562,-7.6992,-7.7187,-7.7187,-7.7617,-7.7773,-7.7734,-7.7773,-7.7812,-7.7773,-7.7344,-7.7187,-7.7148,-7.6657,-7.6448,-7.6475,-7.6972,-7.6476,-7.6245,-7.6976,-7.6476,-7.6015,-7.6015,-7.6034,-7.6081,-7.6231,-7.5966,-7.5784,-7.5784,-7.513,-7.4707,-7.4707,-7.4207,-7.386,-7.3692,-7.3591,-7.3437,-7.3283,-7.3129,-7.2437,-7.1129,-7.1129,-7.1052,-7.0898,-7.0898,-7.0898,-7.0898,-7.0898,-7.0898,-7.0898,-7.0898,-7.0898,-7.0898,-7.0898,-7.0898,-7.0898,-7.0898,-7.0898,-7.0898,-7.0898,-7.0898,-7.0898,-7.0898,-7.09,-7.0966,-7.1201,-7.128,-7.1395,-7.1858,-7.1867,-7.1802,-7.2147,-7.2109,-7.1953,-7.1836,-7.0742,-6.9492,-6.8633,-6.8828,-6.9297,-6.9648,-7.082,-7.1836,-7.1953,-7.2109,-7.2226,-7.2226,-7.2344,-7.2695,-7.3437,-7.3515,-7.3789,-7.4492,-7.4609,-7.4648,-7.4805,-7.4805,-7.4883,-7.5039,-7.5039,-7.4961,-7.4844,-7.4805,-7.4765,-7.4609,-7.4726,-7.5156,-7.5898,-7.5312,-7.5859,-7.7422,-7.6523,-7.6133,-7.6133,-7.7031,-7.7344,-7.7226,-7.7344,-7.7812,-7.8515,-7.8515,-7.8906,-7.9414,-7.875,-7.8398,-7.8203,-7.7461,-7.7187,-7.7187,-7.6657,-7.6448,-7.6281,-7.6202,-7.6092,-7.6053,-7.6169,-7.6092,-7.6015,-7.6015,-7.6135,-7.6183,-7.6052,-7.5351,-7.4899,-7.4899,-7.4784,-7.4707,-7.4707,-7.5284,-7.5322,-7.4591,-7.386,-7.3168,-7.2399,-7.1629,-7.1514,-7.2014,-7.2014,-7.1629,-7.0898,-7.0898,-7.0898,-7.0898,-7.0898,-7.0898,-7.0898,-7.0898,-7.0898,-7.0898,-7.0898,-7.0898,-7.0898,-7.0898,-7.0898,-7.0898,-7.0898,-7.0898,-7.0898,-7.0898,-7.1016,-7.1172,-7.142,-7.1549,-7.1831,-7.2804,-7.2538,-7.2147,-7.289,-7.2578,-7.1836,-7.1055,-7.0703,-7.0312,-6.9492,-6.8828,-6.8789,-7.0234,-7.0703,-7.1094,-7.1875,-7.2617,-7.3125,-7.3125,-7.375,-7.4297,-7.4414,-7.4414,-7.4453,-7.4609,-7.4609,-7.4883,-7.5664,-7.5703,-7.6055,-7.6797,-7.6836,-7.6523,-7.5742,-7.5703,-7.539,-7.4609,-7.5312,-7.5781,-7.5898,-7.6523,-7.7344,-7.832,-7.7422,-7.7031,-7.7031,-7.793,-7.789,-7.7226,-7.8008,-7.8398,-7.8515,-7.8515,-7.8555,-7.8633,-7.8555,-7.8047,-7.7344,-7.7226,-7.7187,-7.7187,-7.6484,-7.625,-7.6095,-7.6005,-7.5592,-7.5438,-7.5938,-7.5592,-7.5284,-7.5284,-7.5347,-7.5195,-7.4644,-7.4245,-7.4053,-7.4053,-7.3591,-7.3514,-7.4014,-7.3476,-7.3206,-7.3283,-7.2514,-7.186,-7.1475,-7.1091,-7.1091,-7.1475,-7.1475,-7.1283,-7.0898,-7.0898,-7.0898,-7.0898,-7.0898,-7.0898,-7.0898,-7.0898,-7.0898,-7.0898,-7.0898,-7.0898,-7.0898,-7.0898,-7.0898,-7.0898,-7.0898,-7.0898,-7.0898,-7.0898,-7.1053,-7.1223,-7.1459,-7.1594,-7.1825,-7.2419,-7.2305,-7.207,-7.2461,-7.2305,-7.1914,-7.1523,-7.1055,-7.0742,-7.0859,-7.0234,-6.9805,-7.0547,-7.1094,-7.168,-7.2578,-7.3047,-7.3476,-7.3945,-7.4336,-7.4765,-7.5273,-7.5312,-7.5508,-7.5976,-7.6055,-7.6211,-7.6601,-7.664,-7.6797,-7.7187,-7.7187,-7.7031,-7.664,-7.664,-7.6445,-7.6055,-7.6445,-7.6875,-7.7344,-7.7734,-7.8359,-7.918,-7.8789,-7.8594,-7.8594,-7.8515,-7.8555,-7.8633,-7.8984,-7.9453,-7.9883,-7.9883,-8.0195,-8.0547,-7.9531,-7.8359,-7.7187,-7.7187,-7.7187,-7.7187]},{"header":{"parameterUnit":"m.s-1","parameterCategory":1,"la1":30.6,"la2":28.766,"lo1":-90.7593,"lo2":-88.6598,"dy":0.0162,"dx":0.0183,"nx":116,"ny":114,"refTime":"2024-05-12T18:00:00:Z","depth":0,"parameterNumber":3,"parameterNumberName":"V-component_of_WINDS"},"data":[0.0,0.0,0.0,0.0,0.0,0.0,0.0,0.0,0.0,0.0,0.0,0.0,0.0,0.0,0.0,0.0,0.0,0.0,0.0,0.0,0.0,0.0,0.0,0.0,0.0,0.0,0.0,0.0,0.0,0.0,0.0,0.0,0.0,0.0,0.0,0.0,0.0,0.0,0.0,0.0,0.0,0.0,0.0,0.0,0.0,0.0,0.0,0.0,0.0,0.0,0.0,0.0,0.0,0.0,0.0,0.0,0.0,0.0,0.0,0.0,0.0,0.0,0.0,0.0,0.0,0.0,0.0,0.0,0.0,0.0,0.0,0.0,0.0,0.0,0.0,0.0,0.0,0.0,0.0,0.0,0.0,0.0,0.0,0.0,0.0,0.0,0.0,0.0,0.0,0.0,0.0,0.0,0.0,0.0,0.0,0.0,0.0,0.0,0.0,0.0,0.0,0.0,0.0,0.0,0.0,0.0,0.0,0.0,0.0,0.0,0.0,0.0,0.0,0.0,0.0,0.0,0.0,0.0,0.0,0.0,0.0,0.0,0.0,0.0,0.0,0.0,0.0,0.0,0.0,0.0,0.0,0.0,0.0,0.0,0.0,0.0,0.0,0.0,0.0,0.0,0.0,0.0,0.0,0.0,0.0,0.0,0.0,0.0,0.0,0.0,0.0,0.0,0.0,0.0,0.0,0.0,0.0,0.0,0.0,0.0,0.0,0.0,0.0,0.0,0.0,0.0,0.0,0.0,0.0,0.0,0.0,0.0,0.0,0.0,0.0,0.0,0.0,0.0,0.0,0.0,0.0,0.0,0.0,0.0,0.0,0.0,0.0,0.0,0.0,0.0,0.0,0.0,0.0,0.0,0.0,0.0,0.0,0.0,0.0,0.0,0.0,0.0,0.0,0.0,0.0,0.0,0.0,0.0,0.0,0.0,0.0,0.0,0.0,0.0,0.0,0.0,0.0,0.0,0.0,0.0,0.0,0.0,0.0,0.0,0.0,0.0,0.0,0.0,0.0,0.0,0.0,0.0,0.0,0.0,0.0,0.0,0.0,0.0,0.0,0.0,0.0,0.0,0.0,0.0,0.0,0.0,0.0,0.0,0.0,0.0,0.0,0.0,0.0,0.0,0.0,0.0,0.0,0.0,0.0,0.0,0.0,0.0,0.0,0.0,0.0,0.0,0.0,0.0,0.0,0.0,0.0,0.0,0.0,0.0,0.0,0.0,0.0,0.0,0.0,0.0,0.0,0.0,0.0,0.0,0.0,0.0,0.0,0.0,0.0,0.0,0.0,0.0,0.0,0.0,0.0,0.0,0.0,0.0,0.0,0.0,0.0,0.0,0.0,0.0,0.0,0.0,0.0,0.0,0.0,0.0,0.0,0.0,0.0,0.0,0.0,0.0,0.0,0.0,0.0,0.0,0.0,0.0,0.0,0.0,0.0,0.0,0.0,0.0,0.0,0.0,0.0,0.0,0.0,0.0,0.0,0.0,0.0,0.0,0.0,0.0,0.0,0.0,0.0,0.0,0.0,0.0,0.0,0.0,0.0,0.0,0.0,0.0,0.0,0.0,0.0,0.0,0.0,0.0,0.0,0.0,0.0,0.0,0.0,0.0,0.0,0.0,0.0,0.0,0.0,0.0,0.0,0.0,0.0,0.0,0.0,0.0,0.0,0.0,0.0,0.0,0.0,0.0,0.0,0.0,0.0,0.0,0.0,0.0,0.0,0.0,0.0,0.0,0.0,0.0,0.0,0.0,0.0,0.0,0.0,0.0,0.0,0.0,0.0,0.0,0.0,0.0,0.0,0.0,0.0,0.0,0.0,0.0,0.0,0.0,0.0,0.0,0.0,0.0,0.0,0.0,0.0,0.0,0.0,0.0,0.0,0.0,0.0,0.0,0.0,0.0,0.0,0.0,0.0,0.0,0.0,0.0,0.0,0.0,0.0,0.0,0.0,0.0,0.0,0.0,0.0,0.0,0.0,0.0,0.0,0.0,0.0,0.0,0.0,0.0,0.0,0.0,0.0,0.0,0.0,0.0,0.0,0.0,0.0,0.0,0.0,0.0,0.0,0.0,0.0,0.0,0.0,0.0,0.0,0.0,0.0,0.0,0.0,0.0,0.0,0.0,0.0,0.0,0.0,0.0,0.0,0.0,0.0,0.0,0.0,0.0,0.0,0.0,0.0,0.0,0.0,0.0,0.0,0.0,0.0,0.0,0.0,0.0,0.0,0.0,0.0,0.0,0.0,0.0,0.0,0.0,0.0,0.0,0.0,0.0,0.0,0.0,0.0,0.0,0.0,0.0,0.0,0.0,0.0,0.0,0.0,0.0,0.0,0.0,0.0,0.0,0.0,0.0,0.0,0.0,0.0,0.0,0.0,0.0,0.0,0.0,0.0,0.0,0.0,0.0,0.0,0.0,0.0,0.0,0.0,0.0,0.0,0.0,0.0,0.0,0.0,0.0,0.0,0.0,0.0,0.0,0.0,0.0,0.0,0.0,0.0,0.0,0.0,0.0,0.0,0.0,0.0,0.0,0.0,0.0,0.0,0.0,0.0,0.0,0.0,0.0,0.0,0.0,0.0,0.0,0.0,0.0,0.0,0.0,0.0,0.0,0.0,0.0,0.0,0.0,0.0,0.0,0.0,0.0,0.0,0.0,0.0,0.0,0.0,0.0,0.0,0.0,0.0,0.0,0.0,0.0,0.0,0.0,0.0,0.0,0.0,0.0,0.0,0.0,0.0,0.0,0.0,0.0,0.0,0.0,0.0,0.0,0.0,0.0,0.0,0.0,0.0,0.0,0.0,0.0,0.0,0.0,0.0,0.0,0.0,0.0,0.0,0.0,0.0,0.0,0.0,0.0,0.0,0.0,0.0,0.0,0.0,0.0,0.0,0.0,0.0,0.0,0.0,0.0,0.0,0.0,0.0,0.0,0.0,0.0,0.0,0.0,0.0,0.0,0.0,0.0,0.0,0.0,0.0,0.0,0.0,0.0,0.0,0.0,0.0,0.0,0.0,0.0,0.0,0.0,0.0,0.0,0.0,0.0,0.0,0.0,0.0,0.0,0.0,0.0,0.0,0.0,0.0,0.0,0.0,0.0,0.0,0.0,0.0,0.0,0.0,0.0,0.0,0.0,0.0,0.0,0.0,0.0,0.0,0.0,0.0,0.0,0.0,0.0,0.0,0.0,0.0,0.0,0.0,0.0,0.0,0.0,0.0,0.0,0.0,0.0,0.0,0.0,0.0,0.0,0.0,0.0,0.0,0.0,0.0,0.0,0.0,0.0,0.0,0.0,0.0,0.0,0.0,0.0,0.0,0.0,0.0,0.0,0.0,0.0,0.0,0.0,0.0,0.0,0.0,0.0,0.0,0.0,0.0,0.0,0.0,0.0,0.0,0.0,0.0,0.0,0.0,0.0,0.0,0.0,0.0,0.0,0.0,0.0,0.0,0.0,0.0,0.0,0.0,0.0,0.0,0.0,0.0,0.0,0.0,0.0,0.0,0.0,0.0,0.0,0.0,0.0,0.0,0.0,0.0,0.0,0.0,0.0,0.0,0.0,0.0,0.0,0.0,0.0,0.0,0.0,0.0,0.0,0.0,0.0,0.0,0.0,0.0,0.0,0.0,0.0,0.0,0.0,0.0,0.0,0.0,0.0,0.0,0.0,0.0,0.0,0.0,0.0,0.0,0.0,0.0,0.0,0.0,0.0,0.0,0.0,0.0,0.0,0.0,0.0,0.0,0.0,0.0,0.0,0.0,0.0,0.0,0.0,0.0,0.0,0.0,0.0,0.0,0.0,0.0,0.0,0.0,0.0,0.0,0.0,0.0,0.0,0.0,0.0,0.0,0.0,0.0,0.0,0.0,0.0,0.0,0.0,0.0,0.0,0.0,0.0,0.0,0.0,0.0,0.0,0.0,0.0,0.0,0.0,0.0,0.0,0.0,0.0,0.0,0.0,0.0,0.0,0.0,0.0,0.0,0.0,0.0,0.0,0.0,0.0,0.0,0.0,0.0,0.0,0.0,0.0,0.0,0.0,0.0,0.0,0.0,0.0,0.0,0.0,0.0,0.0,0.0,0.0,0.0,0.0,0.0,0.0,0.0,0.0,0.0,0.0,0.0,0.0,0.0,0.0,0.0,0.0,0.0,0.0,0.0,0.0,0.0,0.0,0.0,0.0,0.0,0.0,0.0,0.0,0.0,0.0,0.0,0.0,0.0,0.0,0.0,0.0,0.0,0.0,0.0,0.0,0.0,0.0,0.0,0.0,0.0,0.0,0.0,0.0,0.0,0.0,0.0,0.0,0.0,0.0,0.0,0.0,0.0,0.0,0.0,0.0,0.0,0.0,0.0,0.0,0.0,0.0,0.0,0.0,0.0,0.0,0.0,0.0,0.0,0.0,0.0,0.0,0.0,0.0,0.0,0.0,0.0,0.0,0.0,0.0,0.0,0.0,0.0,0.0,0.0,0.0,0.0,0.0,0.0,0.0,0.0,0.0,0.0,0.0,0.0,0.0,0.0,0.0,0.0,0.0,0.0,0.0,0.0,0.0,0.0,0.0,0.0,0.0,0.0,0.0,0.0,0.0,0.0,0.0,0.0,0.0,0.0,0.0,0.0,0.0,0.0,0.0,0.0,0.0,0.0,0.0,0.0,0.0,0.0,0.0,0.0,0.0,0.0,0.0,0.0,0.0,0.0,0.0,0.0,0.0,0.0,0.0,0.0,0.0,0.0,0.0,0.0,0.0,0.0,0.0,0.0,0.0,0.0,0.0,0.0,0.0,0.0,0.0,0.0,0.0,0.0,0.0,0.0,0.0,0.0,0.0,0.0,0.0,0.0,0.0,0.0,0.0,0.0,0.0,0.0,0.0,0.0,0.0,0.0,0.0,0.0,0.0,0.0,0.0,0.0,0.0,0.0,0.0,0.0,0.0,0.0,0.0,0.0,0.0,0.0,0.0,0.0,0.0,0.0,0.0,0.0,0.0,0.0,0.0,0.0,0.0,0.0,0.0,0.0,0.0,0.0,0.0,0.0,0.0,0.0,0.0,0.0,0.0,0.0,0.0,0.0,0.0,0.0,0.0,0.0,0.0,0.0,0.0,0.0,0.0,0.0,0.0,0.0,0.0,0.0,0.0,0.0,0.0,0.0,0.0,0.0,0.0,0.0,0.0,0.0,0.0,0.0,0.0,0.0,0.0,0.0,0.0,0.0,0.0,0.0,0.0,0.0,0.0,0.0,0.0,0.0,0.0,0.0,0.0,0.0,0.0,0.0,0.0,0.0,0.0,0.0,0.0,0.0,0.0,0.0,0.0,0.0,0.0,0.0,0.0,0.0,0.0,0.0,0.0,0.0,0.0,0.0,0.0,0.0,0.0,0.0,0.0,0.0,0.0,0.0,0.0,0.0,0.0,0.0,0.0,0.0,0.0,0.0,0.0,0.0,0.0,0.0,0.0,0.0,0.0,0.0,0.0,0.0,0.0,0.0,0.0,0.0,0.0,0.0,0.0,0.0,0.0,0.0,0.0,0.0,0.0,0.0,0.0,0.0,0.0,0.0,0.0,0.0,0.0,0.0,0.0,0.0,0.0,0.0,0.0,0.0,0.0,0.0,0.0,0.0,0.0,0.0,0.0,0.0,0.0,0.0,0.0,0.0,0.0,0.0,0.0,0.0,0.0,0.0,0.0,0.0,0.0,0.0,0.0,0.0,0.0,0.0,0.0,0.0,0.0,0.0,0.0,0.0,0.0,0.0,0.0,0.0,0.0,0.0,0.0,0.0,0.0,0.0,0.0,0.0,0.0,0.0,0.0,0.0,0.0,0.0,0.0,0.0,0.0,0.0,0.0,0.0,0.0,0.0,0.0,0.0,0.0,0.0,0.0,0.0,0.0,0.0,0.0,0.0,0.0,0.0,0.0,0.0,0.0,0.0,0.0,0.0,0.0,0.0,0.0,0.0,0.0,0.0,0.0,0.0,0.0,0.0,0.0,0.0,0.0,0.0,0.0,0.0,0.0,0.0,0.0,0.0,0.0,0.0,0.0,0.0,0.0,0.0,0.0,0.0,0.0,0.0,0.0,0.0,0.0,0.0,0.0,0.0,0.0,0.0,0.0,2.3621,2.3327,0.0,0.0,0.0,0.0,0.0,0.0,0.0,0.0,0.0,0.0,0.0,0.0,0.0,0.0,0.0,0.0,0.0,0.0,0.0,0.0,0.0,0.0,0.0,0.8838,0.8885,0.8885,0.8885,0.9175,0.9907,0.0,0.0,0.0,0.0,0.0,1.6646,1.737,1.7475,1.6838,1.8305,1.8252,1.6782,1.4039,1.0347,0.5814,0.0,0.0,0.0,0.0,0.0,0.0,0.0,0.0,0.0,0.0,0.0,0.0,0.0,0.0,0.0,0.0,0.0,0.0,0.0,0.0,0.0,0.0,0.0,0.0,0.0,0.0,0.0,0.0,0.0,0.0,0.0,0.0,0.0,0.0,0.0,0.0,0.0,0.0,0.0,0.0,0.0,0.0,0.0,0.0,0.0,0.0,0.0,0.0,0.0,0.0,0.0,0.0,0.0,0.0,0.0,0.0,0.0,0.0,0.0,0.0,0.0,0.0,0.0,0.0,0.0,0.0,0.0,0.0,0.0,0.0,2.4396,2.3875,0.0,0.0,0.0,0.0,0.0,0.0,0.0,0.0,0.0,0.0,0.0,0.0,0.0,0.0,0.0,0.0,0.0,0.0,0.0,0.0,0.0,0.8955,0.9065,0.9461,0.9728,0.9644,0.9452,0.9292,0.9136,1.059,0.0,0.0,1.4817,1.6452,1.7902,1.9469,2.0385,2.0488,2.1691,2.1776,2.0749,1.8585,1.4634,0.9379,0.7462,0.0,0.0,0.0,0.0,0.0,0.0,0.0,0.0,0.0,0.0,0.0,0.0,0.0,0.0,0.0,0.0,0.0,0.0,0.0,0.0,0.0,0.0,0.0,0.0,0.0,0.0,0.0,0.0,0.0,0.0,0.0,0.0,0.0,0.0,0.0,0.0,0.0,0.0,0.0,0.0,0.0,0.0,0.0,0.0,0.0,0.0,0.0,0.0,0.0,0.0,0.0,0.0,0.0,0.0,0.0,0.0,0.0,0.0,0.0,0.0,0.0,0.0,0.0,1.8543,2.0137,2.2578,2.2929,2.4335,2.656,2.5598,2.489,2.4409,2.4115,0.0,0.0,0.0,0.0,0.0,0.0,0.0,0.0,0.0,0.0,0.0,0.0,0.0,0.0,0.0,0.0,0.0,0.0,0.0,1.0454,1.0592,1.2055,1.2982,1.2743,1.1742,1.1048,1.0811,1.2172,1.3092,1.3278,1.589,1.7437,1.7649,1.9406,2.0106,1.9762,2.145,2.2333,2.2359,2.1073,2.0186,1.9467,1.5205,1.1747,0.915,0.0,0.0,0.0,0.0,0.0,0.0,0.0,0.0,0.0,0.0,0.0,0.0,0.0,0.0,0.0,0.0,0.0,0.0,0.0,0.0,0.0,0.0,0.0,0.0,0.0,0.0,0.0,0.0,0.0,0.0,0.0,0.0,0.0,0.0,0.0,0.0,0.0,0.0,0.0,0.0,0.0,2.3936,2.4139,0.0,0.0,0.0,0.0,0.0,0.0,0.0,0.0,0.0,0.0,0.0,0.0,0.0,1.4871,1.3656,1.3807,1.3973,1.4153,1.8449,2.0743,2.1431,2.549,2.7433,2.7522,2.7362,0.0,2.5317,2.5024,0.0,0.0,0.0,0.0,0.0,0.0,0.0,0.0,0.0,0.0,0.0,0.0,0.0,0.0,0.0,0.0,0.0,0.0,0.0,0.0,0.0,1.2695,1.3719,1.3739,1.3109,1.234,1.1372,1.2574,1.3318,1.3318,1.6037,1.8112,1.9327,2.1438,2.2946,2.3787,2.4817,2.5368,2.5498,2.4393,2.3959,2.3961,2.037,1.7032,1.3992,1.1912,0.0,0.0,0.0,0.0,0.0,0.0,0.0,0.0,0.0,0.0,0.0,0.0,0.0,0.0,0.0,0.0,0.0,0.0,0.0,0.0,0.0,0.0,0.0,0.0,0.0,0.0,0.0,0.0,0.0,0.0,0.0,0.0,0.0,0.0,0.0,0.0,0.0,0.0,0.0,2.4078,2.4758,2.4336,2.321,2.2298,0.0,0.0,0.0,0.0,0.0,0.0,0.0,0.0,0.0,1.4082,1.4253,1.4092,1.3587,1.3736,1.3878,1.4027,1.6222,1.8723,2.1531,2.3509,2.5799,2.8203,2.803,2.7495,2.668,2.5892,2.5157,2.4409,0.0,0.0,0.0,0.0,2.1516,2.0974,0.0,0.0,0.0,0.0,0.0,0.0,0.0,0.0,0.0,0.0,0.0,0.0,1.2307,1.3944,1.5099,1.5221,1.4785,1.3932,1.272,1.3491,1.4072,1.4373,1.6753,1.8969,2.0917,2.3066,2.5043,2.6855,2.7187,2.7454,2.7519,2.6811,2.6607,2.6719,2.4291,2.1293,1.7862,1.4706,1.2181,1.0004,0.0,0.0,0.0,0.0,0.0,0.0,0.0,0.0,0.0,0.0,0.0,0.0,0.0,0.0,0.0,0.0,0.0,0.0,0.0,0.0,0.0,0.0,0.0,0.0,0.0,0.0,0.0,0.0,0.0,0.0,0.0,0.0,0.0,0.0,0.0,0.0,0.0,2.455,2.5212,2.4362,2.3882,2.314,0.0,0.0,0.0,0.0,0.0,0.0,1.5487,1.5305,1.4766,1.3675,1.3973,1.4204,1.4353,1.4468,1.4577,1.4685,1.5307,1.7878,2.206,2.2371,2.4794,2.8612,2.7781,2.7227,2.6877,2.6387,2.5838,2.5197,2.4088,2.3474,2.314,2.2632,2.2445,2.2432,0.0,0.0,0.0,0.0,0.0,0.0,0.0,0.0,0.0,0.0,0.0,1.3879,1.5263,1.735,1.8546,1.8282,1.7215,1.6316,1.5724,1.5732,1.6199,1.7226,1.8717,2.0143,2.1607,2.302,2.4634,2.6426,2.6445,2.666,2.7051,2.7428,2.8019,2.8723,2.716,2.3845,1.9417,1.7828,1.523,1.209,1.0288,0.0,0.0,0.0,0.0,0.0,0.0,0.0,0.0,0.0,0.0,0.0,0.0,0.0,0.0,0.0,0.0,0.0,0.0,0.0,0.0,0.0,0.0,0.0,0.0,0.0,0.0,0.0,0.0,0.0,0.0,0.0,0.0,0.0,0.0,0.0,0.0,0.0,0.0,2.5099,2.521,0.0,0.0,0.0,0.0,2.1318,1.7794,1.5891,1.6336,1.4949,1.4237,1.4448,1.4753,1.4984,1.5126,1.5133,1.514,1.5147,1.7537,2.0031,2.2617,2.4654,2.6842,2.8831,2.6314,2.5074,2.4949,2.6225,2.644,2.5825,2.4917,2.4396,2.4102,2.3794,2.3674,2.3634,0.0,0.0,0.0,0.0,0.0,-0.7416,-0.5759,-0.2247,0.1391,0.468,0.9998,1.4126,1.5881,1.7759,1.8958,1.9052,1.8503,1.7579,1.6236,1.7079,1.7562,1.7502,1.9896,2.2163,2.4214,2.5038,2.5764,2.6387,2.6387,2.6602,2.7031,2.7461,2.7832,2.8091,2.7327,2.5445,2.2729,2.0219,1.7754,1.5161,1.1433,0.9065,0.0,0.0,0.0,0.0,0.0,0.0,0.0,0.0,0.0,0.0,0.0,0.0,0.0,0.0,0.0,0.0,0.0,0.0,0.0,0.0,0.0,0.0,0.0,0.0,0.0,0.0,0.0,0.0,0.0,0.0,0.0,0.0,0.0,0.0,0.0,0.0,0.0,2.6879,2.6432,0.0,2.2668,2.0912,1.9361,1.8124,1.6129,1.5061,1.5437,1.5132,1.5025,1.5228,1.5432,1.5608,1.5757,1.5662,1.5615,1.5615,1.6357,1.8775,2.2758,2.3203,2.5422,2.8844,2.624,2.4926,2.4655,2.3443,2.2636,2.2292,2.2967,2.301,2.2806,2.37,2.4048,2.3981,0.0,0.0,0.0,-0.8932,-0.8407,-0.7616,-0.6377,-0.293,0.0728,0.4027,0.9414,1.3789,1.6028,1.795,1.9158,1.9403,1.9185,1.8254,1.6434,1.7687,1.8183,1.7554,2.0814,2.3619,2.5645,2.6016,2.6172,2.6172,2.6172,2.6387,2.6816,2.7109,2.7434,2.7662,2.705,2.6,2.4545,2.2157,1.9761,1.7278,1.3983,1.1481,0.9507,0.0,0.0,0.0,0.0,0.0,0.0,0.0,0.0,0.0,0.0,0.0,0.0,0.0,0.0,0.0,0.0,0.0,0.0,0.0,0.0,0.0,0.0,0.0,0.0,0.0,0.0,0.0,0.0,0.0,0.0,0.0,0.0,0.0,0.0,2.5354,2.5903,2.5935,2.6028,2.489,2.1739,2.004,1.8547,1.7238,1.5789,1.5079,1.533,1.5581,1.5764,1.5859,1.6001,1.613,1.6232,1.6083,1.5981,1.5927,1.5628,1.7994,2.2766,2.2323,2.4609,2.8844,2.624,2.4483,2.3287,2.0732,1.8987,1.8302,2.1377,2.2377,2.2265,2.3874,2.4502,2.4396,0.0,-1.2648,-1.0587,-1.0119,-0.8931,-0.7646,-0.6292,-0.3666,-0.0263,0.3972,0.8811,1.2937,1.5883,1.8046,1.9287,1.9287,1.9359,1.8518,1.6502,1.7687,1.8251,1.7673,2.1508,2.4362,2.5693,2.5693,2.5693,2.5693,2.5693,2.5908,2.6367,2.6387,2.6836,2.7552,2.6532,2.5569,2.4561,2.3518,2.1279,1.8351,1.804,1.4892,1.0424,0.0,0.0,0.0,0.0,0.0,0.0,0.0,0.0,0.0,0.0,0.0,0.0,0.0,0.0,0.0,0.0,0.0,0.0,0.0,0.0,0.0,0.0,0.0,0.0,0.0,0.0,0.0,0.0,0.0,0.0,0.0,0.0,0.0,2.35,2.5321,2.5484,2.233,2.4044,2.413,2.0734,1.9458,1.888,1.8775,1.703,1.5934,1.609,1.6239,1.632,1.6327,1.6456,1.653,1.6537,1.6388,1.6239,1.6083,1.5784,1.8105,2.2663,2.2313,2.4609,2.8744,2.624,2.3693,2.1115,1.8509,1.6105,1.4486,2.0395,2.2669,2.2784,2.4455,2.5077,2.493,-1.5104,-1.3622,-1.1921,-1.0508,-0.9996,-0.9287,-0.8027,-0.4404,-0.0689,0.2478,0.7017,1.1116,1.4068,1.6261,1.744,1.744,1.8635,1.899,1.7948,1.8453,1.9388,2.0773,2.2654,2.4362,2.5693,2.5693,2.5693,2.5693,2.5693,2.5752,2.5918,2.625,2.6085,2.5595,2.5954,2.4855,2.2754,2.3007,2.1921,1.9959,1.8678,1.7241,1.5655,0.0,0.0,0.0,0.0,0.0,0.0,0.0,0.0,0.0,0.0,0.0,0.0,0.0,0.0,0.0,0.0,0.0,0.0,0.0,0.0,0.0,0.0,0.0,0.0,0.0,0.0,0.0,0.0,0.0,0.0,0.0,2.2825,2.3288,2.5275,2.5092,2.4771,2.4806,2.3748,2.2148,1.9794,1.9327,1.8584,1.7017,1.6494,1.6246,1.6395,1.6442,1.6517,1.6625,1.6666,1.6741,1.6856,1.6592,1.6388,1.6239,1.5832,1.7104,2.0046,2.1423,2.3618,2.6141,2.5449,2.4569,2.3373,1.9189,1.704,1.6511,1.7933,1.9437,2.0889,2.2459,2.3681,2.4382,-1.5869,-1.4809,-1.3549,-1.2415,-1.1808,-1.0979,-0.96,-0.6732,-0.342,0.0,0.3947,0.7635,1.058,1.3173,1.4692,1.4692,1.6241,1.6992,1.6513,1.7091,1.8537,2.0971,2.1673,2.2617,2.3998,2.4048,2.4048,2.4048,2.4048,2.4048,2.4048,2.4418,2.3996,2.3017,2.3637,2.283,2.1014,2.1629,2.1455,2.0619,1.9776,1.8888,1.7951,1.7021,1.6147,1.5515,1.5515,1.5515,1.5556,1.6036,0.0,0.0,0.0,0.0,0.0,0.0,0.0,0.0,0.0,0.0,0.0,0.0,0.0,0.0,0.0,0.0,0.0,0.0,0.0,0.0,0.0,0.0,0.0,0.0,2.1221,2.1925,2.4152,2.3722,2.3171,2.3045,2.1911,2.0341,1.8309,1.8206,1.768,1.6544,1.6544,1.6625,1.6707,1.6714,1.6754,1.6842,1.6842,1.6856,1.6883,1.6646,1.6388,1.611,1.573,1.6693,1.8845,2.1005,2.3133,2.5153,2.613,2.5885,2.4485,2.1482,1.9081,1.7273,0.0,0.0,0.0,0.0,2.3856,2.4329,-1.6847,-1.6074,-1.5323,-1.4945,-1.3868,-1.2586,-1.1191,-0.9625,-0.713,-0.3033,0.0277,0.3385,0.6224,0.9426,1.1385,1.1385,1.2862,1.3902,1.394,1.4851,1.658,1.925,1.9199,1.9752,2.1154,2.1204,2.1204,2.1204,2.1204,2.1237,2.1218,2.1506,2.1022,1.9928,2.0236,1.9861,1.9037,1.9473,1.9894,2.0354,2.0469,1.9751,1.8611,1.8611,1.7582,1.6147,1.6147,1.6147,1.6334,1.7734,0.0,0.0,0.0,0.0,0.0,0.0,0.0,0.0,0.0,0.0,0.0,0.0,0.0,0.0,0.0,0.0,0.0,0.0,0.0,0.0,0.0,0.0,0.0,0.0,1.9258,2.005,2.1185,2.1378,2.0778,1.9209,1.9239,1.8705,1.6721,1.6686,1.6836,1.6971,1.6978,1.6978,1.6978,1.6978,0.0,0.0,0.0,1.6904,1.6754,1.6598,1.6307,1.5879,1.5581,1.6386,1.8326,2.0743,2.2906,2.4846,2.741,2.7268,2.5082,2.4329,2.1483,1.7576,1.7285,1.8118,1.9868,2.3719,2.489,2.4556,-1.7382,-1.7239,-1.6715,-1.5387,-1.4925,-1.4238,-1.2755,-1.0278,-0.7911,-0.5963,-0.2103,0.1172,0.2957,0.6075,0.8036,0.8036,1.0643,1.32,1.5361,1.5456,1.6143,1.7855,1.6767,1.6781,1.8133,1.8133,1.8133,1.8133,1.8133,1.8206,1.8404,1.8473,1.7927,1.7008,1.7069,1.6507,1.5612,1.586,1.6789,1.7973,1.7122,1.8289,2.0561,2.0561,2.0346,2.0042,2.0042,2.0042,2.0003,2.0159,1.9086,1.7532,1.6049,1.4447,0.0,0.0,0.0,0.0,0.0,0.0,0.0,0.0,0.0,0.0,0.0,0.0,0.0,0.0,0.0,0.0,0.0,0.0,0.0,1.8803,1.8575,1.8128,1.911,1.8065,1.7762,1.9411,1.8114,1.7007,1.6686,1.6842,1.6951,1.6978,1.6978,1.6978,1.6978,1.6978,1.6978,1.6978,1.6978,1.6904,1.6754,1.6598,1.6361,1.6035,1.5737,0.0,1.5782,1.9924,2.1842,2.2147,2.6408,2.8021,2.7337,2.5287,2.2549,1.9683,1.9199,1.9045,1.9573,2.3643,2.489,2.4583,-1.7555,-1.7582,-1.7371,-1.6545,-1.6415,-1.5919,-1.442,-1.2956,-1.0977,-0.8102,-0.5808,-0.3606,-0.1391,0.0997,0.2433,0.2433,0.6599,1.0139,1.2284,1.2896,1.3516,1.4243,1.2812,1.2354,1.3009,1.3784,1.4124,1.4124,1.4984,1.5468,1.5542,1.4922,1.3968,1.2776,1.2898,1.2183,1.1071,1.302,1.4266,1.5024,1.5463,1.6683,1.8411,1.9447,2.0322,2.1109,2.1109,2.1109,2.0956,1.9903,1.9076,1.8075,1.5555,1.42,1.3189,0.0,0.0,0.0,0.0,0.0,0.0,0.0,0.0,0.0,0.0,0.0,0.0,0.0,0.0,0.5089,0.8534,0.0,1.2567,1.6502,1.6708,1.6557,1.7242,1.6679,1.6685,1.7869,1.7154,1.6693,1.6849,1.6937,1.6978,1.6978,1.7046,1.7053,1.6985,1.7046,1.7053,1.6985,1.6978,1.687,1.6639,1.6558,1.6334,1.5961,1.5669,1.533,1.5149,1.9563,2.1447,2.148,2.6139,2.8221,2.8025,2.5516,2.3488,2.1758,2.027,2.0151,2.1167,2.4074,2.4983,2.4796,-1.7582,-1.7582,-1.7582,-1.7582,-1.7582,-1.7199,-1.6009,-1.5583,-1.4051,-1.0241,-0.9256,-0.7883,-0.5194,-0.3556,-0.2435,-0.1826,0.2852,0.6533,0.831,0.9501,1.0155,1.014,0.8749,0.7993,0.7962,0.9133,0.9754,0.9754,1.1081,1.1759,1.1746,1.0802,0.9662,0.8426,0.8654,0.7845,0.6546,0.9734,1.1119,1.1233,1.2819,1.4051,1.503,1.6044,1.7978,2.0055,2.0106,2.0068,1.9801,1.8029,1.7586,1.7212,1.4257,1.3144,1.2632,1.117,0.8106,0.0,0.0,0.0,0.0,0.0,0.0,0.0,0.0,0.0,0.0,0.0,0.1171,0.3174,0.6384,0.8446,1.0749,1.4132,1.514,1.5601,1.59,1.63,1.6524,1.6408,1.6632,1.6842,1.6971,1.6978,1.6978,1.6978,1.7087,1.71,1.6985,1.7087,1.71,1.6985,1.6978,1.6621,1.5699,1.621,1.6004,1.5191,1.5428,1.5343,1.5231,1.9033,2.1018,2.1542,2.6163,2.8221,2.8025,2.5516,2.4436,2.4076,2.1606,2.1767,2.3484,2.4291,2.4816,2.501,-1.7582,-1.7582,-1.7582,-1.7582,-1.7582,-1.7529,-1.7371,-1.6221,-1.477,-1.3038,-1.0514,-0.8274,-0.6644,-0.5123,-0.3164,-0.049,0.1568,0.3853,0.6693,0.7034,0.7077,0.7073,0.5738,0.4986,0.5002,0.5122,0.5234,0.5234,0.542,0.5584,0.5661,0.5562,0.5471,0.5364,0.5425,0.4564,0.3173,0.4998,0.575,0.571,0.6098,0.8933,1.2646,1.0148,1.2147,1.634,1.6422,1.6496,1.6227,1.441,1.4024,1.4002,1.2142,1.0484,0.9088,0.8975,0.6193,0.3048,0.2987,0.1563,0.0,0.0,0.0,0.0,0.0,0.0,0.0,0.0,0.0168,0.1703,0.6512,0.7633,0.949,1.4448,1.5588,1.5913,1.6218,1.653,1.672,1.67,1.6849,1.6965,1.6978,1.6978,1.6978,1.6978,1.6992,1.6998,1.6978,1.6998,1.6998,1.6978,1.6978,1.5676,1.3011,1.5283,1.5132,1.2531,1.4785,1.5649,1.5445,1.7696,1.968,2.1592,2.625,2.8221,2.8025,2.5516,2.5483,2.6604,2.4157,2.4307,2.5701,2.3475,2.3667,2.5064,-1.7582,-1.7582,-1.7582,-1.7582,-1.7582,-1.7582,-1.7582,-1.634,-1.4877,-1.348,-1.1465,-0.9614,-0.8152,-0.7436,-0.6184,-0.4079,-0.2576,-0.0439,0.2553,0.2777,0.3136,0.399,0.2633,0.1857,0.1906,0.2714,0.3183,0.3153,0.416,0.4651,0.4684,0.382,0.294,0.1979,0.1047,-0.0308,-0.1729,-0.0061,0.0549,0.0729,0.2766,0.4827,0.6712,0.6415,0.7633,0.9787,1.2034,1.2799,0.0,1.0792,1.0352,1.024,0.8588,0.7629,0.7035,0.7048,0.5069,0.2687,0.1491,0.0576,0.0,0.0,0.0,0.0,0.0,0.0,0.0,0.0,0.0,0.105,0.452,0.6659,0.9024,1.2757,1.4934,1.632,1.6537,1.6748,1.6849,1.6761,1.689,1.6978,1.6978,1.6978,1.6978,1.6978,1.5561,1.5356,1.688,1.5561,1.4604,1.4528,1.4522,1.3069,1.0095,1.1175,1.1074,0.9718,1.2201,1.3262,1.3173,1.6719,2.0097,2.354,2.6808,2.8221,2.8123,2.6884,2.6765,2.7051,2.4361,2.4442,2.6001,2.4637,2.4648,2.5277,-1.7582,-1.7582,-1.7582,-1.7582,-1.7582,-1.7582,-1.7582,-1.634,-1.4877,-1.348,-1.2028,-1.0562,-0.9044,-0.8885,-0.8318,-0.6811,-0.5733,-0.4003,-0.1393,-0.1227,-0.0788,0.023,-0.075,-0.1291,-0.1332,-0.0299,0.0239,0.0242,0.1393,0.2246,0.2674,0.105,-0.0062,-0.0813,-0.2555,-0.4179,-0.557,-0.3973,-0.3527,-0.3712,-0.0866,0.0622,0.113,0.1943,0.2592,0.3523,0.7655,0.9174,0.8901,0.7144,0.6969,0.717,0.5547,0.5112,0.5137,0.5042,0.3703,0.19,0.044,0.0,0.0,0.0,0.0,0.0,0.0,0.0,0.0,0.0,0.0,0.0712,0.3244,0.6033,0.8901,1.147,1.4462,1.6592,1.6788,1.691,1.6924,1.6768,1.6849,1.6917,1.6917,1.6958,1.6978,1.6978,1.4504,1.3768,1.5704,1.3227,1.1737,1.1556,1.1552,1.0122,0.7199,0.7873,0.7802,0.6904,1.011,1.1589,1.1528,1.6766,2.0803,2.3909,2.6927,2.8221,2.8207,2.7816,2.7522,2.7051,2.4982,2.4911,2.5996,2.5625,2.5464,2.5331,-1.7582,-1.7582,-1.7582,-1.7582,-1.7582,-1.7582,-1.7582,-1.634,-1.4877,-1.348,-1.2028,-1.0562,-0.9044,-0.8885,-0.8318,-0.6811,-0.6644,-0.5973,-0.447,-0.4359,-0.4422,-0.4503,-0.4509,-0.4637,-0.4726,-0.4726,-0.4664,-0.4668,-0.4794,-0.3951,-0.2328,-0.427,-0.4265,-0.2688,-0.4517,-0.6202,-0.7587,-0.5997,-0.6217,-0.7498,-0.5834,-0.4159,-0.2867,-0.4284,-0.3791,-0.1788,0.3651,0.5577,0.525,0.3483,0.4147,0.5413,0.3686,0.3104,0.2993,0.3137,0.1699,0.0071,0.0,0.0,0.0,0.0,0.0,0.0,0.0,0.0,0.0,0.0,0.0,0.0812,0.3309,0.6091,0.8941,1.1867,1.4684,1.6625,1.6931,1.6978,1.6924,1.6768,1.6754,1.6754,1.6754,1.689,1.6978,1.6978,1.4318,1.2721,1.2821,1.0179,0.8597,0.8593,0.8593,0.7261,0.4347,0.6923,0.6857,0.4227,0.9352,1.1665,1.1624,1.8248,2.1269,2.1566,2.6236,2.8221,2.8207,2.7816,2.7522,2.7241,2.684,2.6374,2.5996,2.5625,2.5331,2.509,-1.7582,-1.7582,-1.7582,-1.7582,-1.7582,-1.7582,-1.7582,-1.553,-1.3857,-1.3372,-1.1156,0.0,0.0,0.0,0.0,0.0,-0.9622,-0.9003,-0.7503,-0.6523,-0.5527,-0.461,-0.4661,-0.47,-0.479,-0.4855,-0.4964,-0.5063,-0.5098,-0.486,-0.4467,-0.5127,-0.5665,-0.6142,-0.669,-0.8544,-1.1075,-0.9379,-0.9666,-1.1076,-0.8172,-0.6679,-0.6169,-0.5403,-0.475,-0.4026,0.0,-0.1454,-0.1357,-0.0916,-0.033,0.0334,0.0891,0.1033,0.0965,0.1052,0.057,0.0,0.0,0.0,0.0,0.0,0.0,0.0,0.0,0.0,0.0,0.0,0.0,0.0265,0.1083,0.3475,0.5712,0.6762,1.0772,1.3928,1.4161,1.5803,1.6883,1.6625,1.6781,1.6822,1.6619,1.5057,1.4017,1.4096,0.9757,0.7852,0.9862,0.7217,0.5629,0.5629,0.5598,0.4307,0.1465,0.2376,0.2347,0.1411,0.6449,0.9685,1.1279,1.6697,1.9859,2.1394,2.4508,2.6758,2.8194,2.7615,2.7348,2.7201,2.652,2.6012,2.5625,2.5331,2.5037,2.4783,0.0,-1.7582,-1.7582,-1.7582,-1.7582,0.0,0.0,0.0,0.0,0.0,0.0,0.0,0.0,0.0,0.0,0.0,0.0,-1.071,-0.9764,-0.83,-0.7086,-0.6228,-0.633,-0.6695,-0.7281,-0.685,-0.6998,-0.7624,-0.7099,-0.6643,-0.6225,-0.6901,-0.7458,-0.7951,-0.9174,-1.0977,-1.2969,-1.1834,-1.2081,-1.2936,-0.9993,-0.8867,-0.8744,-0.7473,-0.7033,0.0,-0.6848,-0.6823,-0.6362,-0.3507,-0.256,-0.226,-0.0542,0.0,0.0,0.0,0.0,0.0,0.0,0.0,0.0,0.0,0.0,0.0,0.0,0.0,0.0,0.0,0.0,0.0,0.0,0.2157,0.4029,0.4192,0.8043,1.1407,1.259,1.4325,1.5763,1.6509,1.6775,1.6822,1.6619,1.4077,1.2604,1.2711,0.7429,0.4995,0.6899,0.4251,0.266,0.266,0.2743,0.1784,0.0,0.0,0.0507,0.139,0.5373,0.8563,1.105,1.5742,1.9093,2.1307,2.3652,2.6066,2.8181,2.7591,2.7268,2.7188,2.6413,2.5932,2.5638,2.5344,2.505,2.4783,0.0,0.0,-1.7582,0.0,0.0,0.0,0.0,0.0,0.0,0.0,0.0,0.0,0.0,0.0,0.0,0.0,0.0,0.0,-1.1219,-0.9809,-0.9057,-0.92,-0.9472,-1.031,-1.1812,-1.0576,-1.0604,-1.2113,-1.0711,-0.9237,-0.7768,-0.9632,-0.9627,-0.8281,-1.1709,-1.3291,-1.3421,-1.3291,-1.3299,-1.3242,-1.1424,-1.0622,-1.05,-1.0493,-1.0412,-1.029,-1.0283,-1.0283,-0.9513,-0.4371,-0.2626,-0.2286,-0.0539,0.0,0.0,0.0,0.0,0.0,0.0,0.0,0.0,0.0,0.0,0.0,0.0,0.0,0.0,0.0,0.0,0.0,0.0,0.204,0.3868,0.3954,0.6341,0.9095,1.1878,1.2348,1.3457,1.619,1.6443,1.6547,1.6644,1.4134,1.2505,1.25,0.7323,0.4253,0.4253,0.1491,0.0,0.0,0.0,0.0,0.0,0.0,0.1203,0.3663,0.5944,0.8408,1.086,1.5543,1.8889,2.1135,2.347,2.5799,2.7985,2.7495,2.7255,2.7188,2.66,2.6186,2.5892,2.5598,2.5304,2.5024,0.0,0.0,0.0,0.0,0.0,0.0,0.0,0.0,0.0,0.0,0.0,0.0,0.0,0.0,0.0,0.0,0.0,0.0,-1.2724,-1.1374,-1.0153,-0.9257,-1.1501,-1.1975,-1.0243,-1.1116,-1.1263,-1.054,-1.0149,-0.9876,-0.9634,-1.0126,-1.0095,-0.98,-1.1892,-1.3599,-1.4726,-1.3409,-1.3688,-1.4648,-1.177,-1.0595,-1.0649,-1.0534,-1.0466,-1.0426,-1.0317,-1.0351,-0.9851,-0.5805,-0.2796,-0.0616,-0.0138,0.0,0.0,0.0,0.0,0.0,0.0,0.0,0.0,0.0,0.0,0.0,0.0,0.0,0.0,0.0,0.0,0.0,0.0,0.0595,0.1055,0.1102,0.3376,0.5546,0.6275,0.8193,1.0596,1.3291,1.3681,1.454,1.6547,1.4209,1.1739,0.9753,0.6266,0.4253,0.4253,0.1491,0.0,0.0,0.0,0.0,0.0,0.0,0.0294,0.1052,0.5143,0.7411,0.8246,1.304,1.6466,1.8802,2.1135,2.3284,2.5312,2.6744,2.7134,2.6881,2.6293,2.5879,2.5585,2.5304,2.501,2.4743,0.0,0.0,0.0,0.0,0.0,0.0,0.0,0.0,0.0,0.0,0.0,0.0,0.0,0.0,0.0,0.0,0.0,0.0,0.0,-1.102,-1.0222,-1.0209,-1.1355,-1.1895,-1.1711,-1.1426,-1.118,-1.1031,-1.0356,-1.0161,-1.0371,-1.0243,-1.0622,-1.1509,-1.3115,-1.4385,-1.5256,-1.4292,-1.4151,0.0,0.0,-1.0602,-1.0616,-1.0602,-1.0548,-1.0487,-1.048,-0.9537,-0.7954,-0.5908,-0.2934,0.0,0.0,0.0,0.0,0.0,0.0,0.0,0.0,0.0,0.0,0.0,0.0,0.0,0.0,0.0,0.0,0.0,0.0,0.0,0.0,0.0,0.0,0.0,0.1327,0.2794,0.405,0.5636,0.7631,1.0412,1.0783,1.1428,1.2948,1.1734,1.0179,0.8593,0.5841,0.3615,0.2448,0.0852,0.0,0.0,0.0,0.0,0.0,0.0,0.0,0.0,0.3823,0.6113,0.7235,1.0984,1.4611,1.7842,1.9141,2.1443,2.428,2.5372,2.6173,2.676,2.6186,2.5852,2.5651,2.5237,2.497,2.481,0.0,0.0,0.0,0.0,0.0,0.0,0.0,0.0,0.0,0.0,-0.9002,-0.9754,-1.121,-1.2724,0.0,0.0,0.0,0.0,0.0,0.0,-1.0028,-1.1174,-1.0565,-1.1315,-1.3723,-1.1506,-1.087,-1.2033,-1.0652,-1.0181,-1.0426,-1.0377,-1.1265,-1.2906,-1.4735,-1.5432,-1.5237,-1.5315,-1.4449,-1.2825,-1.1301,-1.0582,-1.048,0.0,-1.0636,-1.0541,-1.067,-0.8573,-0.5722,-0.5463,-0.3013,0.0,0.0,0.0,0.0,0.0,0.0,0.0,0.0,0.0,0.0,0.0,0.0,0.0,0.0,0.0,0.0,0.0,0.0,0.0,0.0,0.0,0.0,0.0,0.0,0.0874,0.3258,0.369,0.4755,0.7619,0.7958,0.8064,0.8487,0.8487,0.8382,0.7958,0.5629,0.3085,0.0639,0.0213,0.0,0.0,0.0,0.0,0.0,0.0,0.0,0.0,0.2421,0.4648,0.67,0.9464,1.2921,1.688,1.7493,1.9876,2.3297,2.3677,2.4829,2.6293,2.6081,2.6037,2.597,2.5291,2.5077,2.5037,0.0,0.0,0.0,0.0,0.0,0.0,0.0,0.0,0.0,0.0,-0.986,-1.1265,0.0,0.0,0.0,0.0,0.0,0.0,0.0,0.0,0.0,-0.9987,-1.213,-1.2528,-1.0612,-1.139,-1.13,-1.0221,-1.0108,-1.0011,-1.0127,-1.1697,-1.2432,-1.2589,-1.5664,-1.615,-1.472,-1.4761,-1.3807,-1.2264,-1.0932,-1.0337,-1.0344,-1.0616,0.0,0.0,-1.0711,-0.9377,-0.7326,-0.5874,-0.2979,0.0,0.0,0.0,0.0,0.0,0.0,0.0,0.0,0.0,0.0,0.0,0.0,0.0,0.0,0.0,0.0,0.0,0.0,0.0,0.0,0.0,0.0,0.0,0.0,0.0195,0.0623,0.0733,0.1786,0.4564,0.4995,0.5841,0.8276,0.8487,0.7535,0.5101,0.4464,0.3934,0.3509,0.1278,0.0,0.0,0.0,0.0,0.0,0.0,0.0,0.0,0.2488,0.3803,0.4385,0.8753,1.1156,1.2125,1.6084,1.8001,1.8612,2.2266,2.3797,2.3908,2.544,2.6037,2.597,2.5291,2.5077,2.5037,0.0,0.0,0.0,0.0,0.0,0.0,0.0,-1.1991,-1.0603,-0.9168,-1.1056,-1.2755,-1.3241,-1.4556,-1.5411,0.0,0.0,0.0,0.0,0.0,0.0,-1.0827,-1.1557,-1.1646,-1.1072,-1.1133,-1.086,-1.0059,0.0,-1.0317,-1.0399,-1.2075,-1.3277,-1.4082,-1.5512,-1.5721,-1.4882,-1.4028,-1.274,-1.125,-1.0734,-1.0507,-1.0527,0.0,0.0,0.0,-1.0717,-0.951,-0.7866,-0.7048,-0.5044,-0.2783,-0.1903,-0.1645,-0.1604,-0.1641,-0.1577,-0.1342,-0.0259,0.0,0.0,0.0,0.0,0.0,0.0,0.0,0.0,0.0,0.0,0.0,0.0,0.0,0.0,0.0,0.0,0.0,0.0,0.0,0.0519,0.19,0.2017,0.2553,0.3933,0.4039,0.3509,0.2129,0.2022,0.2022,0.2022,0.0746,0.0,0.0,0.0,0.0,0.0,0.0,0.0,0.0,0.1196,0.2353,0.3759,0.7235,0.9557,1.0895,1.4441,1.6443,1.7307,1.9399,2.1384,2.3197,2.3987,2.4997,2.5905,2.5464,2.5304,2.5264,0.0,0.0,0.0,0.0,0.0,0.0,-1.3355,-1.187,-1.0586,-0.9772,-1.22,-1.3964,-1.3938,-1.5209,-1.5911,0.0,0.0,0.0,0.0,0.0,0.0,0.0,0.0,0.0,-1.1675,0.0,0.0,-1.0229,-1.0405,0.0,0.0,0.0,0.0,0.0,-1.5597,-1.5504,-1.5184,-1.3448,-1.1845,0.0,0.0,-1.067,-1.0677,0.0,0.0,0.0,0.0,-0.9775,-0.8534,-0.8128,-0.713,-0.5867,-0.4643,-0.403,-0.3596,-0.3168,-0.3055,-0.2606,-0.0603,0.0,0.0,0.0,0.0,0.0,0.0,0.0,0.0,0.0,0.0,0.0,0.0,0.0,0.0,0.0,0.0,0.0,0.0,0.0,0.0,0.0,0.0,0.0,0.0,0.0,0.0,0.0,0.0,0.0,0.0,0.0,0.0,0.0,0.0,0.0,0.0,0.0,0.0,0.0,0.0,0.0995,0.2866,0.5276,0.7681,1.0091,1.2503,1.4632,1.6459,1.6883,1.8902,2.1742,2.252,2.3884,2.5374,2.5551,2.5611,2.5571,0.0,0.0,0.0,0.0,0.0,0.0,-1.2856,-1.097,-0.9989,-1.1125,-1.2993,-1.4651,-1.586,-1.732,-1.7665,0.0,0.0,0.0,0.0,0.0,0.0,0.0,0.0,0.0,0.0,0.0,0.0,-1.0011,-1.0351,0.0,0.0,0.0,0.0,0.0,0.0,-1.6868,-1.5184,-1.3448,0.0,0.0,0.0,0.0,0.0,0.0,0.0,0.0,0.0,-1.0585,-1.0206,-0.8585,-0.7883,-0.779,-0.7983,-0.6927,-0.5325,-0.3313,-0.2902,-0.2658,-0.0596,0.0,0.0,0.0,0.0,0.0,0.0,0.0,0.0,0.0,0.0,0.0,0.0,0.0,0.0,0.0,0.0,0.0,0.0,0.0,0.0,0.0,0.0,0.0,0.0,0.0,0.0,0.0,0.0,0.0,0.0,0.0,0.0,0.0,0.0,0.0,0.0,0.0,0.0,0.0,0.0,0.009,0.0449,0.2866,0.5186,0.7591,1.0002,1.2173,1.4265,1.6289,1.7161,1.762,2.149,2.3185,2.356,2.5296,2.5919,2.5879,0.0,0.0,0.0,0.0,0.0,0.0,-1.324,-1.1698,-1.0896,-1.1566,-1.3268,-1.5014,-1.6553,-1.8129,-1.8638,-1.7712,-1.608,0.0,0.0,0.0,0.0,0.0,0.0,0.0,0.0,0.0,-1.0229,-1.0317,-1.0527,0.0,0.0,0.0,0.0,0.0,0.0,-1.6308,-1.5449,-1.2603,0.0,0.0,0.0,0.0,0.0,0.0,0.0,0.0,0.0,0.0,-1.0591,-0.9837,-0.9679,-0.9781,-0.9825,-0.9558,-0.8607,-0.5452,-0.466,-0.4072,-0.0847,0.0,0.0,0.0,0.0,0.0,0.0,-0.0872,-0.1758,-0.1762,-0.1748,-0.1748,-0.1748,-0.0819,0.0,0.0,0.0,0.0,0.0,0.0,0.0,0.0,0.0,0.0,0.0,0.0,0.0,0.0,0.0,0.0,0.0,0.0,0.0,0.0,0.0,0.0,0.0,0.0,0.0,0.0,0.0,0.0,0.009,0.2507,0.4116,0.5097,0.7506,0.8942,0.9686,1.0644,1.2373,1.4765,1.654,1.9765,2.3501,2.405,2.5187,2.6413,0.0,0.0,0.0,0.0,0.0,-1.4828,-1.3378,-1.2209,-1.1708,-1.2404,-1.3742,-1.5192,-1.6844,-1.7981,-1.8307,-1.7459,-1.5953,0.0,0.0,0.0,0.0,0.0,0.0,0.0,0.0,0.0,-1.0392,-1.0493,-1.0643,-1.0982,0.0,0.0,-1.6172,-1.6625,0.0,0.0,0.0,0.0,0.0,0.0,0.0,0.0,0.0,0.0,0.0,0.0,0.0,0.0,0.0,0.0,0.0,-1.0725,-1.0079,-1.0522,-1.0582,-0.737,-0.6145,-0.5029,-0.1743,-0.0428,0.0,0.0,0.0,0.0,0.0,-0.1493,-0.2941,-0.2941,-0.3435,-0.3652,-0.307,-0.1869,-0.0685,-0.0076,0.0,0.0,0.0,0.0,0.0,0.0,0.0,0.0,0.0,0.0,0.0,0.0,0.0,0.0,0.0,0.0,0.0,0.0,0.0,0.0,0.0,0.0,0.0,0.0,0.0,0.0,0.009,0.1793,0.2955,0.3669,0.5365,0.6396,0.6943,0.6889,0.9031,1.2353,1.3072,1.7152,2.2678,2.2993,2.4684,2.6734,0.0,0.0,0.0,0.0,0.0,-1.4514,-1.3036,-1.2063,-1.2109,-1.3865,-1.4374,-1.5192,-1.6844,-1.702,-1.6374,-1.4777,-1.6079,0.0,0.0,0.0,0.0,0.0,0.0,0.0,-1.0276,-1.0419,-1.0487,-1.0493,-1.0643,-1.1563,-1.3325,-1.507,-1.6818,-1.8384,0.0,0.0,0.0,0.0,0.0,0.0,0.0,0.0,-1.0717,0.0,0.0,0.0,0.0,0.0,0.0,0.0,0.0,0.0,0.0,-0.9244,-1.0378,-0.8517,-0.6933,-0.5332,-0.3261,-0.1323,0.0,0.0,0.0,0.0,0.0,-0.1503,-0.2902,-0.3055,-0.4662,-0.5397,-0.3481,-0.3102,-0.2377,-0.0304,0.0,0.0,0.0,0.0,0.0,0.0,0.0,0.0,0.0,0.0,0.0,0.0,0.0,0.0,0.0,0.0,0.0,0.0,0.0,0.0,0.0,0.0,0.0,0.0,0.0,0.0,0.0,0.0,0.1345,0.358,0.3669,0.4888,0.6858,0.6858,0.8157,1.0208,1.2443,1.6194,2.0539,2.2418,2.4684,2.6734,0.0,0.0,0.0,0.0,0.0,0.0,-1.4817,-1.3699,-1.324,-1.3875,-1.3391,-1.3586,-1.5192,-1.537,-1.4719,-1.3247,-1.349,0.0,0.0,0.0,0.0,0.0,0.0,-1.0276,-1.0419,-1.0466,-1.0595,-1.0739,-1.0853,-1.1739,-1.3452,-1.5224,-1.6914,-1.8436,-1.6689,-1.5913,0.0,0.0,0.0,0.0,0.0,-1.0717,-1.0717,0.0,0.0,0.0,0.0,0.0,0.0,0.0,0.0,0.0,0.0,0.0,0.0,-0.8184,-0.7678,-0.6868,-0.5027,-0.3206,-0.1843,-0.1804,-0.0884,0.0,0.0,-0.1533,-0.2919,-0.297,-0.3431,-0.3677,-0.3079,-0.1904,-0.0772,-0.0078,0.0,0.0,0.0,0.0,0.0,0.0,0.0,0.0,0.0,0.0,0.0,0.0,0.0,0.0,0.0,0.0,0.0,0.0,0.0,0.0,0.0,0.0,0.0,0.0,0.0,0.0,0.0,0.0,0.0449,0.1166,0.1166,0.1521,0.2227,0.2211,0.351,0.5738,0.7952,1.1649,1.6173,1.9692,2.2486,2.4765,0.0,0.0,0.0,0.0,0.0,0.0,-1.4931,-1.4082,-1.3581,-1.3136,-1.2569,-1.2569,-1.3586,-1.3721,-1.3159,-1.1634,-1.1479,0.0,0.0,0.0,0.0,0.0,-1.031,-1.0426,-1.0575,-1.0575,-1.0697,-1.088,-1.088,-1.218,-1.4715,-1.5633,-1.7358,-1.9567,-1.7055,-1.5913,0.0,0.0,0.0,0.0,-1.0744,-1.0758,-1.0799,0.0,0.0,0.0,0.0,0.0,0.0,0.0,0.0,0.0,0.0,0.0,0.0,0.0,-0.75,-0.779,-0.6647,-0.4579,-0.269,-0.2678,-0.1317,0.0,0.0,-0.1511,-0.2891,-0.2965,-0.3578,-0.3827,-0.3095,-0.1985,-0.0927,-0.0156,0.0,0.0,0.0,0.0,0.0,0.0,0.0,0.0,0.0,0.0,0.0,0.0,0.0,0.0,0.0,0.0,0.0,0.0,0.0,0.0,0.0,0.0,0.0,0.0,0.0,0.0,0.0,0.0,0.0,0.0,0.0,0.0,0.0,0.0,0.1328,0.3517,0.4922,0.8825,1.4041,1.6476,2.0008,2.3689,0.0,0.0,0.0,0.0,0.0,0.0,0.0,-1.3527,-1.3127,-1.1954,-1.193,-1.2037,-1.2037,-1.2142,-1.1649,-1.0122,-1.0209,0.0,0.0,0.0,0.0,-1.0487,-1.05,-1.0575,-1.0717,-1.0731,-1.0812,-1.0894,-1.0907,-1.2867,-1.6601,-1.6245,-1.7993,-2.1265,-1.7585,-1.5794,0.0,0.0,0.0,-1.0867,-1.0778,-1.0739,0.0,0.0,0.0,0.0,0.0,0.0,0.0,0.0,0.0,0.0,0.0,0.0,0.0,0.0,0.0,0.0,0.0,-0.5389,-0.2864,-0.2705,-0.1301,0.0,0.0,-0.1433,0.0,-0.2817,-0.4297,-0.5057,-0.3244,-0.2899,-0.2231,-0.0309,0.0,0.0,0.0,0.0,0.0,0.0,0.0,0.0,0.0,0.0,0.0,0.0,0.0,0.0,0.0,0.0,0.0,0.0,0.0,0.0,0.0,0.0,0.0,0.0,0.0,0.0,0.0,0.0,0.0,0.0,0.0,0.0,0.0,0.0,0.1248,0.3083,0.3309,0.7417,1.3193,1.3321,1.7583,2.3225,0.0,0.0,0.0,0.0,0.0,0.0,0.0,0.0,0.0,0.0,-1.0865,-1.0361,-1.0361,-1.0504,-1.0468,0.0,0.0,0.0,0.0,0.0,0.0,-1.0487,-1.0602,-1.0683,-1.0717,-1.0766,-1.0968,-1.1111,-1.1233,-1.3159,-1.6755,-1.6466,-1.7475,-1.9487,-1.699,-1.4444,0.0,0.0,-1.0847,-1.0867,-1.0778,-1.0744,0.0,0.0,0.0,0.0,-0.9576,-0.8035,0.0,0.0,0.0,0.0,0.0,0.0,0.0,0.0,-0.3622,-0.4233,-0.563,0.0,-0.4447,-0.3072,-0.1362,0.0,0.0,-0.0371,-0.0669,-0.0743,-0.1122,-0.1284,-0.0842,-0.0763,-0.0535,-0.0078,0.0,0.0,0.0,0.0,0.0,0.0,0.0,0.0,0.0,0.0,0.0,0.0,0.0,0.0,0.0,0.0,0.0,0.0,0.0,0.0,0.0,0.0,0.0,0.0,0.0,0.0,0.0,0.0,0.0,0.0,0.0,0.0,0.0,0.0,0.0269,0.0981,0.2621,0.5364,0.8783,1.2081,1.645,2.0909,0.0,0.0,0.0,0.0,0.0,0.0,0.0,0.0,0.0,0.0,-1.0108,-0.9822,-0.9822,-1.0019,-1.0188,0.0,0.0,0.0,0.0,0.0,0.0,-1.0595,-1.0677,-1.0717,-1.0717,-1.0799,-1.1016,-1.1234,-1.1314,-1.3302,-1.6986,-1.5803,-1.6729,-1.9174,-1.6251,-1.3503,-1.1043,-1.0907,-1.0921,-1.1029,-1.0806,0.0,0.0,0.0,0.0,0.0,-0.9105,-0.7702,0.0,-0.8568,-0.7636,-0.5429,0.0,0.0,0.0,0.0,-0.3289,-0.3957,-0.4091,-0.413,-0.3918,-0.295,-0.1343,0.0,0.0,0.0,0.0,0.0,0.0,0.0,0.0,0.0,0.0,0.0,-0.0947,-0.1687,-0.1642,-0.1606,-0.1129,-0.0089,0.0,0.0,0.0,0.0,0.0,0.0,0.0,0.0,0.0,0.0,0.0,0.0,0.0,0.0,0.0,0.0,0.0,0.0,0.0,0.0,0.0,0.0,0.0,0.0,0.0,0.0,0.0,0.0,0.0,0.0089,0.1311,0.3198,0.5573,0.8934,1.2995,1.7278,0.0,0.0,0.0,0.0,0.0,0.0,0.0,0.0,0.0,0.0,0.0,0.0,0.0,0.0,0.0,0.0,0.0,0.0,0.0,0.0,-1.0717,-1.0717,-1.0717,-1.0731,-1.0758,-1.09,-1.1063,-1.1233,-1.1734,-1.3766,-1.7228,-1.5332,-1.6027,-1.8573,-1.4996,-1.2628,-1.1192,-1.1043,-1.1063,-1.1172,-1.0846,0.0,0.0,0.0,0.0,0.0,0.0,0.0,0.0,-0.7831,-0.7231,-0.583,-0.583,0.0,0.0,0.0,0.0,0.0,-0.3564,-0.2895,-0.2615,-0.2339,-0.114,0.0,0.0,0.0,0.0,0.0,0.0,0.0,0.0,0.0,0.0,0.0,-0.1746,-0.3205,-0.3573,-0.3107,-0.2094,-0.0265,0.0,0.0,0.0,0.0,0.0,0.0,0.0,0.0,0.0,0.0,0.0,0.0,0.0,0.0,0.0,0.0,0.0,0.0,0.0,0.0,0.0,0.0,0.0,0.0,0.0,0.0,0.0,0.0,0.0,0.0,0.0,0.1377,0.365,0.5728,0.9399,1.3824,0.0,0.0,0.0,0.0,0.0,0.0,0.0,0.0,0.0,0.0,0.0,0.0,0.0,0.0,0.0,0.0,0.0,0.0,0.0,-1.0717,-1.0717,-1.0717,-1.0717,-1.0778,-1.084,-1.1056,-1.1267,-1.1552,-1.3475,-1.5426,-1.7449,-1.6946,-1.5955,-1.46,-1.2619,-1.1629,-1.1348,-1.1192,-1.1219,-1.1321,-1.0894,0.0,0.0,0.0,0.0,0.0,0.0,0.0,0.0,-0.9709,-0.9105,-0.7631,-0.7631,0.0,0.0,0.0,0.0,0.0,-0.5234,-0.3961,-0.2328,-0.0768,-0.0211,0.0,0.0,0.0,0.0,0.0,0.0,0.0,0.0,0.0,0.0,0.0,-0.0318,-0.1238,-0.3353,-0.1835,-0.0353,0.0,0.0,0.0,0.0,0.0,0.0,0.0,0.0,0.0,0.0,0.0,0.0,0.0,0.0,0.0,0.0,0.0,0.0,0.0,0.0,0.0,0.0,0.0,0.0,0.0,0.0,0.0,0.0,0.0,0.0,0.0,0.0,0.1362,0.3612,0.571,0.9307,1.393,0.0,0.0,0.0,0.0,0.0,0.0,0.0,0.0,0.0,0.0,0.0,0.0,0.0,0.0,0.0,0.0,0.0,0.0,0.0,-1.0717,-1.0717,-1.0717,-1.0799,-1.0806,-1.088,-1.1172,-1.1945,-1.323,-1.433,-1.584,-1.7671,-1.6458,-1.4654,-1.2592,-1.1832,-1.1511,-1.1504,-1.1348,-1.1328,-1.1362,0.0,0.0,0.0,0.0,0.0,0.0,0.0,0.0,0.0,0.0,-0.951,-0.803,-0.803,0.0,0.0,0.0,0.0,0.0,-0.6883,-0.4875,-0.2506,-0.169,-0.0728,0.0,0.0,0.0,0.0,0.0,0.0,0.0,0.0,0.0,-0.0389,-0.1714,-0.1825,-0.2196,-0.3396,-0.2623,-0.1402,-0.0177,0.0,0.0,0.0,0.0,0.0,0.0,0.0,0.0,0.0,0.0,0.0,0.0,0.0,0.0,0.0,0.0,0.0,0.0,0.0,0.0,0.0,0.0,0.0,0.0,0.0,0.0,0.0,0.0,0.0,0.0,0.0,0.0593,0.1913,0.5245,0.9162,1.3474,0.0,0.0,0.0,0.0,0.0,0.0,0.0,0.0,0.0,0.0,0.0,0.0,0.0,0.0,0.0,0.0,0.0,0.0,0.0,-1.0717,-1.0717,-1.0717,-1.09,-1.0995,-1.0995,-1.1768,-1.3019,-1.4834,-1.5922,-1.6942,-1.7966,-1.5759,-1.3641,-1.1667,-1.1633,-1.1619,-1.1606,-1.1457,-1.1409,-1.1416,0.0,0.0,0.0,0.0,0.0,0.0,0.0,0.0,0.0,0.0,0.0,0.0,0.0,0.0,0.0,-0.8634,-0.8634,-0.864,-0.8667,-0.6385,-0.3872,-0.3485,-0.1705,0.0,0.0,0.0,0.0,0.0,0.0,0.0,0.0,0.0,-0.0807,-0.3241,-0.3004,-0.2763,-0.3527,-0.2985,-0.1929,-0.0177,0.0,0.0,0.0,0.0,0.0,0.0,0.0,0.0,0.0,0.0,0.0,0.0,0.0,0.0,0.0,0.0,0.0,0.0,0.0,0.0,0.0,0.0,0.0,0.0,0.0,0.0,0.0,0.0,0.0,0.0,0.0,0.0336,0.1151,0.4457,0.8544,1.2908,0.0,0.0,0.0,0.0,0.0,0.0,0.0,0.0,0.0,0.0,0.0,0.0,0.0,0.0,0.0,0.0,0.0,0.0,-1.0717,-1.0717,-1.0717,-1.0717,-1.0995,-1.1145,-1.1145,-1.3247,-1.4741,-1.5426,-1.9138,-2.0043,-1.8188,-1.5821,-1.3631,-1.1809,-1.1681,-1.1619,-1.1606,-1.1457,-1.147,-1.1565,-1.1055,0.0,0.0,0.0,0.0,0.0,0.0,0.0,0.0,0.0,0.0,0.0,0.0,0.0,-1.0518,-1.0518,-1.0518,-1.0545,-1.0685,-0.9192,-0.7252,-0.5763,-0.2648,0.0,0.0,0.0,0.0,0.0,0.0,0.0,0.0,0.0,-0.0818,-0.3186,-0.1713,-0.1049,-0.3299,-0.17,-0.0179,0.0,0.0,0.0,0.0,0.0,0.0,0.0,0.0,0.0,0.0,0.0,0.0,0.0,0.0,0.0,0.0,0.0,0.0,0.0,0.0,0.0,0.0,0.0,0.0,0.0,0.0,0.0,0.0,0.0,0.0,0.0,0.0,0.1163,0.292,0.3205,0.7115,1.2498,0.0,0.0,0.0,0.0,0.0,0.0,0.0,0.0,0.0,0.0,0.0,0.0,0.0,0.0,0.0,0.0,0.0,0.0,-1.0717,-1.0717,-1.0717,-1.0717,-1.0921,-1.107,-1.1227,-1.3586,-1.5613,-1.7262,-1.8893,-1.9117,-1.81,-1.4662,-1.2604,-1.1694,-1.1647,-1.1619,-1.1613,-1.1558,-1.1511,-1.1457,-1.1185,-1.1063,0.0,0.0,0.0,0.0,0.0,0.0,0.0,0.0,-1.0717,-1.0717,-1.0717,-1.0717,-1.0717,-1.0717,-1.0717,-1.0731,-1.0792,-0.956,-0.8125,-0.7478,-0.4616,-0.1614,-0.031,0.0,0.0,0.0,0.0,0.0,0.0,0.0,-0.0338,-0.1198,-0.0608,-0.0353,-0.1253,-0.0538,0.0,0.0,0.0,0.0,0.0,0.0,0.0,0.0,0.0,0.0,0.0,0.0,0.0,0.0,0.0,0.0,0.0,0.0,0.0,0.0,0.0,0.0,0.0,0.0,0.0,0.0,0.0,0.0,0.0,0.0,0.0,0.0,0.0,0.0492,0.1296,0.2601,0.5334,0.8783,0.0,0.0,0.0,0.0,0.0,0.0,0.0,0.0,0.0,0.0,0.0,0.0,0.0,0.0,0.0,0.0,0.0,0.0,-1.0717,-1.0717,-1.0717,-1.0717,-1.0799,-1.1309,-1.2113,-1.4469,-1.6566,-1.8377,-1.8607,-1.8225,-1.7135,-1.3698,-1.1925,-1.1687,-1.164,-1.1619,-1.1619,-1.1619,-1.1531,-1.1375,-1.1226,-1.1077,0.0,0.0,0.0,0.0,0.0,0.0,0.0,0.0,-1.0717,-1.0717,-1.0717,-1.0717,-1.0717,-1.0717,-1.0751,-1.0792,-1.0792,-1.0048,-0.91,-0.8545,-0.6657,-0.4206,-0.1566,-0.0484,0.0,0.0,0.0,0.0,0.0,0.0,0.0,0.0,0.0,0.0,0.0,0.0,0.0,0.0,0.0,0.0,0.0,0.0,0.0,0.0,0.0,0.0,0.0,0.0,0.0,0.0,0.0,0.0,0.0,0.0,0.0,0.0,0.0,0.0,0.0,0.0,0.0,0.0,0.0,0.0,0.0,0.0,0.0,0.0,0.0,0.0,0.016,0.1564,0.3379,0.5607,0.0,0.0,0.0,0.0,0.0,0.0,0.0,0.0,-0.6785,-0.5136,-0.6464,0.0,0.0,0.0,0.0,0.0,0.0,0.0,-1.0717,-1.0717,-1.0717,-1.0717,-1.0799,-1.1959,-1.4136,-1.6358,-1.7857,-1.861,-1.8912,-1.775,-1.5252,-1.3088,-1.1979,-1.1823,-1.1687,-1.1619,-1.1619,-1.1619,-1.1531,-1.1375,-1.1219,-1.1077,-1.086,0.0,0.0,0.0,0.0,0.0,0.0,0.0,-1.0717,-1.0717,-1.0717,-1.0724,-1.0724,-1.0717,-1.0759,-1.088,-1.088,-1.088,-1.0538,-0.9116,-0.8693,-0.7699,-0.3988,-0.153,0.0,0.0,0.0,0.0,0.0,0.0,0.0,0.0,0.0,0.0,0.0,0.0,0.0,0.0,0.0,0.0,0.0,0.0,0.0,0.0,0.0,0.0,0.0,0.0,0.0,0.0,0.0,0.0,0.0,0.0,0.0,0.0,0.0,0.0,0.0,0.0,0.0,0.0,0.0,0.0,0.0,0.0,0.0,-0.0083,-0.0083,-0.0081,0.0,0.0,0.1226,0.3405,0.0,0.0,0.0,0.0,0.0,0.0,0.0,0.0,-0.6785,-0.5136,-0.6464,0.0,0.0,0.0,0.0,0.0,0.0,0.0,-1.0717,-1.0717,-1.0717,-1.0717,-1.0799,-1.1908,-1.4027,-1.7697,-1.981,-2.0206,-1.9107,-1.7385,-1.514,-1.3036,-1.1979,-1.183,-1.1789,-1.1714,-1.1613,-1.1504,-1.1436,-1.1369,-1.1111,-1.0921,-1.086,0.0,0.0,0.0,0.0,0.0,0.0,0.0,0.0,0.0,-1.0717,-1.0725,-1.0793,-1.0751,-1.0759,-1.086,-1.0752,-1.0941,-1.1034,-1.0825,-0.9967,-0.8502,-0.591,-0.3845,-0.1909,-0.035,0.0,0.0,0.0,0.0,0.0,0.0,0.0,0.0,0.0,0.0,0.0,0.0,0.0,0.0,0.0,0.0,0.0,0.0,0.0,0.0,0.0,0.0,0.0,0.0,0.0,0.0,0.0,0.0,0.0,0.0,0.0,0.0,0.0,0.0,0.0,0.0,0.0,0.0,-0.0084,-0.1566,-0.3108,-0.439,-0.4241,-0.3398,-0.2187,-0.2056,0.0075,0.303,0.0,0.0,0.0,0.0,0.0,0.0,0.0,0.0,-0.5108,-0.4173,-0.5508,-0.6901,0.0,0.0,0.0,0.0,0.0,0.0,-1.0717,-1.0717,-1.0717,-1.0717,-1.0799,-1.1915,-1.4053,-1.7559,-1.9031,-1.8359,-1.8164,-1.6664,-1.3796,-1.2621,-1.1979,-1.1837,-1.1898,-1.1809,-1.1613,-1.1518,-1.1375,-1.1199,-1.0954,-1.0847,-1.0779,0.0,0.0,0.0,0.0,0.0,0.0,0.0,0.0,0.0,-1.0717,-1.0785,-1.0853,-1.0819,-1.0806,-1.0887,-1.0982,-1.1118,-1.1355,-1.1782,-1.1258,-0.9944,-0.7139,-0.4221,-0.1626,-0.0265,0.0,0.0,0.0,0.0,0.0,0.0,0.0,0.0,0.0,0.0,0.0,0.0,0.0,0.0,0.0,0.0,0.0,0.0,0.0,0.0,0.0,0.0,0.0,0.0,0.0,0.0,0.0,0.0,0.0,0.0,0.0,0.0,0.0,0.0,0.0,0.0,0.0,-0.0493,-0.1312,-0.2511,-0.4255,-0.6135,-0.602,-0.5171,-0.4047,-0.3213,-0.1403,0.0806,0.0,0.0,-0.9652,-0.9795,0.0,0.0,0.0,0.0,-0.2532,-0.2696,-0.4115,-0.5884,0.0,0.0,0.0,0.0,0.0,0.0,0.0,-1.0717,-1.0724,-1.0738,-1.1035,-1.2133,-1.4162,-1.649,-1.6596,-1.4432,-1.6581,-1.5594,-1.1837,-1.1986,-1.1986,-1.1857,-1.1999,-1.1898,-1.1619,-1.1592,-1.1348,-1.0921,-1.088,-1.086,-1.0758,-1.0731,0.0,0.0,0.0,0.0,0.0,0.0,0.0,0.0,-1.0717,-1.0731,-1.0765,-1.0826,-1.0873,-1.0941,-1.1294,-1.1382,-1.1538,-1.2155,-1.2258,-1.1218,-0.7707,-0.3323,0.0,0.0,0.0,0.0,0.0,0.0,0.0,0.0,0.0,0.0,0.0,0.0,0.0,0.0,0.0,0.0,0.0,0.0,0.0,0.0,0.0,0.0,0.0,0.0,0.0,0.0,0.0,0.0,0.0,0.0,0.0,0.0,0.0,0.0,0.0,0.0,0.0,0.0,0.0,-0.1293,-0.3381,-0.3268,-0.449,-0.6537,-0.6379,-0.6265,-0.5847,-0.3921,-0.3084,-0.2394,0.0,0.0,-0.9652,-0.9795,0.0,0.0,0.0,0.0,0.0,-0.2696,-0.4217,0.0,0.0,0.0,0.0,0.0,0.0,0.0,0.0,-1.0717,-1.0772,-1.0826,-1.2574,-1.3796,-1.4364,-1.6282,-1.6381,-1.4432,-1.5156,-1.4245,-1.1837,-1.1986,-1.2047,-1.2013,-1.2047,-1.1898,-1.1606,-1.1362,-1.1274,-1.1267,-1.0907,-1.0887,-1.1043,-1.0806,-1.0717,0.0,0.0,0.0,0.0,0.0,0.0,0.0,-1.0717,-1.0806,-1.0813,-1.0799,-1.0786,-1.0921,-1.1165,-1.1301,-1.1565,-1.2277,-1.0179,-0.7866,-0.724,-0.3431,0.0,0.0,0.0,0.0,0.0,0.0,0.0,0.0,0.0,0.0,0.0,0.0,0.0,0.0,0.0,0.0,0.0,0.0,0.0,0.0,0.0,0.0,0.0,0.0,0.0,0.0,0.0,0.0,0.0,0.0,0.0,0.0,0.0,0.0,0.0,0.0,0.0,0.0,0.0,-0.2014,-0.5361,-0.5346,-0.7461,-1.0769,-1.0562,-0.9582,-0.798,-0.5929,-0.4223,-0.2536,0.0,0.0,0.0,0.0,0.0,0.0,0.0,0.0,0.0,0.0,0.0,0.0,0.0,0.0,0.0,0.0,-1.0717,-1.0717,-1.0717,-1.0785,-1.0928,-1.1151,-1.2271,-1.2919,-1.3095,-1.4014,-1.4014,-1.3024,-1.3259,-1.28,-1.1735,-1.1884,-1.1952,-1.1952,-1.2026,-1.1857,-1.1497,-1.1341,-1.1192,-1.105,-1.0812,-1.0812,-1.0934,-1.0778,-1.0717,-1.0717,-1.0717,0.0,0.0,0.0,0.0,0.0,0.0,0.0,-1.0772,-1.0833,-1.0766,-1.09,-1.1192,-1.1436,-1.183,-1.28,-0.9873,-0.6729,-0.701,-0.3422,0.0,0.0,0.0,0.0,0.0,0.0,0.0,0.0,0.0,0.0,0.0,0.0,0.0,0.0,0.0,0.0,0.0,0.0,0.0,0.0,0.0828,0.0981,0.0076,0.0846,0.0931,0.0,0.0,0.0,0.0,0.0,0.0,0.0,0.0,0.0,0.0,0.0,0.0,0.0,0.0,-0.1749,-0.4673,-0.5506,-0.7725,-1.0663,-1.1339,-1.101,-0.9809,-0.6865,-0.518,-0.3873,0.0,0.0,0.0,0.0,0.0,0.0,0.0,0.0,0.0,0.0,0.0,0.0,0.0,0.0,-1.0717,0.0,0.0,0.0,-1.0717,0.0,0.0,-1.1341,-1.1402,-1.1491,-1.1613,-1.1619,-1.1619,-1.1619,-1.1619,-1.1647,-1.1694,-1.1789,-1.183,-1.1837,-1.1965,-1.1803,-1.143,-1.1402,-1.1179,-1.0833,-1.0778,-1.0772,-1.0792,-1.0738,-1.0717,-1.0717,-1.0717,-1.0717,-1.0717,-1.0717,0.0,0.0,0.0,0.0,-1.0744,-1.0806,-1.0819,-1.0812,-1.1233,-1.164,-1.2052,-1.2782,-0.9765,-0.6676,-0.6534,-0.3129,0.0,0.0,0.0,0.0,0.0,0.0,0.0,0.0,0.0,0.0,0.0,0.0,0.0,0.0,0.0,0.0,0.0,0.0,0.0,0.0,0.1473,0.1697,0.0074,0.1498,0.166,0.0076,0.0,0.0,0.0,0.0,0.0,0.0,0.0,0.0,0.0,0.0,0.0,0.0,0.0,-0.1198,-0.3202,-0.4878,-0.6889,-0.8988,-1.0728,-1.143,-1.1096,-0.7567,-0.604,-0.5235,0.0,0.0,0.0,0.0,0.0,0.0,0.0,0.0,0.0,0.0,-0.6704,-0.8435,0.0,-1.0717,-1.0717,-1.0717,-1.0717,-1.0717,-1.0717,0.0,0.0,-1.1192,-1.145,-1.1599,-1.1619,-1.1619,-1.1619,-1.1619,-1.1619,-1.1748,-1.1999,-1.1884,-1.183,-1.183,-1.185,-1.1762,-1.1579,-1.145,-1.1355,-1.128,-1.1023,-1.0989,-1.1077,-1.0819,-1.0717,-1.0717,-1.0717,-1.0717,-1.0717,-1.0717,-1.0717,0.0,0.0,0.0,-1.0724,-1.0744,-1.0738,-1.0792,-1.1111,-1.1789,-1.207,-1.0633,-0.8474,-0.6224,-0.4449,-0.1956,0.0,0.0,0.0,0.0,0.0,0.0,0.0,0.0,0.0,0.0,0.0,0.0,0.0,0.0,0.0,0.0,0.0,0.0,0.0,0.0,0.0214,0.0289,0.0,0.0222,0.03,0.0,0.0,0.0,0.0,0.0,0.0,0.0,0.0,0.0,0.0,0.0,0.0,0.0,0.0,-0.1145,-0.3039,-0.485,-0.6741,-0.8718,-1.0505,-1.1275,-1.1024,-0.8927,-0.7059,-0.5315,0.0,0.0,0.0,0.0,0.0,0.0,0.0,0.0,0.0,0.0,0.0,-0.8701,-1.0518,-1.0717,-1.0717,-1.0717,-1.0717,-1.0792,-1.0955,-1.1016,-1.1151,-1.1409,-1.1463,-1.1531,-1.1619,-1.1619,-1.1619,-1.1619,-1.1619,-1.1769,-1.2135,-1.2081,-1.2088,-1.2088,-1.1999,-1.1837,-1.1606,-1.1362,-1.126,-1.124,-1.0941,-1.0907,-1.1016,-1.0806,-1.0717,-1.0717,-1.0717,-1.0717,-1.0717,-1.0717,-1.0717,-1.0717,-1.0717,0.0,0.0,0.0,-1.0717,-1.0826,-1.1294,-1.183,-1.1856,-1.0244,-0.821,-0.6032,-0.405,-0.1763,0.0,0.0,0.0,0.0,0.0,0.0,0.0,0.0,0.0,0.0,0.0,0.0,0.0,0.0,0.0,0.0,0.0,0.0,0.0,0.0,0.0979,0.1129,0.0072,0.1015,0.1093,0.0,0.0,0.0504,0.1481,0.0495,0.0,0.0,0.0,0.0,0.0,0.0,0.0,0.0,0.0,-0.0493,-0.147,-0.4298,-0.603,-0.7178,-0.996,-1.109,-1.0951,-0.9118,-0.7833,-0.6683,0.0,0.0,0.0,0.0,0.0,0.0,0.0,0.0,0.0,0.0,0.0,-0.9172,-1.0518,0.0,0.0,0.0,-1.0717,-1.0812,-1.1036,-1.0989,-1.1029,-1.1436,-1.1375,-1.1402,-1.1558,-1.1558,-1.1579,-1.1619,-1.1619,-1.1809,-1.2176,-1.2291,-1.2406,-1.2508,-1.2318,-1.2067,-1.1775,-1.1504,-1.1459,-1.1355,-1.0982,-1.09,-1.0982,-1.0792,-1.0717,-1.0717,-1.0717,-1.0717,-1.0717,-1.0717,-1.0717,-1.0717,-1.0717,-1.0717,0.0,0.0,0.0,-1.0826,-1.1314,-1.1694,-1.1557,-0.9903,-0.7927,-0.5894,-0.3886,-0.1649,0.0,0.0,0.0,0.0,0.0,0.0,0.0,0.0,0.0,0.0,0.0,0.0,0.0,0.0,0.0,0.0,0.0,0.0,0.0,0.0,0.1311,0.1523,0.0071,0.1348,0.1705,0.0712,0.0709,0.1541,0.3356,0.1588,0.0483,0.0,0.0,0.0,0.0,0.0,0.0,0.0,0.0,0.0,-0.0277,-0.3901,-0.5478,-0.5935,-0.9493,-1.0955,-1.09,-0.9461,-0.8663,-0.781,0.0,0.0,0.0,0.0,0.0,0.0,0.0,0.0,0.0,0.0,0.0,-1.0585,-1.0717,-1.0717,-1.0717,-1.0717,-1.0717,-1.0724,-1.0744,-1.0873,-1.0894,-1.0914,-1.1104,0.0,-1.1402,-1.1402,-1.147,-1.1619,-1.1619,-1.1911,-1.2481,-1.2488,-1.2718,-1.3112,-1.2827,-1.2528,-1.2244,-1.2081,-1.2013,-1.1965,-1.1375,-1.1214,-1.1118,-1.0833,-1.0717,-1.0717,-1.0717,-1.0717,-1.0717,-1.0717,-1.0717,-1.0717,-1.0717,-1.0717,-1.0717,0.0,0.0,0.0,-1.0867,-1.1237,-1.1096,-0.9113,-0.7399,-0.5743,-0.3438,-0.1441,0.0,0.0,0.0,0.0,0.0,0.0,0.0,0.0,0.0,0.0,0.0,0.0,0.0,0.0,0.0,0.0,0.0,0.0,0.0,0.0,0.0069,0.0138,0.0,0.007,0.0912,0.2521,0.256,0.3428,0.5263,0.3449,0.1683,0.0,0.0,0.0,0.0,0.0,0.0,0.0,0.0,0.0,-0.027,-0.3897,-0.5372,-0.5774,-0.9322,-1.0738,-1.0758,-1.0759,-0.963,-0.7989,0.0,0.0,0.0,0.0,0.0,0.0,0.0,0.0,0.0,0.0,0.0,0.0,0.0,-1.0717,-1.0717,-1.0717,-1.0717,-1.0765,-1.0793,-1.0759,-1.0887,-1.1077,-1.1138,-1.1233,-1.1389,-1.1491,-1.1565,-1.1619,-1.1619,-1.1823,-1.2223,-1.2318,-1.2501,-1.2739,-1.263,-1.2474,-1.2264,-1.1816,-1.1687,-1.1735,-1.1226,-1.1084,-1.1131,-1.0833,-1.0717,-1.0717,-1.0717,-1.0717,-1.0717,-1.0717,-1.0717,-1.0717,-1.0717,-1.0717,-1.0717,-1.0717,-1.0717,-1.0751,-1.084,-1.1131,-1.0882,-0.8868,-0.7164,-0.5435,-0.324,-0.1336,0.0,0.0,0.0,0.0,0.0,0.0,0.0,0.0,0.0,0.0,0.0,0.0,0.0,0.0,0.0,0.0,0.0,0.0,0.0,0.0,0.0,0.0,0.0,0.0,0.083,0.2624,0.268,0.3548,0.5403,0.4772,0.3555,0.1747,0.0538,0.0,0.0,0.0,0.0,0.0,0.0,0.0,-0.0202,-0.2685,-0.4359,-0.5629,-0.8035,-0.9709,-1.0724,-1.0778,-1.0358,-0.9582,0.0,0.0,0.0,0.0,0.0,-0.543,-0.6117,-0.5748,-0.603,-0.7764,0.0,0.0,0.0,0.0,-1.0717,-1.0717,-1.0717,-1.0765,-1.0799,-1.0778,-1.0806,-1.1002,-1.1063,-1.1158,-1.1314,-1.1463,-1.1565,-1.1619,-1.1619,-1.1742,-1.1986,-1.2142,-1.2291,-1.2427,-1.2379,-1.2359,-1.2332,-1.1884,-1.1721,-1.1728,-1.128,-1.1151,-1.1219,-1.1023,-1.0914,-1.0867,-1.0867,-1.0839,-1.0785,-1.0738,-1.0717,-1.0717,-1.0717,-1.0717,-1.0717,-1.0717,-1.0246,-0.9933,-1.0638,-1.0567,-1.0103,-0.9405,-0.7473,-0.5394,-0.405,-0.1839,0.0,0.0,0.0,0.0,0.0,0.0,0.0,0.0,0.0,0.0,0.0,0.0,0.0,0.0,0.0,0.0,0.0,0.0,0.0,0.0,0.0,0.0,0.0,0.0,0.1091,0.3537,0.4759,0.568,0.6297,0.5696,0.4492,0.2685,0.0874,0.0,0.0,0.0,0.0,0.0,0.0,0.0,-0.0135,-0.1948,-0.3756,-0.5563,-0.7298,-0.9105,-1.0717,-1.0717,-1.0717,-1.0525,0.0,0.0,-1.067,-1.0521,-0.7695,-0.5933,-0.7631,-0.6444,-0.603,-0.7831,0.0,0.0,0.0,0.0,0.0,-1.0717,-1.0724,-1.0724,-1.0717,-1.0717,-1.0717,-1.0717,-1.0799,-1.1016,-1.122,-1.1307,-1.1457,-1.1606,-1.1606,-1.1674,-1.1816,-1.1965,-1.2115,-1.2257,-1.2115,-1.2203,-1.2461,-1.2325,-1.2189,-1.2013,-1.1572,-1.1396,-1.1396,-1.1389,-1.1294,-1.1234,-1.1234,-1.107,-1.0867,-1.0785,-1.0731,-1.0724,-1.0724,-1.0717,-1.0717,-1.0717,-0.9437,-0.8368,0.0,0.0,0.0,-1.0623,-0.8303,-0.5587,-0.573,-0.2815,0.0,0.0,0.0,0.0,0.0,0.0,0.0,0.0,0.0,0.0,0.0,0.0,0.0,0.0,0.0,0.0,0.0,0.0,0.0,0.0,0.0,0.0,0.0,0.0135,0.1747,0.5295,0.8839,0.9842,0.8097,0.6297,0.4492,0.2752,0.0874,0.0,0.0,0.0,0.0,0.0,0.0,0.0,-0.0135,-0.1881,-0.3689,-0.5496,-0.7231,-0.9039,-1.0651,-1.0651,-1.0724,-1.0751,0.0,-1.0555,-1.0575,-1.0643,-0.7615,-0.6279,-0.945,-0.7351,-0.6498,0.0,0.0,0.0,-1.0717,-1.0819,-1.0839,-1.0731,-1.0819,-1.0772,-1.0724,-1.0717,-1.0717,-1.0717,-1.0799,-1.09,-1.1009,-1.1151,-1.1246,-1.1287,-1.1287,-1.1307,-1.1348,-1.1389,-1.1491,-1.164,-1.1714,-1.1728,-1.1701,-1.1775,-1.1843,-1.1864,-1.1525,-1.1457,-1.1531,-1.1307,-1.1199,-1.1234,-1.1234,-1.1138,-1.1097,-1.1056,-1.0968,-1.0799,-1.0758,-1.0717,-1.0717,-1.0717,-0.9437,-0.8097,-0.8634,0.0,0.0,0.0,0.0,0.0,-0.5184,-0.2653,0.0,0.0,0.0,0.0,0.0,0.0,0.0,0.0,0.0,0.0,0.0,0.0,0.0,0.0,0.0,0.0,0.0,0.0,0.0,0.0,0.0,0.0,0.0,0.2484,0.4359,0.5362,0.8839,1.0452,0.9975,0.6898,0.5162,0.4626,0.1478,0.0,0.0,0.0,0.0,0.0,0.0,0.0,-0.0067,-0.0538,-0.1814,-0.3622,-0.5429,-0.7165,-0.89,-1.0246,-1.0792,-1.0826,-1.0548,-1.0588,-1.0616,-1.0704,-0.8244,-0.7294,-1.0233,-0.8302,-0.7498,0.0,0.0,0.0,-1.0717,-1.0793,-1.082,-1.0731,-1.0799,-1.0745,-1.0724,-1.0717,-1.0717,-1.0717,-1.0799,-1.088,-1.088,-1.109,-1.1234,-1.1234,-1.1234,-1.1131,-1.1077,-1.1131,-1.1179,-1.1212,-1.1362,-1.1382,-1.1301,-1.1389,-1.1511,-1.1626,-1.1389,-1.1423,-1.1599,-1.1423,-1.1355,-1.1355,-1.1355,-1.1355,-1.1335,-1.1206,-1.107,-1.0853,-1.0765,-1.0717,-1.0717,-1.0717,-0.8906,-0.7098,-0.7831,-0.616,-0.4699,-0.6543,0.0,0.0,-0.4072,-0.2105,0.0,0.0,0.0,0.0,0.0,0.0,0.0,0.0,0.0,0.0,0.0,0.0,0.0,0.0,0.0,0.0,0.0,0.0,-0.0364,-0.1132,-0.0489,0.0,0.0,0.3423,0.5429,0.5429,0.8839,1.0319,0.9576,0.6765,0.5028,0.4225,0.1344,0.0,0.0,0.0,0.0,0.0,0.0,0.0,0.0,0.0,-0.1076,-0.2819,-0.389,-0.583,-0.8097,-0.9172,-1.0136,-1.088,0.0,-1.0571,-1.0717,-1.0717,-0.9172,-0.864,-1.0472,-0.9183,-0.8645,0.0,-1.0772,-1.0772,-1.0772,-1.0894,-1.0914,-1.0758,-1.0744,-1.0738,-1.0724,-1.0717,-1.0717,-1.0717,-1.0786,-1.0853,-1.0853,-1.105,-1.1111,-1.1111,-1.1111,-1.105,-1.086,-1.1056,-1.1043,-1.086,-1.1077,-1.1131,-1.1186,-1.1131,-1.1219,-1.1328,-1.1212,-1.1348,-1.1613,-1.1579,-1.1579,-1.1592,-1.1592,-1.1606,-1.1572,-1.1287,-1.1104,-1.09,-1.0799,-1.0744,-1.0678,-1.0459,-0.8035,-0.5696,-0.7031,-0.4958,-0.2894,-0.483,-0.3794,0.0,-0.2772,-0.1383,0.0,0.0,0.0,0.0,0.0,0.0,0.0,0.0,0.0,0.0,0.0,0.0,0.0,0.0,0.0,0.0,0.0,0.0,-0.081,-0.2786,-0.1269,-0.0208,0.0,0.3222,0.5162,0.5362,0.844,0.9443,0.803,0.6097,0.4292,0.2685,0.0874,0.0,0.0,0.0,0.0,0.0,0.0,0.0,0.0,0.0,-0.0941,-0.2417,-0.2618,-0.4623,-0.7431,-0.7831,-0.9119,-1.067,-0.86,-0.9641,-1.0717,-1.0717,-0.9172,-0.8667,-1.0543,-0.9236,-0.8773,-1.0838,-1.1077,-1.1077,-1.1077,-1.1104,-1.1063,-1.0847,-1.084,-1.0853,-1.0731,-1.0717,-1.0717,-1.0717,-1.0751,-1.0765,-1.0765,-1.0792,-1.0806,-1.0806,-1.0806,-1.0792,-1.0765,-1.0792,-1.0792,-1.0772,-1.0921,-1.0921,-1.0812,-1.0941,-1.0941,-1.1043,-1.1131,-1.1348,-1.1592,-1.1348,-1.1328,-1.1436,-1.1436,-1.1511,-1.1592,-1.1409,-1.1328,-1.126,-1.0921,-1.084,-1.0537,-0.9001,-0.7031,-0.5162,-0.4024,-0.2148,-0.0942,-0.2828,-0.19,0.0,-0.2372,-0.1296,0.0,0.0,0.0,0.0,0.0,0.0,0.0,0.0,0.0,0.0,0.0,0.0,0.0,0.0,0.0,0.0,0.0,0.0,-0.0817,-0.2788,-0.2582,-0.1641,-0.0067,0.2083,0.389,0.5362,0.6097,0.6965,0.7964,0.4824,0.3021,0.2685,0.0874,0.0,0.0,0.0,0.0,0.0,0.0,0.0,0.0,0.0,-0.0202,-0.0672,-0.2148,-0.3153,-0.4091,-0.696,-0.8375,-0.9024,-0.8246,-0.9396,-1.0717,-1.0717,-0.9981,-0.9667,-1.0618,-0.9958,-0.9783,-1.0886,-1.1185,-1.1246,-1.1241,-1.1234,-1.1104,-1.0894,-1.0813,-1.0806,-1.0724,-1.0717,-1.0717,-1.0717,-1.0717,-1.0717,-1.0717,-1.0717,-1.0717,-1.0717,-1.0717,-1.0717,-1.0717,-1.0717,-1.0677,-1.0616,-1.0765,-1.0751,-1.0616,-1.0772,-1.0813,-1.088,-1.0941,-1.1124,-1.1369,-1.1145,-1.1145,-1.1274,-1.1274,-1.1375,-1.1491,-1.1416,-1.1389,-1.1328,-1.0955,-1.0934,-1.0662,-0.8617,-0.6795,-0.5069,-0.3226,-0.1411,-0.0202,-0.1143,-0.0676,0.0,0.0,-0.0676,0.0,0.0,0.0,0.0,0.0,0.0,0.0,0.0,0.0,0.0,0.0,0.0,0.0,0.0,0.0,0.0,0.0,-0.0903,-0.1843,-0.2834,-0.3765,-0.3086,-0.0135,0.1747,0.3088,0.4024,0.4961,0.5362,0.5359,0.3622,0.2216,0.1344,0.0404,0.0,0.0,0.0,0.0,0.0,0.0,0.0,0.0,0.0,0.0,-0.0067,-0.1009,-0.1881,-0.3021,-0.5696,-0.7363,-0.8538,-0.7857,-0.9238,-1.0717,-1.0717,-1.0717,-1.0731,-1.0758,-1.0738,-1.0785,-1.0968,-1.1226,-1.1355,-1.126,-1.1199,-1.1151,-1.1055,-1.0806,-1.0758,-1.0846,-1.0765,-1.0717,-1.0717,-1.0717,-1.0717,-1.0717,-1.0717,-1.0717,-1.0717,-1.0717,-1.0717,-1.0717,-1.0717,-1.0656,-1.0541,-1.0663,-1.0649,-1.0548,-1.067,-1.0792,-1.0826,-1.0772,-1.088,-1.1104,-1.0962,-1.0995,-1.1131,-1.1185,-1.1307,-1.1436,-1.1436,-1.1436,-1.1362,-1.0941,-1.0765,-1.0266,-0.8097,-0.6345,-0.462,-0.2694,-0.1143,0.0,0.0,0.0,0.0,0.0,0.0,0.0,0.0,0.0,0.0,0.0,0.0,0.0,0.0,0.0,0.0,0.0,0.0,0.0,0.0,0.0,0.0,0.0,-0.208,-0.3119,-0.2386,-0.4461,-0.406,-0.0202,0.1411,0.235,0.2685,0.3756,0.3823,0.2685,0.235,0.1478,0.0,0.0,0.0,0.0,0.0,0.0,0.0,0.0,0.0,0.0,0.0,0.0,0.0,0.0,-0.0874,-0.2417,-0.4225,-0.6072,-0.7955,-0.6332,-0.8374,-1.0717,-1.0717,-1.0717,-1.0765,-1.0833,-1.0806,-1.0819,-1.1104,-1.1287,-1.1436,-1.1552,-1.1328,-1.1314,-1.1694,-1.1111,-1.0887,-1.1287,-1.0941,-1.0717,-1.0717,-1.0717,-1.0717,-1.0717,-1.0717,-1.0717,-1.0717,-1.0717,-1.0717,-1.0717,-1.0717,-1.0711,-1.0697,-1.0711,-1.0711,-1.0697,-1.0711,-1.0731,-1.0744,-1.0724,-1.0819,-1.0887,-1.0806,-1.0839,-1.0941,-1.1274,-1.1463,-1.1592,-1.1592,-1.1592,-1.1538,-1.1212,-1.0091,-0.84,-0.6282,-0.4431,-0.2623,-0.0807,-0.0135,0.0,0.0,0.0,0.0,0.0,0.0,0.0,0.0,0.0,0.0,0.0,0.0,0.0,0.0,0.0,0.0,0.0,0.0,0.0,0.0,0.0,0.0,0.0,-0.3197,-0.3911,-0.0561,-0.3592,-0.3952,-0.0202,0.0202,0.1076,0.2618,0.1344,0.1277,0.2685,0.1076,0.0202,0.0,0.0,0.0,0.0,0.0,0.0,0.0,0.0,0.0,0.0,0.0,0.0,0.0,0.0,-0.0135,-0.0538,-0.235,-0.4163,-0.5778,-0.7337,-0.8972,-1.0717,-1.0717,-1.0717,-1.0744,-1.0806,-1.0907,-1.1023,-1.1145,-1.1375,-1.1613,-1.185,-1.1606,-1.1538,-1.1809,-1.1389,-1.1151,-1.1253,-1.1002,-1.0887,-1.0975,-1.0812,-1.0765,-1.0786,-1.0765,-1.0717,-1.0717,-1.0717,-1.0717,-1.0717,-1.0717,-1.067,-1.0595,-1.0677,-1.067,-1.0602,-1.0778,-1.0853,-1.086,-1.0941,-1.0968,-1.086,-1.0778,-1.0745,-1.0921,-1.1287,-1.1436,-1.147,-1.1382,-1.1416,-1.1416,-1.1029,-0.9781,-0.8124,-0.6013,-0.4182,-0.2375,-0.0539,0.0,0.0,0.0,0.0,0.0,0.0,0.0,0.0,0.0,0.0,0.0,0.0,0.0,0.0,0.0,0.0,0.0,0.0,0.0,0.0,0.0,0.0,-0.0429,-0.1579,-0.407,-0.4521,-0.1872,-0.4118,-0.3944,-0.0202,0.0,0.0336,0.1076,0.0404,0.0336,0.1143,0.0404,0.0,0.0,0.0,0.0,0.0,0.0,0.0,0.0,0.0,0.0,0.0,0.0,0.0,0.0,0.0,0.0,-0.0202,-0.2016,-0.3153,-0.3957,-0.8944,-0.9775,-1.0717,-1.0717,-1.0717,-1.0717,-1.0717,-1.09,-1.107,-1.122,-1.1396,-1.1687,-1.2026,-1.187,-1.185,-1.2115,-1.1755,-1.1484,-1.1487,-1.1158,-1.1016,-1.1043,-1.0873,-1.0745,-1.082,-1.0819,-1.0765,-1.0717,-1.0717,-1.0717,-1.0717,-1.0717,-1.0663,-1.0561,-1.0717,-1.0697,-1.0575,-1.088,-1.0914,-1.0894,-1.1104,-1.1077,-1.0867,-1.0759,-1.088,-1.1043,-1.1301,-1.1416,-1.1436,-1.1328,-1.1335,-1.1328,-1.0955,-0.9381,-0.7392,-0.5871,-0.3852,-0.177,-0.0405,0.0,0.0,0.0,0.0,0.0,0.0,0.0,0.0,0.0,0.0,0.0,0.0,0.0,0.0,0.0,0.0,0.0,0.0,0.0,0.0,0.0,0.0,-0.056,-0.195,-0.4205,-0.4608,-0.2255,-0.4221,-0.3924,-0.0201,0.0,0.0,0.0,0.0,0.0,0.0,0.0,0.0,0.0,0.0,0.0,0.0,0.0,0.0,0.0,0.0,0.0,0.0,0.0,0.0,0.0,0.0,0.0,-0.0135,-0.1478,-0.2283,-0.2819,-1.0624,-1.0651,-1.0717,-1.0717,-1.0717,-1.0717,-1.0717,-1.0731,-1.0839,-1.1193,-1.1301,-1.1565,-1.2013,-1.2054,-1.2284,-1.2874,-1.2244,-1.1877,-1.2026,-1.1555,-1.1029,-1.0744,-1.0799,-1.0806,-1.0731,-1.0799,-1.0799,-1.0717,-1.0717,-1.0717,-1.0717,-1.0717,-1.0717,-1.0717,-1.0806,-1.0786,-1.0731,-1.1029,-1.1077,-1.0894,-1.1104,-1.1077,-1.088,-1.0873,-1.1029,-1.1179,-1.1335,-1.1484,-1.1613,-1.1606,-1.1511,-1.1362,-1.1199,-0.8628,-0.5662,-0.5453,-0.2887,-0.0067,0.0,0.0,0.0,0.0,0.0,0.0,0.0,0.0,0.0,0.0,0.0,0.0,0.0,0.0,0.0,0.0,0.0,0.0,0.0,0.0,0.0,0.0,0.0,0.0,-0.0069,-0.3291,-0.3954,-0.0337,-0.3425,-0.3803,-0.0198,0.0,0.0,0.0,0.0,0.0,0.0,0.0,0.0,0.0,0.0,0.0,0.0,0.0,0.0,0.0,0.0,0.0,0.0,0.0,0.0,0.0,0.0,0.0,0.0,-0.0067,-0.121,-0.2484,-1.0711,-1.0717,-1.0717,-1.0717,-1.0717,-1.0751,-1.0786,-1.0955,-1.1192,-1.1766,-1.0546,-0.9856,-1.0536,-0.9077,-0.8771,-1.0622,-1.0458,-1.0755,-1.2154,-1.1925,-1.1787,-1.1613,-1.147,-1.1369,-1.1314,-1.1165,-1.1016,-1.0806,-1.0772,-1.0717,-1.0717,-1.0717,-1.0717,-1.0724,-1.0772,-1.0772,-1.0738,-1.1036,-1.1131,-1.1104,-1.1253,-1.1341,-1.1382,-1.128,-1.1212,-1.1199,-1.145,-1.1572,-1.1606,-1.1504,-1.1369,-1.1212,-1.107,-0.9273,-0.6937,-0.577,-0.3689,-0.1545,-0.0336,0.0,0.0,0.0,0.0,0.0,0.0,0.0,0.0,0.0,0.0,0.0,0.0,0.0,0.0,0.0,0.0,0.0,0.0,0.0,0.0,0.0,0.0,0.0,0.0,-0.2213,-0.2605,-0.0202,-0.2264,-0.2587,-0.0134,0.0,0.0,0.0,0.0,0.0,0.0,0.0,0.0,0.0,0.0,0.0,0.0,0.0,0.0,0.0,0.0,0.0,0.0,0.0,0.0,0.0,0.0,0.0,0.0,0.0,-0.0404,-0.0808,-1.0731,-1.0717,-1.0717,-1.0717,-1.0717,-1.0772,-1.086,-1.1118,-1.1443,-1.2067,-1.0205,-0.91,-0.9768,-0.7635,-0.6794,-0.8445,-0.9178,-1.0009,-1.1008,-1.1737,-1.2047,-1.183,-1.1742,-1.1647,-1.1538,-1.1396,-1.1199,-1.088,-1.0786,-1.0772,-1.0717,-1.0717,-1.0717,-1.0724,-1.0778,-1.0772,-1.0744,-1.1097,-1.1212,-1.1179,-1.1328,-1.145,-1.1531,-1.143,-1.1328,-1.1274,-1.1531,-1.1586,-1.1525,-1.1423,-1.1287,-1.1138,-1.0995,-0.9551,-0.7631,-0.5897,-0.4091,-0.2283,-0.0471,0.0,0.0,0.0,0.0,0.0,0.0,0.0,0.0,0.0,0.0,0.0,0.0,0.0,0.0,0.0,0.0,0.0,0.0,0.0,0.0,0.0,0.0,0.0,0.0,-0.1658,-0.1976,-0.0133,-0.1706,-0.19,-0.0066,0.0,0.0,0.0,0.0,0.0,0.0,0.0,0.0,0.0,0.0,0.0,0.0,0.0,0.0,0.0,0.0,0.0,0.0,0.0,0.0,0.0,0.0,0.0,0.0,0.0,0.0,0.0,-1.0751,-1.0717,-1.0724,-1.0731,-1.0724,-1.0772,-1.086,-1.1212,-1.1579,-1.2033,-1.0374,-0.9252,-0.9636,-0.7584,-0.6292,-0.654,-0.8379,-0.9301,-0.8808,-1.0938,-1.1911,-1.1335,-1.1649,-1.1728,-1.1443,-1.1565,-1.1416,-1.0914,-1.0894,-1.0806,-1.0731,-1.0724,-1.0717,-1.0724,-1.0806,-1.0793,-1.0751,-1.1185,-1.1294,-1.1185,-1.1341,-1.1409,-1.1409,-1.1402,-1.1402,-1.1423,-1.1565,-1.1518,-1.1396,-1.1402,-1.1301,-1.1151,-1.1002,-0.9624,-0.7769,-0.603,-0.4225,-0.2417,-0.0605,-0.0067,0.0,0.0,0.0,0.0,0.0,0.0,0.0,0.0,0.0,0.0,0.0,0.0,0.0,0.0,0.0,0.0,0.0,0.0,0.0,0.0,0.0,0.0,0.0,-0.1523,-0.1829,-0.0129,-0.1608,-0.1801,-0.0065,0.0,0.0,0.0,0.0,0.0,0.0,0.0,0.0,0.0,0.0,0.0,0.0,0.0,0.0,0.0,0.0,0.0,0.0,0.0,0.0,0.0,0.0,0.0,0.0,0.0,0.0,0.0,-1.0724,-1.0717,-1.0758,-1.0799,-1.0799,-1.0772,-1.086,-1.1318,-1.1918,-1.2488,-0.9381,-0.7361,-0.7757,-0.4138,-0.2316,-0.3996,-0.4659,-0.5593,-0.7051,-0.9148,-1.0207,-0.9916,-1.1498,-1.2244,-1.206,-1.187,-1.1667,-1.1443,-1.1042,-1.086,-1.082,-1.0772,-1.0717,-1.0724,-1.0758,-1.0758,-1.0738,-1.0894,-1.1165,-1.1348,-1.1497,-1.1626,-1.1708,-1.1599,-1.1558,-1.1565,-1.1606,-1.1518,-1.1409,-1.1525,-1.1457,-1.1307,-1.1158,-1.0662,-0.9777,-0.7856,-0.6097,-0.4292,-0.2484,-0.1009,0.0,0.0,0.0,0.0,0.0,0.0,0.0,0.0,0.0,0.0,0.0,0.0,0.0,0.0,0.0,0.0,0.0,0.0,0.0,0.0,0.0,0.0,0.0,-0.0389,-0.0512,-0.0065,-0.0447,-0.0512,0.0,0.0,0.0,0.0,0.0,0.0,0.0,0.0,0.0,0.0,0.0,0.0,0.0,0.0,0.0,0.0,0.0,0.0,0.0,0.0,0.0,0.0,0.0,0.0,0.0,0.0,0.0,0.0,-1.0731,-1.0772,-1.0779,-1.0867,-1.109,-1.1233,-1.1251,-1.1565,-1.1952,-1.2549,-0.895,-0.6436,-0.6694,-0.2754,-0.0518,-0.1784,-0.2798,-0.3776,-0.4834,-0.788,-0.9482,-0.9316,-1.137,-1.2433,-1.2291,-1.2054,-1.183,-1.1619,-1.1233,-1.1009,-1.088,-1.0792,-1.0717,-1.0717,-1.0717,-1.0717,-1.0731,-1.0948,-1.1219,-1.1491,-1.1511,-1.1606,0.0,-1.1572,-1.1518,-1.1531,-1.1592,-1.1518,-1.1402,-1.1491,-1.1463,-1.1362,-1.1212,-1.1104,-1.0668,-0.8682,-0.7435,-0.6076,-0.3427,-0.1948,-0.101,-0.0203,0.0,0.0,0.0,0.0,0.0,0.0,0.0,0.0,0.0,0.0,0.0,0.0,0.0,0.0,0.0,0.0,0.0,0.0,0.0,0.0,0.0,0.0,0.0,0.0,-0.076,-0.0828,-0.0065,-0.0722,-0.08,0.0,0.0,0.0,0.0,0.0,0.0,0.0,0.0,0.0,0.0,0.0,0.0,0.0,0.0,0.0,0.0,0.0,0.0,0.0,0.0,0.0,0.0,0.0,0.0,0.0,-1.0778,-1.0887,-1.0934,-1.0914,-1.147,-1.1877,-1.1938,-1.1898,-1.204,-1.2556,-0.8864,-0.6209,-0.639,-0.2542,0.0,0.0,-0.1851,-0.2832,-0.2529,-0.6408,-0.8744,-0.8797,-1.0952,-1.2132,-1.2318,-1.2149,-1.1925,-1.1647,-1.1321,-1.109,-1.088,-1.0792,-1.0717,-1.0717,-1.0717,-1.0717,-1.0738,-1.1036,-1.1314,-1.1552,-1.1457,-1.1497,-1.1606,-1.147,-1.1423,-1.1436,-1.1572,-1.1518,-1.1396,-1.1416,-1.1423,-1.1396,-1.124,-1.1261,-1.0882,-0.9154,-0.8502,-0.7592,-0.433,-0.3103,-0.2371,-0.0755,-0.0209,0.0,0.0,0.0,0.0,0.0,0.0,0.0,0.0,0.0,0.0,0.0,0.0,0.0,0.0,0.0,0.0,0.0,0.0,0.0,0.0,0.0,0.0,0.0,-0.1705,-0.1906,-0.0065,-0.1699,-0.1867,-0.0069,0.0,0.0,0.0,0.0,0.0,0.0,0.0,0.0,0.0,0.0,0.0,0.0,0.0,0.0,0.0,0.0,0.0,0.0,0.0,0.0,0.0,0.0,0.0,0.0,-1.0867,-1.1124,-1.1274,-1.1145,-1.1619,-1.2149,-1.2515,-1.2868,-1.3125,-1.3227,-0.954,-0.6952,-0.6938,-0.2757,0.0,0.0,-0.0338,-0.0588,-0.0502,-0.287,-0.5013,-0.6755,-0.884,-1.0767,-1.2467,-1.2203,-1.1972,-1.1796,-1.1369,-1.109,-1.088,-1.0792,-1.0717,-1.0717,-1.0717,-1.0717,-1.0738,-1.1036,-1.1261,-1.126,-1.1491,-1.1592,-1.1613,-1.1592,-1.1579,-1.1586,-1.1613,-1.1518,-1.1409,-1.1538,-1.1579,-1.1552,-1.1402,-1.1348,-1.1251,-1.0819,-0.9665,-0.8341,-0.7695,-0.52,-0.2781,-0.2439,-0.1199,0.0,0.0,0.0,0.0,0.0,0.0,0.0,0.0,0.0,0.0,0.0,0.0,0.0,0.0,0.0,0.0,0.0,0.0,0.0,0.0,0.0,0.0,0.0,-0.1668,-0.1935,-0.0066,-0.1708,-0.1875,-0.007,0.0,0.0,0.0,0.0,0.0,0.0,0.0,0.0,0.0,0.0,0.0,0.0,0.0,0.0,0.0,0.0,0.0,0.0,0.0,0.0,0.0,0.0,0.0,0.0,-1.1332,-1.1396,-1.147,-1.1708,-1.2115,-1.2562,-1.301,-1.3526,-1.3729,-1.3336,-0.9473,-0.6676,-0.6721,-0.2672,0.0,0.0,0.0,0.0,0.0,-0.1985,-0.3589,-0.4619,-0.6687,-0.8729,-1.0856,-1.0603,-1.0971,-1.1952,-1.1423,-1.1124,-1.1056,-1.0826,-1.0717,-1.0717,-1.0717,-1.0806,-1.0962,-1.1104,-1.1253,-1.1409,-1.1558,-1.1619,-1.1619,-1.1619,-1.1619,-1.1619,-1.1619,-1.1572,-1.1518,-1.1592,-1.1619,-1.1606,-1.1531,-1.1511,-1.1477,-1.1328,-1.0715,-0.9783,-0.8809,-0.6422,-0.406,-0.3102,-0.1422,0.0,0.0,0.0,0.0,0.0,0.0,0.0,0.0,0.0,0.0,0.0,0.0,0.0,0.0,0.0,0.0,0.0,0.0,0.0,0.0,0.0,0.0,0.0,-0.1686,-0.1893,-0.0066,-0.1723,-0.1886,-0.0069,0.0,0.0,0.0,0.0,0.0,0.0,0.0,0.0,0.0,0.0,0.0,0.0,0.0,0.0,0.0,0.0,0.0,0.0,0.0,0.0,0.0,0.0,0.0,0.0,-1.1904,-1.1789,-1.1823,-1.2298,-1.2684,-1.3037,-1.3397,-1.3933,-1.4089,-1.3492,-0.937,-0.6434,-0.6463,-0.2595,0.0,0.0,0.0,0.0,0.0,-0.1499,-0.2631,-0.3095,-0.4733,-0.6576,-0.8705,-0.8883,-0.9719,-1.1366,-1.1244,-1.1165,-1.1063,-1.0833,-1.0717,-1.0724,-1.0785,-1.0928,-1.1124,-1.1185,-1.1348,-1.1572,-1.1606,-1.1619,-1.1619,-1.1619,-1.1619,-1.1619,-1.1619,-1.1619,-1.1619,-1.1619,-1.1619,-1.1619,-1.1619,-1.1599,-1.1552,-1.1463,-1.1416,-1.1087,-0.959,-0.7739,-0.5785,-0.3997,-0.2078,-0.0504,-0.0073,0.0,0.0,0.0,0.0,0.0,0.0,0.0,0.0,0.0,0.0,0.0,0.0,0.0,0.0,0.0,0.0,0.0,0.0,0.0,0.0,0.0,-0.1707,-0.1915,-0.0066,-0.1736,-0.1893,-0.0069,0.0,0.0,0.0,0.0,0.0,0.0,0.0,0.0,0.0,0.0,0.0,0.0,0.0,0.0,0.0,0.0,0.0,0.0,0.0,0.0,0.0,0.0,0.0,0.0,-1.2244,-1.244,-1.2623,-1.2678,-1.3166,-1.3559,-1.36,-1.4,-1.4278,-1.4204,-1.0023,-0.7013,-0.7007,-0.283,0.0,0.0,0.0,0.0,0.0,-0.0168,-0.1157,-0.3048,-0.3306,-0.4378,-0.6518,-0.8297,-0.904,-0.8806,-1.0528,-1.1158,-1.0758,-1.0731,-1.0717,-1.0731,-1.1002,-1.1063,-1.0921,-1.1253,-1.1389,-1.1423,-1.1565,-1.1619,-1.1619,-1.1619,-1.1619,-1.1619,-1.1619,-1.1619,-1.1619,-1.1619,-1.1619,-1.1619,-1.1619,-1.1525,-1.1436,-1.1558,-1.1497,-1.1416,-1.1324,-0.9905,-0.7954,-0.6011,-0.4061,-0.2179,-0.0437,0.0,0.0,0.0,0.0,0.0,0.0,0.0,0.0,0.0,0.0,0.0,0.0,0.0,0.0,0.0,0.0,0.0,0.0,0.0,0.0,0.0,-0.1675,-0.1878,-0.0067,-0.1746,-0.1893,-0.0069,0.0,0.0,0.0,0.0,0.0,0.0,0.0,0.0,0.0,0.0,0.0,0.0,0.0,0.0,0.0,0.0,0.0,0.0,0.0,0.0,0.0,0.0,0.0,0.0,-1.2956,-1.2908,-1.2976,-1.3336,-1.3451,-1.3614,-1.398,-1.4183,-1.3761,-1.2325,-0.9197,-0.6525,-0.5186,-0.1964,0.0,0.0,0.0,0.0,0.0,0.0,-0.0336,-0.1241,-0.1229,-0.2193,-0.4346,-0.503,-0.6528,-0.8706,-0.934,-1.0171,-1.1118,-1.0941,-1.0793,-1.0799,-1.107,-1.1179,-1.1219,-1.1341,-1.1443,-1.1531,-1.1592,-1.1619,-1.1619,-1.1619,-1.1619,-1.1619,-1.1619,-1.1619,-1.1619,-1.1619,-1.1619,-1.1619,-1.1619,-1.1511,-1.1423,-1.1572,-1.1511,-1.1423,-1.1579,-1.0161,-0.8271,-0.6315,-0.4358,-0.24,-0.0437,0.0,0.0,0.0,0.0,0.0,0.0,0.0,0.0,0.0,0.0,0.0,0.0,0.0,0.0,0.0,0.0,0.0,0.0,0.0,0.0,0.0,-0.0672,-0.074,-0.0067,-0.0672,-0.0741,0.0,0.0,0.0,0.0,0.0,0.0,0.0,0.0,0.0,0.0,0.0,0.0,0.0,0.0,0.0,0.0,0.0,0.0,0.0,0.0,0.0,0.0,0.0,0.0,0.0,-1.3512,-1.3363,-1.3383,-1.3885,-1.3804,-1.381,-1.4238,-1.3673,-1.2414,-1.0002,-0.7591,-0.5454,-0.3759,-0.1434,0.0,0.0,0.0,-0.0263,-0.1037,-0.0431,-0.0341,-0.1003,-0.0417,-0.0661,-0.2193,-0.2706,-0.4597,-0.8013,-0.8366,-0.9546,-1.1389,-1.1179,-1.1056,-1.1023,-1.1212,-1.1335,-1.1396,-1.1436,-1.1518,-1.1619,-1.1667,-1.1681,-1.1687,-1.1735,-1.1721,-1.1681,-1.1681,-1.1653,-1.1619,-1.1619,-1.1619,-1.1619,-1.1619,-1.1511,-1.1423,-1.1572,-1.1511,-1.1423,-1.1579,-1.0593,-0.8925,-0.646,-0.4794,-0.3127,-0.0583,0.0,0.0,0.0,0.0,0.0,0.0,0.0,0.0,0.0,0.0,0.0,0.0,0.0,0.0,0.0,0.0,0.0,0.0,0.0,0.0,0.0,0.0,0.0,0.0,0.0538,0.0808,0.088,0.0831,0.0841,0.0841,0.0286,0.0,0.0,0.0,0.0,0.0,0.0,0.0,0.0,0.0,0.0,0.0,0.0,0.0,0.0,0.0,0.0,0.0,0.0,0.0,0.0,-1.3777,-1.3831,-1.3926,-1.4238,-1.4292,-1.4292,-1.4299,-1.2237,-0.9913,-0.7502,-0.5097,-0.3669,-0.358,-0.1434,0.0,0.0,0.0,-0.0971,-0.3434,-0.131,-0.1037,-0.3411,-0.1268,0.0,0.0,-0.2086,-0.399,-0.5801,-0.7734,-0.963,-1.1389,-1.1389,-1.1307,-1.1241,-1.1477,-1.1531,-1.1402,-1.1552,-1.1619,-1.1633,-1.1775,-1.183,-1.1843,-1.1999,-1.1965,-1.183,-1.183,-1.1735,-1.1619,-1.1619,-1.1619,-1.1619,-1.1619,-1.1511,-1.1423,-1.1572,-1.1511,-1.1423,-1.1579,-1.1548,-1.0671,-0.6753,-0.5808,-0.4721,-0.0875,0.0,0.0,0.0,0.0,0.0,0.0,0.0,0.0,0.0,0.0,0.0,0.0,0.0,0.0,0.0,0.0,0.0,0.0,0.0,0.0,0.0,0.0,0.0,0.0,0.168,0.2702,0.2877,0.271,0.2728,0.2869,0.0981,0.0,0.0,0.0,0.0,0.0,0.0,0.0,0.0,0.0,0.0,0.0,0.0,0.0,0.0,0.0,0.0,0.0,0.0,0.0,0.0,-1.4136,-1.4156,-1.4183,-1.4285,-1.4299,-1.4299,-1.4299,-1.2237,-0.9824,-0.7413,-0.5097,-0.2955,-0.1345,-0.0449,0.0,0.0,0.0,-0.1068,-0.3437,-0.2899,-0.3488,-0.5859,-0.3754,-0.2454,-0.2436,-0.1474,-0.2639,-0.5945,-0.659,-0.8498,-1.1552,-1.1647,-1.1558,-1.1328,-1.1531,-1.1592,-1.1552,-1.1599,-1.1619,-1.1619,-1.1667,-1.1687,-1.1694,-1.1742,-1.1728,-1.1687,-1.1687,-1.166,-1.1619,-1.1619,-1.1619,-1.1619,-1.1619,-1.1511,-1.1423,-1.1572,-1.1511,-1.1423,-1.1579,-1.1619,-1.0966,-0.8415,-0.6749,-0.5156,-0.2545,-0.0947,0.0,0.0,0.0,0.0,0.0,0.0,0.0,0.0,0.0,0.0,0.0,0.0,0.0,0.0,0.0,0.0,0.0,0.0,0.0,0.0,0.0,0.0,0.0,0.183,0.2866,0.2879,0.2873,0.2835,0.2906,0.0994,0.0,0.0,0.0,0.0,0.0,0.0,0.0,0.0,0.0,0.0,0.0,0.0,0.0,0.0,0.0,0.0,0.0,0.0,0.0,0.0,-1.4299,-1.4299,-1.4027,-1.3135,-1.2952,-1.2597,-1.1699,-0.9557,-0.7506,-0.599,-0.3759,-0.1703,-0.018,0.0,0.0,0.0,0.0,-0.143,-0.4695,-0.4075,-0.5022,-0.8271,-0.6117,-0.4442,-0.3645,-0.2896,-0.3727,-0.6128,-0.7611,-0.9532,-1.1789,-1.1877,-1.1789,-1.1558,-1.1653,-1.1667,-1.1619,-1.1619,-1.1619,-1.1626,-1.1681,-1.1701,-1.1708,-1.183,-1.1796,-1.1708,-1.1762,-1.1714,-1.1619,-1.1619,-1.1619,-1.1619,-1.1619,-1.1552,-1.1497,-1.1592,-1.1552,-1.1497,-1.1592,-1.1619,-1.1109,-0.9213,-0.7255,-0.5084,-0.2401,-0.0874,0.0,0.0,0.0,0.0,0.0,0.0,0.0,0.0,0.0,0.0,0.0,0.0,0.0,0.0,0.0,0.0,0.0,0.0,0.0,0.0,0.0,0.0269,0.1009,0.2857,0.4255,0.4965,0.4999,0.4698,0.399,0.206,0.0705,0.0,0.0,0.0,0.0,0.0,0.0,0.0,0.0,0.0,0.0,0.0,0.0,0.0,0.0,0.0,0.0,0.0,0.0,0.0,-1.4299,-1.421,-1.3312,-1.1072,-1.054,-0.9735,-0.7413,-0.5097,-0.358,-0.358,-0.1524,0.0,0.0,0.0,0.0,0.0,0.0,-0.2061,-0.679,-0.5097,-0.5961,-1.0739,-0.8527,-0.6173,-0.4124,-0.5805,-0.6679,-0.6529,-1.0417,-1.223,-1.2081,-1.2067,-1.1979,-1.183,-1.1823,-1.1742,-1.1619,-1.1619,-1.1626,-1.1647,-1.1775,-1.1837,-1.1877,-1.2162,-1.2088,-1.185,-1.1993,-1.1864,-1.1619,-1.1619,-1.1619,-1.1619,-1.1619,-1.1619,-1.1619,-1.1619,-1.1619,-1.1619,-1.1619,-1.1619,-1.1181,-0.9357,-0.7327,-0.4796,-0.0875,0.0,0.0,0.0,0.0,0.0,0.0,0.0,0.0,0.0,0.0,0.0,0.0,0.0,0.0,0.0,0.0,0.0,0.0,0.0,0.0,0.0,0.0,0.0875,0.2823,0.4623,0.6473,0.8441,0.8484,0.7615,0.5838,0.3872,0.1946,0.0,0.0,0.0,0.0,0.0,0.0,0.0,0.0,0.0,0.0,0.0,0.0,0.0,0.0,0.0,0.0,0.0,0.0,0.0,-1.4299,-1.2863,-1.1344,-1.0806,-0.9197,-0.7773,-0.7146,-0.5097,-0.358,-0.358,-0.1524,0.0,0.0,0.0,0.0,0.0,0.0,-0.2061,-0.679,-0.6611,-0.8389,-1.3262,-1.1009,-0.9402,-0.8843,-0.7436,-0.7409,-0.8828,-1.1286,-1.2379,-1.2237,-1.2115,-1.1979,-1.1823,-1.1714,-1.1653,-1.1619,-1.1619,-1.1681,-1.1782,-1.1816,-1.1904,-1.2013,-1.2088,-1.1999,-1.1837,-1.187,-1.1769,-1.1619,-1.1619,-1.1619,-1.1619,-1.1619,-1.1619,-1.1619,-1.1619,-1.1619,-1.1619,-1.1619,-1.1619,-1.1476,-1.1038,-0.8348,-0.4796,-0.0875,0.0,0.0,0.0,0.0,0.0,0.0,0.0,0.0,0.0,0.0,0.0,0.0,0.0,0.0,0.0,0.0,0.0,0.0,0.0,0.0,0.0,0.0,0.1433,0.4765,0.5447,0.6607,0.8441,0.8632,0.7759,0.5838,0.3872,0.1937,0.0,0.0,0.0,0.0,0.0,0.0,0.0,0.0,0.0,0.0,0.0,0.0,0.0,0.0,0.0,0.0,0.0,0.0,0.0,-1.4299,-1.2325,-1.0357,-0.9286,-0.7057,-0.5097,-0.4027,-0.2776,-0.1971,-0.1971,-0.0807,0.0,0.0,0.0,0.0,0.0,0.0,-0.2061,-0.679,-0.7057,-0.9286,-1.4122,-1.2929,-1.1646,-1.0548,-1.0067,-1.0312,-1.1145,-1.2057,-1.2461,-1.2386,-1.2237,-1.2121,-1.2033,-1.1816,-1.1714,-1.1714,-1.1714,-1.1762,-1.183,-1.183,-1.1925,-1.2135,-1.2135,-1.1965,-1.1837,-1.1911,-1.1803,-1.1619,-1.1619,-1.1619,-1.1619,-1.1619,-1.1619,-1.1619,-1.1619,-1.1619,-1.1619,-1.1619,-1.1619,-1.1397,-1.0521,-0.8054,-0.5011,-0.2039,-0.0656,0.0,0.0,0.0,0.0,0.0,0.0,0.0,0.0,0.0,0.0,0.0,0.0,0.0,0.0,0.0,0.0,0.0,0.0,0.0,0.0,0.0,0.1662,0.5384,0.5733,0.7042,0.9719,0.9924,0.8596,0.5838,0.3009,0.1033,0.0,0.0,0.0,0.0,0.0,0.0,0.0,0.0,0.0,0.0,0.0,0.0,0.0,0.0,0.0,0.0,0.0,0.0,0.0,-1.4299,-1.2059,-0.9468,-0.7413,-0.4829,-0.233,-0.0269,0.0,0.0,0.0,0.0,0.0,0.0,0.0,0.0,0.0,0.0,-0.2061,-0.679,-0.7057,-0.9282,-1.4088,-1.4116,-1.3089,-1.1047,-1.2602,-1.3329,-1.2929,-1.2644,-1.2501,-1.2501,-1.2332,-1.2257,-1.2244,-1.1938,-1.1809,-1.183,-1.1809,-1.1823,-1.1864,-1.1837,-1.1938,-1.2094,-1.2094,-1.1999,-1.1884,-1.204,-1.1904,-1.1653,-1.1681,-1.1674,-1.1653,-1.1653,-1.1653,-1.1647,-1.1626,-1.1633,-1.1647,-1.1626,-1.1619,-1.1109,-0.9213,-0.7255,-0.5301,-0.3342,-0.1384,0.0,0.0,0.0,0.0,0.0,0.0,0.0,0.0,0.0,0.0,0.0,0.0,0.0,0.0,0.0,0.0,0.0,0.0,0.0,0.0,0.0,0.1545,0.5039,0.5309,0.6981,1.042,1.114,0.9623,0.5838,0.195,0.0,0.0,0.0,0.0,0.0,0.0,0.0,0.0,0.0,0.0,0.0,0.0,0.0,0.0,0.0,0.0,0.0,0.0,0.0,0.0,-1.4299,-1.0717,-0.7502,-0.7146,-0.349,-0.0449,-0.009,0.0,0.0,0.0,0.0,0.0,0.0,0.0,0.0,0.0,0.0,-0.2061,-0.679,-0.7057,-0.9162,-1.3934,-1.396,-1.3633,-1.3154,-1.3104,-1.2969,-1.2766,-1.2589,-1.2501,-1.2494,-1.2223,-1.2094,-1.2088,-1.1782,-1.1714,-1.1823,-1.1701,-1.1796,-1.2013,-1.1884,-1.1999,-1.2257,-1.2257,-1.2162,-1.2047,-1.2203,-1.206,-1.1816,-1.1952,-1.1904,-1.1796,-1.1796,-1.1796,-1.1775,-1.1653,-1.1701,-1.1775,-1.1653,-1.1619,-1.1109,-0.9213,-0.7255,-0.5301,-0.3342,-0.1384,0.0,0.0,0.0,0.0,0.0,0.0,0.0,0.0,0.0,0.0,0.0,0.0,0.0,0.0,0.0,0.0,0.0,0.0,0.0,0.0,0.0,0.0997,0.3197,0.3345,0.4366,0.6585,0.9844,0.9715,0.5838,0.1968,0.0,0.0,0.0,0.0,0.0,0.0,0.0,0.0,0.0,0.0,0.0,0.0,0.0,0.0,0.0,0.0,0.0,0.0,0.0,0.0,-1.0446,-0.7595,-0.5186,-0.5186,-0.233,-0.0449,-0.1703,-0.1971,-0.2419,-0.3669,-0.2687,-0.1971,-0.1971,-0.0807,0.0,0.0,0.0,-0.2061,-0.679,-0.7057,-0.9153,-1.3901,-1.4,-1.3817,-1.3512,-1.3146,-1.2888,-1.2732,-1.2576,-1.2501,-1.2494,-1.2284,-1.2182,-1.2176,-1.187,-1.1769,-1.183,-1.1762,-1.1809,-1.1932,-1.1857,-1.2013,-1.2284,-1.2196,-1.2176,-1.2182,-1.2169,-1.2074,-1.1952,-1.1938,-1.1945,-1.1952,-1.1952,-1.1952,-1.1925,-1.1775,-1.1728,-1.1701,-1.164,-1.1619,-1.1397,-1.0521,-0.7982,-0.5591,-0.4649,-0.2183,0.0,0.0,0.0,0.0,0.0,0.0,0.0,0.0,0.0,0.0,0.0,0.0,0.0,0.0,0.0,0.0,0.0,0.0,0.0,0.0,0.0,0.0867,0.2809,0.2881,0.3826,0.5736,0.6532,0.5986,0.4134,0.135,0.0,0.0,0.0,0.0,0.0,0.0,0.0,0.0,0.0,0.0,0.0,0.0,0.0,0.0,0.0,0.0,0.0,0.0,0.0,0.0,-0.7057,-0.5633,-0.4383,-0.4383,-0.2866,-0.224,-0.4116,-0.4383,-0.5097,-0.6879,-0.5544,-0.4383,-0.4383,-0.224,-0.0807,-0.0807,-0.0807,-0.2597,-0.679,-0.7577,-0.974,-1.3847,-1.3953,-1.3722,-1.3308,-1.3078,-1.2868,-1.2678,-1.2562,-1.2501,-1.2501,-1.2318,-1.2237,-1.2223,-1.1918,-1.1823,-1.1877,-1.1809,-1.1823,-1.1877,-1.1809,-1.1945,-1.2176,-1.2094,-1.2135,-1.223,-1.2182,-1.2142,-1.2101,-1.2013,-1.204,-1.2115,-1.2115,-1.2115,-1.2088,-1.1932,-1.1809,-1.1714,-1.1681,-1.1667,-1.166,-1.1626,-0.8709,-0.5808,-0.5808,-0.2765,0.0,0.0,0.0,0.0,0.0,0.0,0.0,0.0,0.0,0.0,0.0,0.0,0.0,0.0,0.0,0.0,0.0,0.0,0.0,0.0,0.0,0.0659,0.212,0.2198,0.2931,0.4381,0.3421,0.2823,0.2724,0.0933,0.0,0.0,0.0,0.0,0.0,0.0,0.0,0.0,0.0,0.0,0.0,0.0,0.0,0.0,0.0,0.0,0.0,0.0,0.0,0.0,-0.7057,-0.6968,-0.6879,-0.6879,-0.67,-0.6611,-0.679,-0.6879,-0.6879,-0.7057,-0.6968,-0.6879,-0.6879,-0.474,-0.3312,-0.3312,-0.3312,-0.4383,-0.6968,-0.9114,-1.1297,-1.3693,-1.3593,-1.3308,-1.3003,-1.2969,-1.2813,-1.2522,-1.2508,-1.2501,-1.2494,-1.221,-1.2081,-1.2067,-1.1769,-1.1789,-1.2026,-1.1755,-1.1796,-1.202,-1.1742,-1.1728,-1.1877,-1.2013,-1.2142,-1.2115,-1.2372,-1.2386,-1.2291,-1.2413,-1.2372,-1.2271,-1.2271,-1.2271,-1.2244,-1.2088,-1.204,-1.1999,-1.1857,-1.1816,-1.1782,-1.1653,-0.8709,-0.5808,-0.5808,-0.2765,0.0,0.0,0.0,0.0,0.0,0.0,0.0,0.0,0.0,0.0,0.0,0.0,0.0,0.0,0.0,0.0,0.0,0.0,0.0,0.0,0.0,0.0074,0.0223,0.0225,0.03,0.0446,0.2051,0.2907,0.2903,0.0946,0.0,0.0,0.0,0.0,0.0,0.0,0.0,0.0,0.0,0.0,0.0,0.0,0.0,0.0,0.0,0.0,0.0,0.0,0.0,0.0,-0.2687,-0.3938,-0.4919,-0.4919,-0.6165,-0.7595,-0.9108,-0.9375,-0.9913,-1.1344,-1.0268,-0.9375,-0.9375,-0.7235,-0.5706,-0.5668,-0.5665,-0.6617,-0.8931,-0.9851,-1.1343,-1.3546,-1.3417,-1.3166,-1.2963,-1.2868,-1.2712,-1.2501,-1.2501,-1.2501,-1.2501,-1.2386,-1.2284,-1.2196,-1.2088,-1.1993,-1.1911,-1.1796,-1.1762,-1.1789,-1.1762,-1.1843,-1.1993,-1.2142,-1.2257,-1.2338,-1.2366,-1.2393,-1.2413,-1.2379,-1.2393,-1.242,-1.242,-1.242,-1.2413,-1.2352,-1.2271,-1.1956,-1.0526,-1.0996,-1.1796,-1.1653,-0.8709,-0.5808,-0.5808,-0.2765,0.0,0.0,0.0,0.0,0.0,0.0,0.0,0.0,0.0,0.0,0.0,0.0,0.0,0.0,0.0,0.0,0.0,0.0,0.0,0.0,0.0,0.0,0.0,0.0,0.0,0.0,0.0745,0.111,0.1093,0.0365,0.0,0.0,0.0,0.0,0.0,0.0,0.0,0.0,0.0,0.0,0.0,0.0,0.0,0.0,0.0,0.0,0.0,0.0,0.0,0.0,0.0,-0.2509,-0.474,-0.474,-0.7328,-0.9913,-1.161,-1.1788,-1.2414,-1.4122,-1.2863,-1.1776,-1.1737,-0.9596,-0.814,-0.7963,-0.7959,-0.8627,-1.0204,-1.0945,-1.2009,-1.355,-1.3336,-1.3105,-1.2963,-1.2807,-1.2657,-1.2501,-1.2501,-1.2501,-1.2501,-1.2454,-1.2386,-1.2291,-1.2237,-1.2128,-1.1965,-1.187,-1.1803,-1.1762,-1.1809,-1.1898,-1.2013,-1.221,-1.2352,-1.2427,-1.2372,-1.242,-1.2488,-1.2386,-1.242,-1.2501,-1.2501,-1.2501,-1.2501,-1.2501,-1.1965,-1.1109,-0.96,-0.9548,-1.0059,-1.0559,-0.7738,-0.5038,-0.567,-0.2765,0.0,0.0,0.0,0.0,0.0,0.0,0.0,0.0,0.0,0.0,0.0,0.0,0.0,0.0,0.0,0.0,0.0,0.0,0.0,0.0,0.0,0.0,0.0,0.0,0.0,0.0,0.0,0.0,0.0,0.0,0.0,0.0,0.0,0.0,0.0,0.0,0.0,0.0,0.0,0.0,0.0,0.0,0.0,0.0,0.0,0.0,0.0,0.0,0.0,0.0,0.0,-0.3846,-0.7146,-0.7146,-1.1072,-1.4299,-1.4299,-1.4299,-1.4299,-1.4299,-1.4299,-1.4238,-1.4089,-1.1952,-1.0498,-1.0381,-1.0371,-1.0371,-1.0285,-1.2416,-1.3627,-1.3627,-1.3336,-1.3105,-1.2963,-1.2807,-1.2657,-1.2501,-1.2501,-1.2501,-1.2501,-1.2359,-1.2291,-1.2284,-1.2135,-1.2149,-1.2271,-1.1965,-1.1925,-1.2047,-1.1898,-1.1837,-1.187,-1.2176,-1.2291,-1.2311,-1.2447,-1.2501,-1.2501,-1.2501,-1.2501,-1.2501,-1.2501,-1.2501,-1.2501,-1.2501,-1.1011,-0.9351,-0.9234,-0.7595,-0.6409,-0.8257,-0.5769,-0.3397,-0.5317,-0.2765,0.0,0.0,0.0,0.0,0.0,0.0,0.0,0.0,0.0,0.0,0.0,0.0,0.0,0.0,0.0,0.0,0.0,0.0,0.0,0.0,0.0,0.0,0.0,0.0,0.0,0.0,0.0,0.0,0.0,0.0,0.0,0.0,0.0,0.0,0.0,0.0,0.0,0.0,0.0,0.0,0.0,0.0,0.0,0.0,0.0,0.0,0.0,0.0,0.0,0.0,-0.2211,-0.4953,-0.7615,-0.9366,-1.2237,-1.4299,-1.4299,-1.4211,-1.4143,-1.4143,-1.4048,-1.396,-1.3912,-1.321,-1.2723,-1.2586,-1.2658,-1.2621,-1.252,-1.3068,-1.3471,-1.3471,-1.318,-1.3003,-1.2963,-1.2705,-1.2549,-1.2501,-1.2501,-1.2501,-1.2501,-1.2461,-1.244,-1.2433,-1.2393,-1.2338,-1.2284,-1.2196,-1.2115,-1.2067,-1.2128,-1.2155,-1.2176,-1.2366,-1.244,-1.244,-1.2488,-1.2501,-1.2501,-1.2501,-1.2501,-1.2501,-1.2501,-1.2501,-1.2192,-1.0779,-0.992,-0.874,-0.5758,-0.4435,-0.4401,-0.6195,-0.4739,-0.3028,-0.3644,-0.1833,0.0,0.0,0.0,0.0,0.0,0.0,0.0,0.0,0.0,0.0,0.0,0.0,0.0,0.0,0.0,0.0,0.0,0.0,0.0,0.0,0.0,0.0,0.0,0.0,0.0,0.0,0.0,0.0,0.0,0.0,0.0,0.0,0.0,0.0,0.0,0.0,0.0,0.0,0.0,0.0,0.0,0.0,0.0,0.0,0.0,0.0,0.0,0.0,0.0,0.0,-0.3061,-0.542,-0.78,-1.0185,-1.2559,-1.4136,-1.4197,-1.4082,-1.398,-1.398,-1.3899,-1.3475,-1.2557,-1.3239,-1.3271,-1.2275,-1.303,-1.3498,-1.3403,-1.3403,-1.3403,-1.3403,-1.3173,-1.3017,-1.2963,-1.2657,-1.2501,-1.2501,-1.2501,-1.2501,-1.2501,-1.2501,-1.2501,-1.2501,-1.2501,-1.2454,-1.2372,-1.2318,-1.2237,-1.2162,-1.225,-1.2291,-1.2305,-1.2447,-1.2501,-1.2501,-1.2501,-1.2501,-1.2501,-1.2501,-1.2501,-1.2501,-1.2501,-1.2501,-1.2108,-0.9998,-0.8828,-0.7423,-0.399,-0.2506,-0.2102,-0.3257,-0.2624,-0.1937,-0.2719,-0.1403,0.0,0.0,0.0,0.0,0.0,0.0,0.0,0.0,0.0,0.0,0.0,0.0,0.0,0.0,0.0,0.0,0.0,0.0,0.0,0.0,0.0,0.0,0.0,0.0,0.0,0.0,0.0,0.0,0.0,0.0,0.0,0.0,0.0,0.0,0.0,0.0,0.0,0.0,0.0,0.0,0.0,0.0,0.0,0.0,0.0,0.0,0.0,0.0,0.0,0.0,-0.3203,-0.5445,-0.7713,-1.0334,-1.2447,-1.3885,-1.4027,-1.3919,-1.3824,-1.3824,-1.3547,-1.2715,-1.081,-1.2162,-1.2449,-1.0471,-1.2222,-1.3403,-1.3403,-1.3403,-1.3397,-1.3383,-1.3234,-1.3085,-1.2942,-1.2678,-1.2535,-1.2522,-1.2522,-1.2515,-1.2501,-1.2501,-1.2501,-1.2501,-1.2501,-1.2501,-1.2494,-1.2366,-1.2311,-1.2311,-1.2311,-1.2311,-1.2325,-1.2454,-1.2501,-1.2501,-1.2501,-1.2501,-1.2501,-1.2501,-1.2501,-1.2501,-1.2269,-1.2192,-1.1798,-0.9527,-0.7501,-0.5552,-0.3365,-0.1411,0.0,0.0,0.0,-0.0453,-0.2232,-0.1263,0.0,0.0,0.0,0.0,0.0,0.0,0.0,0.0,0.0,0.0,0.0,0.0,0.0,0.0,0.0,0.0,0.0,0.0,0.0,0.0,0.0,0.0,0.0,0.0,0.0,0.0,0.0,0.0,0.0,0.0,0.0,0.0,0.0,0.0,0.0,0.0,0.0,0.0,0.0,0.0,0.0,0.0,0.0,0.0,0.0,0.0,0.0,0.0,0.0,0.0,-0.5375,-0.6577,-0.8223,-1.2386,-1.3515,-1.3851,-1.3885,-1.377,-1.3675,-1.3675,-1.2041,-1.1288,-1.2612,-1.1593,-1.1331,-1.2561,-1.3148,-1.3403,-1.3403,-1.3403,-1.3349,-1.3227,-1.3085,-1.2935,-1.2786,-1.2834,-1.28,-1.2678,-1.2678,-1.2617,-1.2501,-1.2501,-1.2501,-1.2501,-1.2501,-1.2501,-1.2501,-1.2467,-1.2454,-1.2454,-1.2454,-1.2454,-1.2461,-1.2488,-1.2501,-1.2501,-1.2501,-1.2501,-1.2501,-1.2501,-1.2501,-1.2192,-1.0624,-1.0075,-0.9294,-0.5549,-0.4146,-0.3366,-0.1254,-0.0314,0.0,0.0,0.0,-0.0076,-0.0522,-0.0297,0.0,0.0,0.0,0.0,0.0,0.0,0.0,0.0,0.0,0.0,0.0,0.0,0.0,0.0,0.0,0.0,0.0,0.0,0.0,0.0,0.0,0.0,0.0,0.0,0.0,0.0,0.0,0.0,0.0,0.0,0.0,0.0,0.0,0.0,0.0,0.0,0.0,0.0,0.0,0.0,0.0,0.0,0.0,0.0,0.0,0.0,0.0,0.0,0.0,0.0,-0.6162,-0.7684,-0.9488,-1.3108,-1.3682,-1.3654,-1.3729,-1.3614,-1.3519,-1.3519,-1.2439,-1.1635,-1.1801,-1.1718,-1.2139,-1.3314,-1.3336,-1.3295,-1.3295,-1.3227,-1.3152,-1.3078,-1.3003,-1.2922,-1.284,-1.2922,-1.2847,-1.2623,-1.2623,-1.2583,-1.2501,-1.2501,-1.2501,-1.2501,-1.2501,-1.2501,-1.2501,-1.2501,-1.2501,-1.2501,-1.2501,-1.2501,-1.2501,-1.2501,-1.2501,-1.2501,-1.2501,-1.2501,-1.2501,-1.2501,-1.2501,-1.2108,-1.0075,-0.9376,-0.8594,-0.43,-0.313,-0.2662,-0.0549,0.0,0.0,0.0,0.0,0.0,0.0,0.0,0.0,0.0,0.0,0.0,0.0,0.0,0.0,0.0,0.0,0.0,0.0,0.0,0.0,0.0,0.0,0.0,0.0,0.0,0.0,0.0,0.0,0.0,0.0,0.0,0.0,0.0,0.0,0.0,0.0,0.0,0.0,0.0,0.0,0.0,0.0,0.0,0.0,0.0,0.0,0.0,0.0,0.0,0.0,0.0,0.0,0.0,0.0,0.0,0.0,0.0,-0.6285,-0.8457,-1.0748,-1.314,-1.3485,-1.3444,-1.3573,-1.3485,-1.3403,-1.3403,-1.3065,-1.2305,-1.0798,-1.2287,-1.3363,-1.3363,-1.3247,-1.3173,-1.3173,-1.3085,-1.3024,-1.3077,-1.2976,-1.2949,-1.2922,-1.2895,-1.2773,-1.2542,-1.2542,-1.2528,-1.2501,-1.2501,-1.2501,-1.2501,-1.2501,-1.2501,-1.2501,-1.2501,-1.2501,-1.2501,-1.2501,-1.2501,-1.2501,-1.2501,-1.2501,-1.2501,-1.2501,-1.2501,-1.2501,-1.2501,-1.2263,-1.1637,-0.9532,-0.8594,-0.7583,-0.3687,-0.2588,-0.2194,-0.0472,0.0,0.0,0.0,0.0,0.0,0.0,0.0,0.0,0.0,0.0,0.0,0.0,0.0,0.0,0.0,0.0,0.0,0.0,0.0,0.0,0.0,0.0,0.0,0.0,0.0,0.0,0.0,0.0,0.0,0.0,0.0,0.0,0.0,0.0,0.0,0.0,0.0,0.0,0.0,0.0,0.0,0.0,0.0,0.0,0.0,0.0,0.0,0.0,0.0,0.0,0.0,0.0,0.0,0.0,0.0,0.0,0.0,-0.6285,-0.8457,-1.0721,-1.3008,-1.3417,-1.341,-1.3431,-1.3417,-1.3403,-1.3403,-1.1718,-1.1131,-1.2727,-1.3117,-1.3207,-1.3207,-1.3186,-1.3173,-1.3173,-1.3275,-1.3281,-1.3152,-1.3024,-1.2901,-1.2766,-1.263,-1.261,-1.2698,-1.2698,-1.263,-1.2501,-1.2501,-1.2501,-1.2501,-1.2501,-1.2501,-1.2501,-1.2501,-1.2501,-1.2501,-1.2501,-1.2501,-1.2501,-1.2501,-1.2501,-1.2501,-1.2501,-1.2501,-1.2501,-1.2501,-1.1327,-0.9449,-0.7349,-0.5474,-0.345,-0.1112,-0.0396,-0.0394,-0.008,0.0,0.0,0.0,0.0,0.0,0.0,0.0,0.0,0.0,0.0,0.0,0.0,0.0,0.0,0.0,0.0,0.0,0.0,0.0,0.0,0.0,0.0,0.0,0.0,0.0,0.0,0.0,0.0,0.0,0.0,0.0,0.0,0.0,0.0,0.0,0.0,0.0,0.0,0.0,0.0,0.0,0.0,0.0,0.0,0.0,0.0,0.0,0.0,0.0,0.0,0.0,0.0,0.0,0.0,0.0,0.0,0.0,-0.8123,-1.0377,-1.2222,-1.3231,-1.3329,-1.3302,-1.339,-1.3329,-1.3275,-1.3275,-1.244,-1.2162,-1.3078,-1.3091,-1.3057,-1.3057,-1.2976,-1.2963,-1.3051,-1.2956,-1.2908,-1.2922,-1.2786,-1.2671,-1.2603,-1.2535,-1.2535,-1.2603,-1.2603,-1.2569,-1.2501,-1.2501,-1.2501,-1.2501,-1.2501,-1.2501,-1.2501,-1.2501,-1.2501,-1.2501,-1.2501,-1.2501,-1.2501,-1.2501,-1.2501,-1.2501,-1.2501,-1.2501,-1.2501,-1.2501,-1.1095,-0.9061,-0.6959,-0.4849,-0.2665,-0.0632,0.0,0.0,0.0,0.0,0.0,0.0,0.0,0.0,0.0,0.0,0.0,0.0,0.0,0.0,0.0,0.0,0.0,0.0,0.0,0.0,0.0,0.0,0.0,0.0,0.0,0.0,0.0,0.0,0.0,0.0,0.0,0.0,0.0,0.0,0.0,0.0,0.0,0.0,0.0,0.0,0.0,0.0,0.0,0.0,0.0,0.0,0.0,0.0,0.0,0.0,0.0,0.0,0.0,0.0,0.0,0.0,0.0,0.0,0.0,0.0]}]]